GFSGL_850_spd_000.txt.gz
Wind_Speed
30 33 31 31 31 24 16 13 15 16 12 18 18 14 13 13 14 19 23 26 29 32 33 35 36 35 35 34 34 34 36 36 40 35 33 29 28 26 26 29 30 33 26
32 37 32 29 24 18 15 13 13 12 8 10 11 11 14 18 21 24 27 30 32 34 34 33 34 33 33 34 35 37 38 39 41 39 36 36 32 29 28 28 26 26 30
40 36 29 24 17 15 14 14 13 10 11 9 12 16 19 22 26 27 30 30 30 31 32 32 34 34 36 37 37 37 36 36 37 37 37 36 38 38 36 34 33 30 29
40 34 20 16 14 14 13 11 9 7 12 15 17 21 24 26 28 31 30 31 33 31 31 30 31 33 34 36 36 37 37 39 41 42 43 37 32 33 33 32 37 37 36
36 25 16 16 16 13 9 9 11 13 11 16 22 24 25 29 29 31 31 30 31 34 37 40 42 43 43 43 43 45 46 48 51 48 45 40 40 35 33 34 33 30 32
23 17 13 14 15 17 18 21 8 9 13 20 23 26 28 30 30 27 28 31 34 38 43 46 48 48 46 46 46 42 38 38 40 39 38 36 37 30 29 31 34 32 32
15 11 10 12 12 13 7 4 8 14 20 24 25 28 29 24 25 27 32 37 40 42 38 35 33 30 29 30 31 30 30 31 31 32 35 35 34 31 30 29 31 34 35
7 8 8 7 9 8 10 13 19 23 24 27 27 25 26 26 30 32 34 40 36 33 29 29 31 32 32 32 32 33 32 32 31 31 32 33 32 34 35 32 30 31 32
5 4 6 9 13 19 26 25 23 25 26 25 26 27 28 27 29 36 35 30 28 29 31 33 32 31 32 31 34 35 38 36 34 33 31 30 29 28 28 27 29 28 32
11 14 17 18 16 17 20 22 23 22 24 25 25 23 24 32 34 29 23 23 28 29 29 29 27 28 29 27 28 31 34 36 33 32 32 32 29 27 27 32 32 33 32
16 18 16 19 20 21 20 19 21 22 23 23 25 27 30 28 25 22 21 20 23 28 29 30 30 27 25 26 25 27 31 30 31 31 32 30 30 28 26 26 30 33 33
15 19 19 19 19 18 19 20 20 20 22 25 29 31 26 24 22 22 17 19 22 24 28 28 27 25 24 24 22 23 23 26 29 32 32 32 30 28 25 27 25 26 28
19 19 20 19 18 19 19 18 19 21 24 27 25 27 28 27 26 20 18 21 20 21 24 24 21 24 20 18 17 18 18 20 24 27 30 31 31 32 27 24 22 24 26
18 19 20 20 19 17 16 19 20 21 21 21 26 26 27 29 26 20 25 24 19 18 20 19 16 18 13 13 13 13 14 14 15 21 25 24 25 25 24 27 29 24 24
19 21 20 18 16 16 20 17 17 16 18 22 23 22 26 28 22 22 22 18 16 17 16 21 18 18 15 13 12 10 7 8 10 11 11 14 16 16 17 18 20 20 22
20 21 18 16 16 18 22 18 14 18 19 20 17 19 22 18 18 21 19 13 13 13 11 17 22 18 17 17 16 14 12 9 8 8 8 3 3 6 9 12 16 20 19
21 22 17 17 17 19 20 19 21 21 20 19 17 18 18 15 17 17 13 9 9 7 11 15 17 20 18 18 16 16 15 12 8 6 4 5 5 10 12 13 14 16 18
20 20 18 16 15 17 18 19 20 22 21 22 18 19 16 13 14 12 9 6 5 8 11 12 15 17 17 18 18 16 14 13 13 8 4 5 5 4 3 1 5 8 8
19 19 17 14 16 16 17 17 19 17 19 19 18 17 16 14 11 9 8 7 9 11 11 12 13 15 16 16 18 18 16 13 11 11 8 4 3 3 1 1 3 5 6
19 16 14 17 16 15 15 19 16 17 17 18 17 18 17 15 14 13 11 10 9 10 11 11 12 12 15 16 18 18 19 18 13 11 8 8 4 2 2 1 2 4 5
13 10 12 16 13 12 17 14 16 15 17 16 15 16 15 13 13 12 12 11 11 10 10 10 11 12 13 14 16 18 20 21 19 15 11 9 7 5 4 3 2 1 1
11 10 13 17 13 13 13 14 13 14 15 14 15 15 13 11 11 11 10 10 10 10 9 9 10 11 13 14 15 16 17 18 19 19 14 11 8 7 4 2 1 1 2
13 11 14 12 13 13 13 14 13 14 14 14 15 15 13 11 10 9 9 9 8 9 8 8 8 8 10 11 13 14 16 17 16 15 16 14 11 9 7 5 3 2 2
13 13 13 12 13 12 14 15 13 13 13 13 14 14 12 11 9 8 8 8 10 9 8 7 7 8 8 9 11 12 14 15 14 15 13 13 13 12 11 9 8 7 5
9 10 12 12 11 14 14 14 14 12 12 12 14 12 11 10 9 8 8 10 9 9 9 10 10 9 9 10 11 12 12 13 14 15 13 11 9 10 10 10 10 9 7
7 11 12 11 12 12 14 13 12 11 12 12 13 12 10 9 8 9 9 8 9 10 11 11 11 11 10 11 12 12 11 11 13 14 14 14 12 9 7 6 6 6 7

GFSGL_850_spd_003.txt.gz
Wind_Speed
29 35 41 43 35 33 30 25 21 16 12 11 15 19 15 6 10 14 17 19 21 24 27 30 33 33 33 32 31 31 32 32 37 35 31 31 30 29 29 31 27 29 24
34 40 46 51 34 26 22 17 17 13 15 13 10 7 7 11 15 18 21 23 25 28 29 28 30 31 32 31 31 32 32 33 34 37 32 32 33 31 31 32 31 28 28
40 46 48 39 23 20 20 16 11 9 6 8 11 13 15 17 19 22 24 27 28 28 29 30 30 29 31 30 30 31 32 32 32 33 35 32 33 35 35 35 36 36 36
42 43 37 26 15 16 13 10 11 6 7 10 14 19 23 25 25 27 29 29 30 30 29 29 30 32 35 37 39 41 40 41 41 41 42 37 33 36 38 39 40 40 41
37 28 25 14 9 13 13 12 10 14 18 12 17 22 24 27 28 28 28 26 26 29 32 36 38 40 42 44 44 47 45 45 42 38 39 35 35 31 34 37 39 43 46
20 18 16 12 11 12 16 15 12 10 14 16 20 24 27 28 28 24 25 27 31 37 41 42 42 41 38 34 32 32 31 31 34 34 34 34 32 30 29 31 35 36 37
15 13 12 12 13 13 13 14 15 17 18 19 22 27 29 27 26 26 29 33 35 39 41 38 35 33 31 32 32 31 31 30 31 31 32 31 31 28 26 27 27 27 31
13 9 10 12 14 16 19 21 21 18 21 26 27 27 27 27 27 28 32 38 39 36 32 30 30 31 31 30 30 31 31 32 32 32 31 30 28 26 26 25 28 30 30
5 10 18 19 19 19 20 21 24 24 24 24 25 26 25 26 30 34 34 32 32 31 27 25 26 28 27 26 27 31 32 34 33 32 33 29 26 23 23 23 26 28 32
22 17 19 19 21 23 23 23 22 23 25 25 23 25 28 32 32 28 27 27 28 27 27 27 26 27 28 26 25 27 31 32 31 30 28 27 25 25 23 26 29 34 31
20 18 20 22 22 22 22 22 25 24 23 24 27 29 29 26 26 24 24 21 22 26 27 26 29 29 26 25 25 28 30 28 28 27 28 28 29 27 27 26 27 29 32
19 21 22 21 21 22 23 23 22 24 26 28 30 29 28 25 22 24 20 17 20 22 23 26 30 27 24 26 25 22 23 21 21 23 26 29 30 31 29 24 22 24 25
20 20 20 22 22 22 21 22 24 24 26 27 27 30 31 28 26 23 18 20 22 18 19 23 26 24 24 19 16 18 18 18 20 23 25 27 28 25 24 21 19 17 18
19 21 23 23 22 20 20 23 22 24 26 26 28 30 30 31 28 22 25 26 20 18 21 22 24 18 14 12 12 11 11 9 11 15 19 21 20 20 20 19 20 20 22
19 21 23 23 20 20 21 23 23 22 24 26 27 25 28 30 26 24 25 24 18 20 20 16 19 16 15 12 12 13 11 9 9 9 12 10 8 11 13 13 17 18 18
19 22 24 23 22 23 23 25 21 22 24 23 23 20 22 22 21 23 22 17 16 16 13 14 17 16 17 18 17 16 16 13 11 10 9 9 8 5 4 6 10 12 15
20 23 25 23 21 20 22 22 24 25 22 22 22 20 20 18 20 21 19 14 13 12 10 12 15 17 18 19 18 16 15 16 14 10 7 9 8 8 8 7 9 10 13
20 22 24 21 18 20 20 20 22 25 25 25 20 19 19 16 17 17 16 12 8 8 10 12 14 17 18 19 19 20 15 11 12 12 8 9 10 10 9 5 3 5 5
19 20 20 18 19 20 19 18 21 20 20 22 21 18 17 16 15 13 12 11 11 11 12 12 13 15 17 18 19 20 19 16 13 11 11 9 8 8 7 5 4 3 2
18 17 15 18 20 20 16 18 17 18 18 20 20 20 19 17 16 15 13 12 11 11 11 13 14 14 15 17 18 19 21 21 18 15 13 11 9 8 7 6 5 5 3
11 12 13 16 19 16 17 16 17 16 18 18 18 19 17 15 14 13 13 12 12 12 11 12 12 13 14 16 17 18 19 20 20 18 15 14 11 9 9 8 7 7 6
9 13 13 17 16 17 15 15 16 16 16 16 16 17 15 13 12 11 11 11 11 11 11 11 11 12 14 16 17 17 18 18 17 18 19 16 12 10 9 7 7 7 6
11 16 16 15 15 14 15 16 15 14 14 15 16 16 14 13 12 11 11 10 10 11 11 10 10 10 10 12 14 16 17 18 18 16 16 16 15 14 12 9 8 7 6
11 13 14 15 12 13 15 15 15 14 14 13 15 14 13 13 11 11 9 10 10 10 11 10 10 11 11 11 12 13 14 15 16 16 15 13 14 14 14 12 10 10 8
8 11 14 14 11 13 15 15 14 12 12 13 13 13 12 11 10 9 9 10 10 10 10 10 10 10 11 11 12 12 13 13 14 15 16 14 12 11 11 11 12 10 9
7 10 13 15 12 12 14 14 14 12 12 12 13 11 9 8 8 10 11 11 11 10 11 11 11 12 12 11 13 13 13 14 14 15 15 14 14 12 10 9 9 8 9

GFSGL_850_spd_006.txt.gz
Wind_Speed
32 35 39 44 47 45 31 19 16 14 8 6 9 14 19 16 13 11 12 13 16 19 21 23 26 26 27 26 26 26 26 25 30 35 31 28 30 26 26 27 29 31 30
31 36 44 43 40 29 21 9 7 5 5 8 15 9 8 13 17 18 20 21 22 23 25 27 27 27 29 28 27 27 27 26 27 32 31 28 27 26 26 26 27 32 35
34 39 39 37 31 21 9 8 8 8 8 11 14 15 17 16 21 23 24 25 26 27 28 28 28 27 28 27 28 29 31 31 32 34 36 35 33 32 31 30 32 33 35
36 32 31 27 25 13 7 8 10 7 14 18 18 14 17 21 22 27 29 29 30 28 26 27 29 30 32 35 37 38 39 40 40 41 42 41 37 38 38 39 42 42 42
30 26 24 20 20 15 13 12 14 19 24 23 20 17 19 23 28 30 29 26 27 29 31 34 35 36 36 37 36 37 35 35 31 29 31 30 30 29 33 37 39 40 41
23 22 15 17 18 15 12 13 16 21 24 24 22 22 24 27 28 26 25 26 29 32 35 38 39 36 33 30 27 25 25 27 29 30 32 32 31 30 30 31 33 35 38
23 11 7 8 14 19 21 22 21 23 21 20 24 27 27 25 24 24 25 29 34 37 37 35 33 31 28 28 27 27 26 26 29 31 34 34 34 30 27 27 25 26 30
17 17 18 17 15 18 20 22 23 24 24 25 25 25 26 25 26 30 33 34 34 33 31 30 28 26 25 24 25 27 28 29 29 29 30 31 31 32 28 27 26 27 28
14 20 20 19 20 23 24 23 23 23 24 25 24 25 27 30 31 31 29 30 31 30 27 23 23 23 23 24 25 28 29 27 25 25 27 29 28 26 28 26 28 28 30
19 21 20 21 23 23 23 23 24 25 24 24 26 28 29 29 28 28 26 28 29 27 24 25 21 23 24 27 26 28 30 30 29 29 28 24 25 26 25 26 27 29 29
21 19 22 22 22 22 23 23 22 23 26 27 28 28 27 27 28 25 25 23 22 25 27 25 23 22 27 26 24 26 28 28 24 24 24 24 23 24 25 26 28 30 31
18 20 21 21 22 23 23 22 23 25 27 28 30 31 30 29 25 25 22 19 20 23 23 21 23 28 31 25 22 18 18 20 21 21 21 23 22 23 24 27 27 27 28
19 20 21 22 24 24 23 24 25 26 27 29 30 33 34 32 29 25 21 21 24 18 17 19 23 26 23 18 15 15 15 15 14 14 17 19 20 20 20 21 20 19 20
18 20 21 23 25 25 24 24 25 26 27 28 30 31 32 32 30 26 28 27 23 17 21 21 20 20 16 14 11 12 12 10 10 11 13 15 14 12 13 14 17 17 18
19 20 21 23 25 26 24 23 24 24 24 28 27 28 28 29 28 25 25 25 19 19 18 17 17 18 18 16 13 12 13 12 10 9 8 9 10 5 5 7 10 14 17
20 21 22 23 25 25 23 24 22 21 24 23 24 24 21 22 22 23 24 19 16 16 13 13 16 18 19 21 21 16 13 15 13 10 8 9 7 6 4 2 7 11 15
21 21 22 24 24 23 23 24 25 23 22 22 22 21 21 21 20 22 21 16 12 12 11 12 15 18 19 20 22 21 17 15 15 13 10 11 10 9 3 2 3 5 7
19 19 20 22 20 21 24 22 21 24 26 26 22 21 21 19 18 19 18 14 10 12 13 14 15 16 18 20 21 22 19 15 14 13 12 11 11 10 9 9 4 1 3
15 16 18 17 20 21 22 20 20 21 22 24 24 21 19 17 17 16 16 16 15 14 14 14 15 17 18 19 19 19 20 19 16 15 12 11 9 9 7 6 6 4 3
15 14 14 17 19 22 19 18 19 20 20 22 22 23 22 19 18 18 17 15 14 14 13 14 15 16 17 18 19 19 18 19 20 18 16 13 11 10 9 8 6 5 3
10 10 14 16 19 18 19 18 20 20 19 20 20 21 19 19 17 17 16 15 14 13 13 14 14 15 16 17 17 18 18 18 19 20 19 16 13 10 9 8 7 7 6
9 11 16 18 17 16 16 18 18 17 17 18 19 19 17 16 15 15 15 14 13 14 14 14 15 15 16 17 17 17 18 18 18 18 19 18 16 13 11 9 8 8 7
9 12 16 16 16 13 14 17 17 17 16 16 18 17 15 15 15 14 13 13 14 14 14 13 12 12 13 14 15 16 17 19 20 17 16 16 16 16 14 12 10 9 8
9 11 14 17 15 14 14 16 17 16 15 15 16 16 14 14 13 12 11 13 14 14 14 14 14 14 14 13 14 14 15 16 16 17 16 14 13 13 14 13 12 11 10
8 10 14 17 16 15 14 14 16 17 14 14 15 14 11 11 10 8 10 13 13 13 13 13 13 13 14 14 14 14 15 15 15 15 15 15 14 12 11 11 11 11 10
7 10 13 16 16 15 15 14 15 16 14 14 14 12 10 8 8 10 10 10 12 12 12 12 12 12 12 13 13 14 14 15 15 15 15 15 15 14 13 12 10 10 10

GFSGL_850_spd_009.txt.gz
Wind_Speed
27 27 33 39 40 36 33 25 17 6 4 5 7 8 12 17 12 12 14 16 16 16 16 17 19 21 22 21 19 19 20 21 25 29 25 23 25 24 23 22 22 24 24
27 32 36 35 33 29 23 16 4 5 4 6 12 19 26 18 13 15 18 19 21 22 22 23 23 22 22 23 23 21 19 20 23 28 27 25 25 24 22 21 22 23 23
33 36 36 30 27 22 16 10 8 10 10 14 20 23 21 15 13 16 18 23 26 27 27 24 22 22 23 22 24 23 24 25 26 28 31 28 28 26 28 29 28 29 30
35 31 25 23 22 20 16 15 14 14 18 22 24 18 20 20 20 22 24 27 29 27 25 26 27 28 28 27 26 25 25 25 25 27 29 30 28 28 29 30 31 29 31
28 25 25 19 15 18 17 17 18 19 20 21 23 22 21 21 22 27 30 28 26 27 28 30 32 32 33 32 27 24 23 25 25 26 27 27 27 25 26 26 29 28 29
25 24 18 17 16 17 17 19 21 22 22 22 21 22 24 25 24 24 24 24 27 28 28 31 31 31 29 27 25 23 23 24 25 25 26 27 27 26 25 25 25 25 29
18 12 14 16 17 19 21 23 25 24 23 22 21 23 23 23 23 24 26 28 29 29 27 26 25 24 23 20 20 22 23 24 26 27 29 30 30 26 24 24 24 24 25
12 13 17 19 21 23 24 24 23 22 23 24 23 22 23 25 26 27 27 27 24 24 24 24 21 20 19 18 20 21 22 23 24 25 27 28 27 26 27 28 27 26 25
14 17 20 20 23 24 24 24 24 25 24 23 23 25 26 25 25 26 26 23 22 23 22 18 18 20 19 19 20 24 26 26 24 25 24 25 25 26 25 24 27 27 26
16 21 21 22 23 23 23 24 24 23 24 24 25 25 25 26 26 25 22 20 22 20 19 19 20 18 19 18 23 26 26 24 23 20 21 23 24 24 26 28 29 25 24
17 21 20 21 22 22 23 24 24 24 24 25 26 26 24 24 25 22 20 17 18 20 20 21 19 18 20 26 25 21 21 21 20 20 20 20 21 21 20 22 26 30 26
20 18 19 21 21 22 25 24 24 24 25 27 28 24 21 23 22 22 17 18 16 20 19 17 17 23 25 23 17 15 16 17 16 17 17 16 17 19 19 19 22 24 25
19 17 18 20 21 23 24 25 24 22 23 23 21 23 23 22 20 21 21 22 20 16 13 17 19 19 17 14 12 12 13 12 12 12 12 13 15 16 17 18 17 19 20
19 18 19 21 21 23 24 23 21 19 19 19 21 22 22 22 20 21 22 21 19 16 16 16 15 13 13 12 9 8 9 10 9 9 10 10 10 11 10 12 14 14 16
18 19 20 21 22 23 22 20 20 20 20 20 19 20 21 20 21 22 23 22 17 16 11 11 12 14 15 15 12 8 10 12 10 8 7 8 8 8 5 6 10 11 13
18 18 19 20 21 21 21 20 17 16 19 18 19 20 17 18 19 20 21 16 14 11 9 10 12 15 17 17 16 14 12 12 13 10 9 10 8 6 5 2 5 8 9
17 16 16 16 19 19 20 22 21 20 18 17 19 20 19 17 17 18 18 14 10 8 10 12 14 15 15 15 18 18 16 14 12 12 10 10 9 9 5 2 2 2 4
13 12 14 15 14 17 21 20 20 21 23 22 21 21 19 17 16 17 15 12 10 11 13 15 15 16 16 17 18 18 18 17 14 12 11 10 9 8 7 6 3 1 2
11 12 11 11 15 18 19 18 18 20 21 21 23 21 20 17 15 15 14 14 14 13 13 14 15 16 16 17 17 16 16 17 16 14 12 11 9 8 5 4 4 2 2
10 9 9 13 16 18 17 17 19 20 19 19 21 22 22 19 18 17 16 15 13 13 13 14 14 15 15 16 17 17 16 16 17 16 14 13 10 9 8 7 5 3 2
10 8 10 14 17 16 15 17 19 19 18 18 19 20 19 18 17 16 16 15 14 15 14 13 13 14 14 15 16 16 17 16 16 16 17 16 12 9 8 7 6 5 5
9 9 11 15 16 15 14 16 18 18 17 17 17 17 16 16 15 14 14 15 15 15 15 14 14 14 14 15 15 15 16 17 16 15 16 16 15 12 10 8 6 5 5
6 7 11 14 16 16 14 15 17 18 16 16 17 16 15 15 13 12 12 14 14 14 14 14 13 13 13 14 14 15 15 17 18 17 15 14 13 13 12 10 9 8 6
10 8 9 14 15 17 15 15 16 17 16 15 16 15 12 13 12 11 10 12 13 14 13 13 13 14 14 13 13 14 14 14 14 14 15 15 13 11 10 10 10 9 9
9 6 9 13 15 16 15 15 15 16 16 15 14 13 11 10 9 9 10 10 11 13 13 12 12 12 13 13 13 14 14 14 14 14 13 14 13 12 11 10 9 9 8
7 8 10 13 15 16 15 15 15 15 15 14 14 12 11 9 9 8 8 10 11 12 12 11 11 11 11 12 12 13 13 13 14 14 13 13 12 12 11 10 10 9 9

GFSGL_850_spd_012.txt.gz
Wind_Speed
14 17 19 23 23 21 20 17 15 12 9 8 7 9 13 21 28 15 10 10 9 9 10 12 14 15 15 15 16 17 18 20 26 27 24 22 23 23 22 22 21 22 21
18 19 19 19 17 19 17 14 13 11 10 10 12 18 24 22 13 12 12 12 12 14 14 16 17 17 16 16 17 18 20 21 24 28 27 26 26 24 24 25 23 22 22
21 20 17 17 18 16 16 16 14 14 14 15 18 23 21 17 15 15 15 16 18 18 18 18 18 16 17 17 18 20 22 23 24 26 30 27 27 26 26 27 26 26 27
20 19 20 18 14 15 15 15 15 16 16 17 17 19 18 16 17 16 16 18 19 19 18 17 18 18 19 20 20 22 23 24 24 25 28 29 26 26 27 28 29 28 29
18 19 17 11 11 14 16 16 16 16 17 17 17 16 16 16 15 21 18 17 19 20 20 20 20 21 27 30 25 23 23 25 25 26 28 29 28 26 28 28 30 28 28
18 16 10 11 14 15 15 17 18 18 16 16 16 16 17 15 20 22 23 21 22 23 24 23 23 24 23 24 27 26 24 23 25 24 25 27 27 25 23 24 24 24 27
17 12 12 14 15 15 17 18 18 17 16 17 17 16 15 16 23 26 27 26 22 22 22 23 23 22 23 21 23 24 24 24 24 24 27 28 28 26 24 25 25 26 28
17 15 13 14 14 16 17 17 17 17 18 17 17 17 18 18 25 26 27 24 21 21 22 22 23 23 21 20 21 20 21 22 23 24 26 27 27 26 25 26 27 28 28
19 16 14 13 14 16 16 17 17 18 18 18 17 19 20 20 23 26 25 21 21 22 21 20 20 21 21 22 21 22 22 24 24 28 29 28 29 30 28 25 25 25 29
16 13 13 13 14 15 16 17 17 18 18 18 18 19 20 19 21 22 20 20 21 20 20 19 20 20 21 20 19 22 25 25 23 22 22 23 21 25 25 29 30 29 27
15 14 14 12 13 14 16 17 19 20 19 20 21 22 19 20 22 22 21 19 19 21 20 20 18 18 20 21 25 26 22 21 21 20 19 19 20 20 22 24 25 28 30
18 17 14 12 12 15 16 19 20 20 19 20 21 20 18 22 21 21 22 19 21 21 20 18 18 20 24 22 20 16 17 16 16 15 15 16 16 16 17 19 21 21 24
18 14 14 13 13 14 18 20 19 17 18 18 17 20 21 20 19 21 22 22 21 20 17 18 20 19 16 12 13 12 10 10 12 12 12 13 13 14 16 19 20 19 20
16 15 13 13 15 16 17 16 16 15 17 16 18 20 20 20 18 20 21 21 20 17 18 12 16 13 10 12 10 9 8 9 10 10 11 10 10 11 12 11 13 15 16
15 13 12 12 13 14 14 14 13 12 15 16 15 17 18 19 19 21 22 21 18 17 12 10 10 10 10 11 11 9 8 9 9 9 9 10 10 9 9 7 7 8 11
14 9 9 11 10 11 11 12 16 19 18 16 17 18 16 16 18 18 19 17 14 12 7 8 10 11 11 12 13 12 11 11 10 10 9 9 9 10 8 7 4 6 8
12 11 7 9 8 8 10 11 12 12 19 20 20 18 17 16 15 16 15 12 10 7 8 9 11 12 13 12 12 12 13 13 12 9 10 10 9 9 9 7 5 4 3
10 9 7 6 6 8 10 10 10 12 14 13 16 19 18 15 14 14 13 10 9 9 9 10 11 12 13 13 14 13 13 13 13 12 11 10 9 9 9 8 6 3 3
8 6 7 6 9 12 11 9 10 12 13 13 13 13 15 15 15 14 12 10 10 10 10 10 11 12 12 12 13 13 14 14 14 15 13 11 9 10 9 9 7 8 5
8 7 5 6 8 9 9 9 10 11 12 12 13 12 14 12 11 12 12 11 10 10 10 10 10 11 11 12 12 13 13 14 14 14 14 13 11 10 9 9 9 8 6
7 6 6 5 7 8 8 8 9 10 10 10 11 12 16 10 10 10 10 11 11 11 10 10 10 10 11 11 12 12 13 13 13 13 13 14 14 12 10 9 8 8 7
6 6 5 7 7 8 9 8 9 9 9 9 10 11 14 10 8 8 8 10 12 12 11 11 10 11 11 12 12 12 12 12 13 13 12 13 13 12 11 10 9 8 7
6 6 6 7 9 11 9 9 9 9 9 8 8 8 7 8 8 8 9 10 11 12 12 11 11 11 12 12 13 13 14 14 14 14 13 12 11 11 10 10 9 8 8
10 8 6 8 9 10 10 10 9 11 11 8 8 7 7 6 7 8 9 9 9 11 11 11 11 11 11 11 12 12 13 13 13 13 12 12 11 10 9 8 8 9 8
8 5 6 8 9 9 11 10 10 10 10 9 8 7 7 7 7 7 7 8 8 8 11 10 10 10 10 11 11 11 12 12 12 12 11 10 10 9 9 8 8 8 8
7 6 7 8 9 10 11 10 10 10 10 9 8 7 8 8 7 7 7 7 7 8 8 9 9 9 10 10 10 11 12 12 12 11 10 9 9 9 8 8 8 7 8

GFSGL_850_spd_015.txt.gz
Wind_Speed
16 17 19 20 19 19 21 20 20 18 18 16 14 16 20 26 27 27 17 17 15 12 13 15 15 16 17 18 18 19 19 18 23 24 22 21 21 23 24 23 21 22 22
18 20 22 20 20 21 19 20 18 19 18 19 21 25 23 21 17 18 17 14 15 16 17 17 18 19 20 19 19 20 20 21 24 27 25 25 25 24 25 25 24 23 24
21 22 21 21 20 20 18 17 17 18 19 20 21 20 21 22 20 19 19 18 19 19 20 22 22 22 21 20 20 21 21 22 23 26 28 27 27 25 25 25 26 26 26
21 20 21 20 18 16 15 15 18 19 20 20 20 21 20 20 20 19 15 18 19 21 22 22 23 23 23 22 21 21 21 23 24 27 30 29 27 26 26 26 27 26 27
21 21 22 19 17 15 16 17 18 19 20 19 19 19 19 20 20 21 25 23 21 23 23 24 24 24 26 30 30 27 23 23 23 26 29 29 28 26 25 24 26 25 26
22 23 22 18 15 16 16 17 19 19 19 19 19 20 20 20 24 27 30 31 26 24 24 24 24 25 25 24 24 29 26 23 24 25 28 28 26 26 25 24 23 22 24
25 24 21 17 17 16 17 19 19 19 19 20 20 20 20 20 24 29 34 34 26 23 23 24 25 24 24 23 23 20 23 24 25 24 27 27 28 27 25 25 27 27 26
28 25 20 18 19 18 18 18 19 19 20 21 20 19 20 20 25 31 35 31 23 23 23 24 24 25 23 25 23 23 22 22 22 24 27 27 25 24 25 26 27 28 27
29 24 19 19 17 17 18 18 19 20 21 21 19 20 22 22 24 28 31 23 22 23 22 21 22 24 23 23 23 23 23 22 21 24 28 31 33 34 34 32 33 27 26
29 23 20 19 18 15 16 18 19 21 21 21 21 23 24 24 22 28 25 25 24 22 22 22 21 22 24 23 22 23 23 22 23 24 23 23 24 24 26 30 31 31 32
27 20 20 18 14 13 15 18 20 22 22 21 26 25 23 21 24 23 23 22 23 25 24 23 21 22 14 16 22 27 27 25 24 21 20 19 19 18 21 23 26 28 29
20 17 17 12 11 13 16 19 20 21 19 21 22 24 21 22 20 21 24 26 23 25 24 22 23 25 27 26 21 17 19 19 15 14 17 17 17 15 14 16 20 23 25
26 18 11 11 12 15 16 19 20 17 16 20 19 21 21 22 21 21 25 23 23 23 20 23 19 17 22 13 13 13 10 8 12 13 13 13 13 14 14 14 17 21 23
18 16 13 12 13 14 15 17 15 15 17 16 19 19 21 21 20 21 24 24 24 21 21 13 15 15 11 11 12 10 8 9 10 10 12 11 12 11 13 12 12 12 14
15 14 13 12 12 13 13 12 14 14 20 21 18 17 19 20 20 23 23 24 21 20 13 13 13 13 12 11 11 10 9 10 9 9 9 10 10 9 11 8 9 8 9
15 11 11 12 11 12 10 11 15 17 19 22 22 23 27 17 20 19 20 19 17 14 10 12 12 13 14 14 15 14 13 13 11 10 10 10 10 8 10 7 7 5 6
14 11 9 10 9 7 10 12 13 13 18 20 21 25 28 26 19 17 18 14 15 12 10 11 12 14 16 17 17 15 15 15 14 13 11 11 10 8 9 8 8 6 5
12 10 9 8 8 9 11 10 10 13 14 14 17 21 23 26 19 17 16 11 11 12 11 12 14 15 14 14 14 16 16 15 14 13 13 11 10 9 9 9 8 8 6
10 8 11 8 9 11 10 10 10 11 12 14 15 13 18 17 17 17 16 11 10 12 12 12 13 13 13 13 13 13 15 16 14 12 13 13 12 9 9 9 8 7 6
9 12 9 7 8 10 10 10 10 11 11 13 13 14 15 14 12 12 12 12 10 10 10 11 11 12 13 13 13 12 14 14 16 14 13 14 13 11 10 9 9 9 7
11 11 12 9 9 10 9 10 10 10 10 11 13 17 20 13 11 11 11 11 10 10 10 10 10 11 11 12 12 13 12 12 13 14 13 14 13 13 11 10 9 9 8
10 8 10 11 10 10 11 10 10 11 11 11 11 12 19 12 10 10 10 9 9 10 11 9 9 10 11 11 12 12 12 13 12 13 13 13 13 12 11 11 10 9 10
11 10 10 11 12 13 12 11 11 12 12 11 11 10 11 11 10 9 9 10 9 10 11 11 10 10 11 11 12 12 13 14 15 14 12 13 12 11 11 11 12 11 10
10 12 11 10 11 13 12 12 13 12 13 13 12 12 11 10 9 10 11 11 9 9 10 11 11 10 10 11 11 12 12 13 13 13 11 11 11 11 10 9 8 11 10
12 11 8 9 11 13 13 13 13 12 13 14 13 12 11 11 9 9 9 9 10 8 9 10 10 10 10 10 11 11 12 12 12 12 11 9 10 10 9 9 9 8 10
12 11 10 10 11 10 13 13 12 12 12 13 13 13 12 10 9 9 9 9 9 10 10 10 10 10 10 10 11 11 12 12 12 11 11 10 10 10 9 9 9 9 9

GFSGL_850_spd_018.txt.gz
Wind_Speed
15 16 18 21 22 21 16 20 26 31 28 20 22 26 27 26 25 22 21 21 21 20 21 21 20 17 19 19 18 21 21 22 26 27 26 22 19 16 17 18 21 22 24
17 20 22 21 20 19 23 28 24 21 21 22 23 26 25 24 23 22 22 22 22 19 21 23 24 24 23 22 21 21 22 23 25 27 24 22 23 23 25 23 20 20 24
19 21 22 21 20 22 21 20 19 19 21 23 25 25 26 25 23 22 22 18 18 20 25 24 24 24 25 24 24 26 26 26 25 25 25 25 25 24 25 26 26 25 22
18 20 21 21 23 19 19 20 19 20 22 24 23 23 23 23 23 22 20 24 28 34 32 26 27 26 26 27 25 24 25 24 25 27 31 28 25 25 25 26 26 25 28
23 22 21 24 21 17 18 18 18 20 21 21 22 22 23 24 23 24 28 30 32 35 36 31 25 24 26 27 28 29 27 31 31 28 27 25 23 21 20 16 15 15 16
23 25 30 23 20 16 21 16 18 20 20 22 21 22 22 21 24 28 31 33 34 35 38 28 23 26 24 25 23 25 26 27 27 27 28 29 31 29 28 26 24 22 22
30 27 27 27 19 20 16 14 15 19 20 21 22 21 20 20 24 31 33 33 35 36 27 25 27 25 25 23 22 23 22 18 21 22 27 29 29 25 25 27 29 28 26
34 36 23 27 19 17 16 12 14 16 19 22 21 20 23 29 31 31 34 31 34 29 25 27 26 27 26 27 29 29 27 27 26 26 28 29 25 25 25 26 26 27 29
33 27 38 28 19 19 12 13 12 17 20 19 19 24 28 32 30 27 27 32 29 30 29 23 24 25 24 22 24 25 24 23 22 22 25 24 25 27 30 32 35 35 36
31 26 24 20 15 19 22 8 15 17 17 22 26 29 31 30 24 25 26 27 27 28 31 27 25 23 26 25 21 20 19 22 26 29 32 33 30 31 30 27 26 31 31
30 30 31 30 29 22 11 12 14 18 19 25 30 30 28 24 23 23 26 24 24 30 29 27 23 22 23 26 27 28 27 25 25 24 23 18 15 14 16 18 21 24 27
30 29 27 23 12 13 12 14 16 17 19 25 27 27 25 20 22 25 22 22 29 25 26 24 25 25 21 22 19 13 16 17 13 10 13 16 17 17 17 16 15 20 23
25 23 22 19 13 15 13 15 16 16 19 24 23 24 25 27 25 21 27 29 23 25 22 22 14 16 18 13 14 13 13 11 13 11 12 13 13 13 12 12 12 14 15
21 20 17 16 14 13 11 13 15 17 23 24 23 25 27 28 25 25 25 24 24 22 19 15 14 16 13 10 12 12 10 9 9 10 10 10 10 11 11 11 12 11 11
20 16 13 13 12 16 15 13 15 18 21 21 22 23 26 28 28 23 22 23 23 21 14 15 15 16 15 15 15 11 11 11 10 9 9 10 10 9 8 10 8 8 8
17 14 16 15 15 15 9 14 16 18 17 20 20 23 26 26 29 22 20 20 16 18 12 14 15 16 16 17 17 15 14 15 13 12 11 10 11 8 10 12 6 7 6
19 16 15 9 12 12 12 15 17 16 17 19 20 23 25 26 26 21 20 17 14 16 14 13 15 16 16 15 16 16 18 17 13 13 13 12 10 8 11 9 10 8 9
16 15 12 11 14 13 13 14 14 16 18 16 19 21 18 24 23 20 20 18 14 14 15 13 14 15 16 15 14 14 16 17 15 12 12 13 11 10 10 10 8 9 7
15 19 12 12 11 11 12 13 14 14 15 15 16 16 20 26 18 17 17 19 16 14 14 13 14 14 14 13 13 11 13 14 15 11 11 14 13 11 10 9 9 8 7
11 17 15 12 10 11 13 14 13 14 15 15 16 20 23 26 16 16 16 17 17 15 14 11 11 12 13 12 12 11 10 11 11 11 9 12 14 11 11 10 9 9 8
10 16 16 14 12 12 14 13 14 15 14 15 16 20 21 22 16 17 16 16 15 16 15 13 11 12 13 12 12 11 11 13 11 10 7 9 12 11 11 10 8 7 10
18 14 11 13 13 15 13 16 13 14 16 15 17 17 19 18 19 18 14 16 15 15 14 14 13 13 14 14 13 14 14 15 15 14 9 8 10 7 9 10 12 9 9
11 13 13 13 13 14 16 15 14 14 15 17 16 16 16 17 19 18 16 15 14 13 13 14 13 12 12 13 13 14 14 15 15 15 12 10 11 9 7 7 7 11 10
12 11 13 13 11 12 14 15 15 16 15 15 16 16 17 17 19 17 17 15 16 14 13 12 13 13 13 12 12 13 14 14 14 13 12 11 11 10 8 8 4 8 12
15 13 15 12 12 13 14 16 16 17 14 14 16 16 17 16 17 16 17 15 15 14 14 13 13 12 12 13 12 13 13 14 13 12 11 11 10 10 8 9 7 6 9
18 16 16 14 14 14 14 14 17 17 15 14 14 16 16 17 18 16 17 16 15 15 16 14 13 13 13 13 12 13 13 13 13 12 11 10 10 10 9 10 9 8 9

GFSGL_850_spd_021.txt.gz
Wind_Speed
14 19 26 25 23 22 24 26 29 31 34 21 21 22 22 24 23 23 23 23 23 20 16 15 17 20 23 24 23 21 18 20 25 27 22 20 18 15 13 16 18 17 12
24 26 27 28 23 24 26 29 32 29 27 18 19 24 25 24 23 22 22 24 23 19 17 21 27 32 28 22 21 23 24 25 27 29 26 24 23 20 18 16 15 14 12
28 30 26 26 29 28 29 31 28 25 24 19 20 23 24 24 24 25 25 24 23 26 31 34 33 30 30 29 26 26 27 25 24 26 28 30 32 30 29 29 26 25 27
32 24 25 31 28 30 30 23 25 26 21 18 18 20 24 24 24 23 24 28 32 34 33 33 34 33 28 26 26 26 27 30 30 31 33 34 34 33 34 23 24 18 22
26 31 35 31 30 26 29 42 26 19 14 16 17 20 22 23 25 28 31 33 36 38 36 36 36 29 22 20 22 22 22 22 24 27 27 27 25 23 23 22 21 20 17
27 31 30 31 24 30 33 19 15 15 11 16 19 19 21 24 26 28 30 35 36 35 32 34 31 26 22 22 22 21 20 21 23 24 24 26 27 24 24 25 32 31 29
27 28 28 34 35 28 25 26 12 9 11 15 19 18 19 23 26 29 34 31 28 28 30 31 30 25 23 24 26 26 26 25 24 23 21 23 25 24 23 21 20 21 24
28 29 32 33 31 32 30 22 10 13 11 15 15 17 23 24 28 30 26 26 28 27 27 28 29 26 23 23 22 23 24 22 21 20 21 24 23 24 23 23 23 24 25
24 27 31 35 40 35 25 20 22 9 12 11 17 22 27 27 27 24 26 28 27 29 27 29 26 25 21 21 22 21 22 22 21 20 19 21 23 22 21 22 27 27 31
24 29 31 34 25 26 15 15 11 9 14 20 22 25 26 27 24 23 25 24 23 26 32 33 25 20 20 18 23 23 25 25 25 25 27 29 28 29 29 28 29 30 30
30 34 35 24 22 12 12 10 11 15 17 19 21 25 25 26 25 27 28 25 26 30 31 27 22 21 21 19 20 21 19 15 17 19 17 13 9 9 11 13 16 19 22
33 33 25 22 17 16 15 12 9 12 16 20 24 27 26 24 25 25 25 26 22 22 25 21 18 19 16 17 14 13 14 13 13 12 11 10 11 11 11 12 11 15 17
32 25 24 15 13 10 11 8 13 17 20 23 25 25 25 26 27 28 24 21 20 21 19 16 13 18 16 11 10 11 10 8 8 8 9 10 9 9 8 9 9 11 13
27 25 15 11 11 12 13 16 18 19 20 22 21 22 24 26 28 29 27 23 21 21 15 14 16 15 11 14 13 9 11 11 9 9 7 7 8 7 6 7 8 3 7
24 23 15 15 16 16 16 12 15 19 20 18 19 19 24 25 28 23 23 23 20 19 15 15 16 16 15 16 15 13 13 13 10 9 9 9 8 7 5 10 3 6 3
24 21 18 16 10 10 13 13 14 15 13 16 17 20 23 23 27 24 20 19 14 18 16 14 16 17 17 16 15 15 16 16 11 10 9 10 9 9 8 8 8 7 5
22 21 18 14 10 12 14 15 16 13 12 13 17 19 23 23 28 24 19 20 15 14 15 14 15 16 17 15 14 13 15 15 11 10 10 10 9 8 8 8 7 7 8
20 16 17 19 12 13 13 12 12 15 16 15 16 18 21 22 27 21 17 19 19 16 15 13 14 16 16 15 14 12 12 12 12 10 10 11 11 10 9 8 8 7 7
13 14 14 13 14 11 11 12 14 13 13 15 14 18 20 21 24 18 17 19 21 20 17 13 12 15 15 14 13 11 12 12 11 7 9 9 10 12 11 9 7 6 6
11 14 14 14 15 12 12 14 14 13 15 14 15 17 20 21 22 22 21 19 20 17 16 15 13 14 15 14 14 13 13 14 12 7 7 8 7 10 10 10 9 8 8
14 17 19 17 14 12 12 14 13 17 13 14 16 18 20 20 21 20 23 21 20 17 15 14 15 14 13 13 13 13 14 14 13 10 7 7 6 6 7 7 7 7 8
18 20 20 11 12 13 13 14 17 15 14 15 15 18 17 18 20 20 22 20 20 18 15 13 14 14 14 14 14 13 14 14 13 11 9 8 7 4 6 5 6 8 7
13 12 12 12 13 13 13 13 14 15 15 16 15 16 17 17 19 19 21 19 18 18 17 13 13 13 12 12 13 14 15 14 14 14 11 10 10 7 6 7 5 8 8
12 14 12 13 13 12 11 12 14 15 16 17 15 14 17 17 19 19 20 19 19 18 17 14 13 13 13 12 11 12 13 14 13 13 12 11 10 9 7 7 4 8 9
16 17 17 15 16 15 15 15 15 15 16 19 15 15 16 17 18 18 19 18 19 18 14 16 14 12 13 12 11 11 12 13 13 12 11 10 9 8 8 7 7 7 8
20 21 22 19 18 18 16 16 16 17 18 17 16 16 17 18 16 17 18 17 18 18 16 17 14 13 14 13 11 11 11 12 12 12 11 10 9 8 7 8 7 7 8

GFSGL_850_spd_024.txt.gz
Wind_Speed
18 23 25 29 32 30 27 27 30 31 30 25 27 22 20 21 21 20 20 20 21 22 20 18 21 25 30 32 30 26 21 21 25 27 25 26 24 22 19 13 14 16 17
22 25 28 29 27 33 33 32 32 32 32 30 27 21 22 21 20 21 22 24 24 21 23 26 31 34 34 31 28 27 26 26 25 28 27 26 26 23 24 25 22 18 18
20 21 20 24 28 32 32 31 32 30 19 18 20 23 19 20 22 21 23 23 25 28 31 33 35 34 34 32 29 28 27 26 22 26 29 28 29 27 29 30 26 23 22
24 17 20 28 29 26 23 23 29 35 38 17 17 17 19 23 22 22 23 26 28 30 33 35 31 29 30 26 24 23 23 26 26 26 25 23 26 25 26 25 24 21 21
20 25 29 29 26 33 25 26 28 29 24 18 11 16 19 20 21 21 24 26 31 34 31 27 27 27 26 21 21 21 18 22 23 23 25 25 24 25 23 22 22 22 22
28 29 28 28 33 33 34 36 32 26 22 5 10 15 19 16 19 24 28 31 31 27 26 27 27 27 26 23 20 21 24 24 23 22 22 19 21 24 21 20 22 20 21
24 23 24 31 33 37 40 29 24 23 10 5 11 13 14 20 23 27 28 26 26 26 27 27 29 26 28 21 20 20 20 20 22 22 24 26 25 23 22 22 21 18 19
21 25 30 33 37 39 26 19 15 10 9 7 10 15 19 22 26 27 26 24 26 28 27 27 27 29 22 20 19 22 19 18 17 19 22 22 21 20 19 19 19 20 21
26 29 30 33 33 22 11 10 10 6 6 9 15 17 22 25 26 26 27 28 27 26 28 28 24 22 20 17 20 20 19 19 20 19 18 18 19 17 18 19 21 20 25
28 27 32 28 22 13 12 8 9 6 9 12 14 20 23 24 24 25 25 27 27 27 25 23 20 17 17 17 18 19 22 23 18 16 19 23 25 28 29 28 28 30 30
26 30 25 21 18 11 11 10 9 9 6 12 18 22 22 23 24 24 26 22 21 21 22 19 17 16 18 18 18 17 16 15 16 16 13 9 7 9 11 13 14 17 21
31 27 22 23 15 12 10 10 7 7 12 17 19 19 20 21 22 27 24 18 17 17 19 16 16 19 19 12 11 11 11 10 8 7 6 7 7 7 7 9 10 13 10
28 26 23 16 11 10 10 12 13 14 15 17 18 18 18 21 22 25 26 23 17 17 17 14 18 16 11 12 12 9 9 9 8 7 8 7 6 5 5 7 9 11 10
25 26 23 17 15 14 14 14 13 14 16 16 15 15 18 21 23 26 27 24 20 18 19 16 15 14 12 12 10 11 10 9 8 7 7 7 7 6 3 4 2 1 5
23 24 21 16 14 9 7 10 13 15 14 12 14 16 19 21 23 23 21 20 17 19 18 14 14 15 15 15 12 12 12 13 10 8 8 8 7 6 4 7 3 3 2
22 17 19 15 12 7 8 12 12 11 9 11 14 15 17 20 22 20 18 19 18 17 15 13 14 15 16 15 14 12 12 14 11 10 9 7 8 8 7 6 6 5 4
19 17 15 15 17 8 13 13 13 7 8 9 13 15 16 18 20 23 18 19 18 17 15 12 13 15 16 14 14 12 13 13 11 9 10 9 6 6 7 6 5 5 6
14 15 14 14 13 11 11 11 10 12 13 12 13 14 16 17 19 20 20 18 19 17 16 15 14 14 15 14 14 14 13 12 9 7 8 8 8 7 6 7 7 5 3
14 13 14 11 14 15 12 10 12 12 10 13 14 14 15 17 17 19 19 20 20 18 15 15 14 15 14 14 14 13 13 14 10 6 6 7 7 8 6 6 5 5 5
14 15 15 12 15 17 13 12 12 13 13 12 11 14 16 17 16 17 19 19 20 18 15 14 14 14 14 13 13 12 12 13 12 7 6 6 5 5 6 6 6 6 7
15 16 17 17 19 20 18 14 14 13 14 12 12 13 15 15 16 17 17 18 18 17 16 14 13 13 13 13 12 12 12 12 12 10 8 8 7 5 4 5 6 7 7
15 17 17 15 14 12 13 15 14 14 14 13 15 13 12 14 15 16 17 17 17 17 16 14 13 13 13 13 13 13 13 13 12 11 10 9 9 7 6 7 7 8 10
15 14 11 11 11 12 12 13 13 14 14 13 14 15 14 14 16 15 16 16 15 15 16 14 13 13 13 12 12 12 13 14 14 13 12 10 10 9 8 9 8 9 11
17 16 16 14 14 17 15 15 14 14 14 15 16 17 16 15 14 15 15 15 15 14 15 13 13 12 13 12 11 12 11 12 13 13 12 11 10 9 8 8 8 10 10
19 19 19 20 19 18 19 18 17 17 17 16 15 19 17 16 15 16 15 15 14 13 13 13 14 12 12 12 11 11 11 11 12 12 12 11 11 10 9 9 9 8 8
21 21 23 23 21 23 20 21 20 18 18 17 18 19 18 17 14 12 14 11 13 12 12 12 13 13 13 12 11 10 10 10 11 10 10 11 10 9 9 9 9 9 8

GFSGL_850_spd_027.txt.gz
Wind_Speed
14 17 18 19 20 21 24 28 28 29 28 23 19 18 18 15 21 19 20 21 22 22 22 20 23 27 30 32 32 31 29 26 28 32 28 27 24 22 24 23 22 21 19
17 20 19 16 16 22 26 27 26 25 26 30 35 36 22 12 19 20 21 22 22 23 24 26 29 31 35 32 29 29 28 27 27 30 29 23 22 23 24 25 23 22 21
21 19 17 21 27 28 25 30 31 26 27 30 31 29 14 14 17 20 22 23 23 24 26 31 34 33 30 28 27 27 25 25 23 23 27 27 25 22 23 23 24 25 23
17 20 26 29 29 28 28 30 32 34 30 31 29 24 14 12 17 21 20 21 24 28 32 32 29 26 26 27 27 26 24 22 21 22 22 21 20 20 24 23 21 21 21
23 28 29 27 25 26 31 37 35 26 21 22 22 10 11 11 19 16 22 27 30 31 29 27 26 26 24 25 25 25 24 24 27 24 22 19 18 19 22 20 20 19 18
28 27 23 22 26 31 36 34 26 20 18 21 12 6 10 14 16 23 27 29 28 28 29 28 27 26 27 25 28 23 22 22 24 26 28 25 22 20 18 18 18 19 21
22 20 20 26 29 34 32 25 18 12 10 8 6 7 10 18 21 24 26 25 26 27 28 27 27 27 27 24 21 18 17 20 20 22 25 25 25 22 20 21 21 23 23
16 20 24 29 33 31 24 12 9 6 8 5 5 10 17 19 23 24 26 26 26 27 26 24 23 22 21 20 20 23 23 20 16 17 18 19 20 21 20 20 19 20 20
20 26 29 33 31 24 15 12 11 10 10 7 13 14 19 22 22 22 24 28 29 24 20 20 19 18 16 18 21 22 21 21 21 22 22 22 22 16 16 14 17 16 19
27 28 30 27 23 21 15 13 12 10 7 12 12 18 21 20 21 22 25 27 25 22 19 18 15 15 19 20 22 21 21 19 16 14 15 14 17 22 24 26 26 27 28
26 27 24 22 24 17 12 11 10 11 9 11 16 18 18 18 20 22 25 23 21 21 20 19 17 19 21 17 16 15 16 19 18 14 13 12 9 9 11 15 18 20 20
26 22 21 21 21 15 13 10 8 9 13 15 16 15 15 16 18 22 22 21 18 19 19 19 19 20 17 16 16 14 14 14 12 10 11 10 8 7 7 9 11 13 15
23 20 21 21 20 16 15 14 13 12 13 14 13 12 13 15 17 21 21 22 22 19 20 20 18 18 16 14 11 11 12 12 11 10 10 10 10 9 8 7 9 12 13
16 18 20 21 18 16 13 11 11 12 13 12 11 12 13 15 18 20 22 22 24 21 20 18 17 16 14 13 10 11 13 11 11 10 10 10 8 6 3 3 1 1 4
18 20 21 18 17 13 10 10 12 14 14 11 11 12 13 14 17 19 17 21 22 22 19 16 15 14 15 13 12 12 13 14 11 11 11 9 8 6 5 5 3 2 2
23 21 19 17 14 14 12 11 14 16 11 11 12 12 12 14 17 18 18 19 20 19 18 16 15 16 16 16 16 14 13 13 11 11 10 8 7 8 7 6 6 5 4
22 17 15 17 15 16 12 13 15 10 9 11 12 12 12 14 15 16 17 18 17 17 17 16 15 15 16 15 15 15 16 14 10 8 9 9 7 6 7 7 4 3 3
21 17 16 14 15 16 14 14 13 13 15 11 11 12 11 13 14 14 16 17 15 16 16 16 15 15 15 15 15 15 15 14 10 7 8 8 8 7 7 7 6 5 3
20 18 16 16 14 16 16 16 13 14 14 13 15 11 11 12 13 13 14 16 15 15 15 14 14 14 14 14 13 13 14 14 14 9 8 8 8 8 7 7 6 7 7
20 20 17 15 14 17 19 20 16 14 14 14 11 12 14 13 12 12 14 14 14 13 13 13 12 13 13 13 13 13 13 13 12 11 10 9 9 8 8 8 9 10 10
20 19 17 15 17 18 18 17 15 15 16 15 13 11 14 13 12 13 13 13 13 12 12 12 12 12 12 12 12 12 13 13 13 12 11 11 10 8 8 9 9 10 12
19 21 16 14 13 12 11 13 15 17 17 16 16 13 14 15 15 14 13 12 12 11 11 11 11 12 12 12 12 12 13 13 12 12 11 10 11 10 9 8 9 9 11
19 19 18 16 14 13 13 13 15 15 16 16 17 16 16 16 16 15 14 13 12 12 11 10 10 12 12 11 12 12 12 12 12 12 11 11 10 10 10 10 11 10 10
18 20 19 19 18 18 18 18 16 17 19 18 18 17 20 18 17 16 15 14 13 12 12 11 10 11 11 12 12 12 12 12 11 11 12 11 11 10 9 9 10 10 9
20 20 21 21 21 20 21 21 22 21 19 21 21 20 17 21 19 18 17 15 14 12 11 11 11 11 11 12 12 11 11 11 11 11 10 10 11 10 10 9 9 9 9
23 23 23 25 25 25 25 25 24 24 21 20 21 21 20 19 18 16 14 15 13 13 12 11 11 12 12 12 11 10 10 10 10 10 9 10 10 10 10 9 9 10 10

GFSGL_850_spd_030.txt.gz
Wind_Speed
10 15 18 18 17 16 21 21 21 24 27 27 24 26 27 29 27 18 13 17 18 19 19 21 21 25 30 33 34 33 30 27 34 39 37 34 31 25 25 26 27 26 25
14 15 13 14 19 23 21 23 26 29 33 30 25 26 27 23 21 14 14 18 19 20 22 25 29 33 36 34 30 29 28 25 27 32 34 33 29 21 22 25 28 25 23
12 13 17 21 22 22 24 27 30 34 33 27 21 22 23 23 17 15 13 20 19 22 28 31 35 34 32 30 29 30 29 28 24 26 31 30 28 24 26 24 23 24 23
14 19 23 22 21 23 28 32 35 33 27 21 17 17 19 17 12 12 15 18 25 29 32 33 32 31 30 30 29 30 29 27 28 27 28 27 23 22 21 20 21 21 22
21 23 19 18 21 27 32 36 33 27 23 17 15 17 11 6 10 11 17 25 29 32 32 32 30 30 27 26 27 28 29 30 26 25 27 26 26 25 19 20 20 20 20
21 17 17 19 25 30 33 31 27 21 13 9 7 6 5 8 11 18 23 28 28 29 30 31 30 28 26 24 26 25 22 24 24 24 26 27 26 24 22 22 21 19 20
18 18 18 24 28 30 28 26 19 15 9 10 7 7 8 11 17 23 25 25 25 27 29 26 23 21 20 20 18 18 20 21 22 22 23 22 21 21 22 24 22 21 23
16 16 23 26 29 27 23 22 18 17 15 13 8 10 13 17 23 24 24 24 25 25 23 21 21 19 16 17 25 24 22 22 21 20 22 23 24 21 20 22 21 21 22
18 22 25 27 27 25 24 19 16 16 17 12 11 15 16 21 23 21 21 23 24 23 20 19 18 18 17 21 23 23 20 18 16 16 18 18 19 20 22 19 16 19 20
20 24 26 25 24 24 21 16 15 14 13 12 15 15 20 21 20 20 21 23 24 23 21 20 18 18 19 20 20 22 20 21 22 21 16 14 15 18 18 22 24 24 20
23 26 25 22 22 23 19 15 14 14 13 12 15 19 20 18 17 18 20 20 21 24 22 22 21 18 19 19 18 17 19 21 19 17 14 12 12 11 10 11 14 21 26
25 26 21 20 21 21 19 17 15 14 14 15 17 17 15 14 16 18 19 18 20 22 22 21 20 19 19 17 15 15 17 17 15 13 13 13 12 12 11 10 10 12 12
26 23 17 21 22 20 19 17 15 14 14 16 16 15 13 13 15 17 19 17 20 21 21 20 18 18 17 15 13 13 15 16 13 13 14 14 14 12 11 10 10 11 13
21 20 18 22 22 19 17 14 13 14 15 15 14 13 12 13 14 16 18 19 20 20 20 20 18 16 16 15 15 13 14 15 13 14 14 13 11 8 8 9 6 3 3
18 19 22 22 21 18 16 15 16 16 17 16 13 12 13 13 14 16 15 18 19 20 19 18 17 16 16 16 15 15 15 13 11 12 13 12 11 11 10 10 8 6 3
20 20 22 20 17 17 17 17 14 16 18 14 14 13 13 14 13 13 15 17 18 18 17 17 17 17 17 17 18 17 17 15 11 11 12 13 12 12 11 9 7 8 9
19 21 22 20 19 19 18 18 16 15 15 14 15 13 14 12 12 13 14 15 17 16 15 14 16 16 16 16 16 17 17 18 14 10 11 12 11 10 10 10 8 6 5
19 21 22 21 19 18 19 19 18 17 16 15 13 14 12 11 12 12 13 14 15 15 14 14 13 14 15 15 15 16 16 15 15 11 10 11 10 10 10 9 9 9 8
19 23 22 22 20 19 19 20 19 19 17 17 16 15 13 13 14 13 13 13 14 14 14 13 13 12 13 13 14 14 16 16 15 14 12 12 11 10 9 9 9 10 10
21 22 22 21 21 19 18 18 22 22 22 19 17 14 14 14 14 12 14 14 14 14 13 13 12 12 12 12 12 13 13 14 14 14 12 12 12 11 10 10 10 11 11
23 25 22 22 22 18 18 19 18 17 18 19 19 19 15 17 15 14 15 15 14 13 13 13 12 11 12 12 12 12 13 13 14 14 14 12 12 11 10 10 10 9 11
25 26 22 20 21 19 17 15 15 17 18 19 19 18 17 19 16 16 16 16 15 14 13 13 13 12 12 11 12 12 12 12 12 13 13 12 12 11 11 9 9 8 10
25 23 21 20 20 21 20 19 18 17 18 18 18 19 19 21 20 19 17 16 17 16 15 14 13 12 13 12 12 12 12 11 12 11 11 11 11 10 10 10 10 9 9
25 24 22 21 21 21 22 23 23 23 23 22 20 20 21 21 22 21 20 18 18 17 16 14 13 12 12 12 12 12 11 11 11 11 11 10 10 10 9 9 9 9 9
22 26 24 22 23 26 26 25 24 24 24 24 26 23 22 23 22 20 18 16 17 18 16 14 13 13 12 12 12 11 11 10 10 10 10 9 9 9 9 9 9 9 9
23 23 24 23 22 22 24 26 28 29 30 29 26 25 21 20 22 21 19 18 15 16 16 16 14 13 13 12 12 11 11 10 9 9 9 9 9 9 8 8 8 9 9

GFSGL_850_spd_033.txt.gz
Wind_Speed
7 9 11 12 13 17 22 21 23 26 29 32 31 27 21 20 26 16 23 14 16 17 18 22 21 24 25 23 23 23 22 23 29 34 29 27 28 27 26 24 22 23 22
8 9 10 14 19 23 21 21 24 29 32 31 27 24 18 19 22 23 19 17 17 17 20 23 27 26 27 23 23 23 23 23 27 33 32 28 25 25 24 23 21 22 22
9 11 15 20 21 18 18 22 29 33 30 27 23 17 15 17 17 13 15 13 15 17 22 28 30 26 25 24 24 25 24 22 22 26 31 27 26 23 20 20 22 23 23
10 16 19 17 15 16 22 28 31 29 25 22 16 13 14 11 6 8 11 13 18 24 28 30 30 26 23 24 24 22 22 22 22 24 27 26 22 20 19 19 19 18 19
15 18 16 15 15 21 27 29 27 23 20 18 13 9 7 6 7 10 15 19 25 27 27 28 29 29 26 22 19 20 21 23 22 22 23 23 21 19 18 17 18 16 16
16 16 16 15 18 25 27 25 23 20 16 13 11 9 6 8 11 16 20 25 25 25 27 28 26 22 18 20 17 15 16 19 21 22 23 23 23 22 19 17 17 17 17
15 14 12 17 23 25 24 23 23 19 16 15 14 9 10 12 16 20 25 23 23 24 25 25 21 17 17 16 16 21 22 21 23 25 24 24 23 19 18 18 17 17 20
12 11 17 21 23 23 23 22 21 18 16 15 16 11 13 16 19 24 23 22 22 23 23 21 18 17 16 17 22 21 18 18 18 19 20 23 21 21 20 20 20 21 17
12 15 19 21 23 23 22 20 18 15 15 14 12 13 16 17 23 23 21 21 22 22 21 17 16 17 17 18 20 20 20 18 17 20 20 20 19 20 20 19 18 17 15
14 17 20 22 23 22 21 20 16 14 15 15 15 16 16 21 21 20 20 21 21 20 19 17 18 18 16 18 18 18 18 19 21 19 16 15 13 13 13 15 16 18 19
17 19 22 23 21 22 22 21 17 15 14 14 14 16 20 20 19 18 18 19 17 18 19 20 19 19 17 17 15 13 17 21 20 16 14 13 12 12 12 12 11 14 16
19 22 22 21 18 20 24 21 19 16 15 15 16 18 19 17 17 17 18 18 18 18 19 21 20 18 18 18 17 16 17 18 16 14 13 13 13 13 12 12 12 13 14
21 22 22 20 19 20 22 20 18 15 15 16 18 18 16 15 16 16 17 17 17 18 19 20 20 18 17 17 16 16 15 16 14 13 14 13 13 12 10 11 9 10 10
22 21 20 21 21 21 21 19 17 15 16 17 17 16 14 15 15 16 17 17 17 18 18 18 18 17 16 15 15 14 14 14 13 12 13 13 12 12 12 13 11 5 3
22 19 18 19 21 22 18 17 17 18 17 16 15 15 14 15 15 15 16 16 17 19 18 17 16 16 16 15 15 15 16 14 11 11 12 13 13 12 12 12 11 11 8
20 17 17 18 20 21 19 20 18 17 16 19 17 15 15 15 15 15 16 15 15 17 17 16 15 15 16 16 16 16 16 17 15 12 12 13 13 13 12 11 10 9 9
17 17 17 18 20 20 21 21 19 18 17 17 16 15 16 16 16 16 15 15 15 16 16 15 15 14 14 15 15 15 16 16 16 14 13 13 12 12 11 11 10 9 9
17 17 17 20 22 22 20 21 22 22 20 18 15 17 16 16 16 16 17 16 16 16 15 14 14 13 13 13 14 14 14 15 15 15 14 13 12 12 11 11 10 10 9
19 20 19 20 22 21 21 22 22 22 23 23 19 17 15 15 15 16 18 18 17 16 16 14 14 13 13 13 13 13 14 14 15 15 15 14 13 12 10 9 9 9 10
22 19 20 23 25 22 22 22 21 19 20 23 22 19 17 17 17 17 18 19 18 17 16 15 13 13 12 12 12 12 13 13 14 14 13 13 13 12 11 10 10 9 9
23 22 21 23 25 22 22 22 21 20 20 18 18 18 19 19 23 20 18 19 19 18 16 15 14 13 12 12 12 12 11 12 12 13 13 13 12 11 11 10 10 9 10
26 26 25 24 24 21 21 23 23 21 20 19 18 16 16 21 22 23 20 19 18 19 18 17 15 13 13 12 11 11 11 11 11 11 12 12 12 11 10 10 9 9 9
27 27 26 25 22 22 22 22 24 25 24 23 22 21 19 21 23 23 23 22 20 20 19 18 16 15 13 12 12 11 11 11 10 10 10 10 10 10 10 9 9 8 8
26 25 25 24 24 24 23 24 27 25 24 26 25 26 25 25 23 24 24 22 22 20 20 19 17 15 14 13 12 11 11 10 10 9 9 9 9 9 8 8 8 8 8
24 22 21 22 25 25 23 23 23 23 25 29 30 30 29 27 27 24 23 22 20 19 19 19 18 16 14 13 12 12 11 10 10 9 9 8 8 8 8 7 7 7 7
22 20 21 22 21 22 23 23 24 24 25 25 25 25 25 25 26 25 21 21 21 20 17 17 17 16 15 14 13 12 12 11 10 9 9 8 8 8 7 7 7 6 6

GFSGL_850_spd_036.txt.gz
Wind_Speed
6 8 10 9 12 13 10 10 12 18 21 23 22 21 20 18 15 19 22 15 14 14 14 15 17 19 22 24 25 27 29 30 35 40 33 31 29 29 28 26 25 25 26
8 7 5 11 11 8 10 13 17 20 22 20 18 17 15 13 13 15 14 10 11 13 15 16 19 22 24 25 26 27 29 30 31 35 32 29 27 27 27 26 24 23 24
7 5 6 7 8 9 12 16 19 20 19 16 15 14 12 11 11 10 8 9 10 12 15 18 21 22 24 23 25 27 26 26 25 27 32 27 26 26 25 24 23 21 22
7 6 8 11 14 13 15 19 19 19 17 14 13 11 10 8 6 6 6 10 13 15 17 18 19 19 21 22 23 22 22 23 24 26 28 27 24 22 22 23 22 20 19
9 9 10 13 14 13 17 19 18 18 14 12 11 9 9 6 4 7 10 13 16 17 16 17 18 20 26 20 18 18 19 20 21 22 24 24 24 23 22 22 22 21 20
9 11 11 13 14 15 19 19 16 14 14 13 12 11 9 6 12 14 16 18 15 15 16 17 17 18 16 22 19 20 17 22 24 24 26 26 26 25 23 22 20 19 20
14 13 13 13 16 15 16 15 15 15 14 13 11 11 10 9 14 17 20 21 15 14 16 17 17 16 20 19 19 20 22 22 23 23 24 23 23 23 21 21 21 21 20
13 11 11 13 13 14 14 14 15 14 13 13 13 11 10 11 17 19 23 17 14 14 15 15 16 17 18 21 20 21 20 19 19 19 20 23 23 24 23 21 21 22 21
9 9 10 12 14 14 14 14 14 14 13 14 12 11 11 11 17 21 21 16 14 15 15 15 16 16 18 19 19 20 19 17 17 19 22 21 19 18 18 18 19 19 19
11 11 12 13 14 14 14 15 15 14 14 14 12 12 13 15 19 20 18 14 14 14 14 15 17 21 22 17 17 18 18 18 20 21 18 16 15 16 18 16 15 16 16
14 14 14 14 15 14 14 15 16 14 13 13 13 12 14 16 15 19 17 16 13 14 14 15 15 21 21 18 18 14 18 21 18 18 16 14 13 13 14 14 15 16 14
14 15 15 14 14 14 14 16 15 14 13 12 13 15 13 16 15 15 15 15 16 15 14 14 17 20 19 17 15 18 18 16 15 15 14 14 14 14 14 13 15 16 16
16 17 14 13 13 13 16 16 15 13 13 12 12 14 13 14 12 16 15 14 16 15 14 17 18 18 17 15 16 15 15 13 12 12 13 14 15 15 14 17 13 9 10
17 15 12 13 13 16 16 15 13 13 12 12 13 14 14 14 12 12 12 12 13 13 14 18 16 16 16 16 12 12 12 14 13 12 13 14 14 14 14 15 14 12 7
15 14 13 12 15 16 15 15 14 13 14 13 14 15 16 14 13 15 14 12 11 13 18 15 12 12 11 10 10 10 10 13 12 11 12 13 13 13 13 14 13 12 12
16 15 12 14 15 16 15 15 17 19 18 17 15 15 16 16 16 17 16 16 16 16 16 11 12 11 11 10 10 10 10 12 14 12 11 12 13 13 14 12 12 12 12
17 18 19 19 19 18 18 18 17 16 19 19 17 15 15 16 16 17 16 16 16 16 13 12 12 11 11 10 9 9 10 12 14 13 12 11 12 12 12 12 11 10 11
17 18 17 16 18 18 18 20 21 17 17 18 19 18 16 15 17 17 16 16 16 15 15 11 12 12 11 10 9 10 10 12 12 13 12 12 11 11 11 11 11 11 10
18 15 16 20 21 23 24 22 22 22 19 18 16 18 18 17 17 16 15 19 17 15 14 13 13 12 11 10 10 11 12 11 11 12 12 12 11 10 10 10 10 10 10
18 19 21 19 19 22 23 22 20 22 19 16 16 17 14 18 20 18 17 18 19 18 16 14 13 12 11 11 10 10 10 9 10 10 11 11 10 9 10 9 9 9 9
19 19 21 23 20 21 21 21 20 22 22 18 18 18 17 16 18 18 19 21 22 18 18 17 15 14 12 11 11 10 10 9 10 10 10 9 10 9 8 8 8 8 9
25 26 26 26 27 25 23 20 21 23 23 22 20 19 19 19 19 19 20 22 23 21 19 18 18 15 13 12 11 11 10 10 10 10 10 10 9 7 8 7 8 8 7
29 28 28 27 26 25 26 24 23 22 23 24 22 22 22 23 23 23 22 21 21 23 23 22 20 20 18 17 15 13 11 10 10 10 9 9 8 7 7 6 7 7 7
28 28 25 24 24 22 23 24 24 22 23 23 24 26 28 27 27 28 28 26 21 24 23 25 23 22 20 19 17 14 13 12 11 10 9 8 7 7 6 6 5 7 6
29 23 21 23 23 23 23 23 23 23 22 21 22 23 24 25 25 26 28 30 28 24 25 25 23 21 21 20 18 15 14 12 12 10 10 9 7 7 6 6 5 5 6
21 19 21 23 23 22 22 21 22 23 23 23 24 25 25 25 24 22 23 25 27 26 22 24 22 19 19 19 18 17 15 13 12 11 10 9 8 7 7 6 6 4 5

GFSGL_850_spd_039.txt.gz
Wind_Speed
9 4 8 8 7 5 5 7 8 11 14 16 17 17 17 17 17 19 16 17 16 14 13 13 15 16 18 21 24 26 28 30 34 37 36 34 31 29 28 28 29 29 31
6 9 6 9 7 7 8 9 10 13 15 16 16 16 16 16 14 13 14 16 13 12 12 13 17 19 21 22 24 25 28 29 32 35 35 32 28 27 29 30 29 26 27
5 5 10 9 8 9 10 10 12 14 15 15 15 15 16 15 13 12 11 8 10 12 15 16 19 19 20 21 22 24 25 26 27 28 31 30 29 27 27 27 27 26 24
6 11 10 10 10 10 10 11 13 15 15 14 14 15 14 12 12 9 9 10 13 15 16 17 17 17 18 19 23 20 21 23 24 25 27 27 25 26 26 27 27 23 25
10 11 9 10 10 10 11 12 14 15 15 14 15 16 13 13 12 11 10 12 14 17 16 15 16 19 26 23 20 21 20 21 21 23 26 28 27 27 25 28 28 27 23
10 9 10 9 10 10 11 14 14 15 15 16 16 16 15 13 18 17 15 17 16 15 15 15 16 17 16 21 20 26 23 21 25 27 26 27 27 25 25 24 25 25 26
9 9 8 10 10 11 13 13 14 15 16 16 19 18 14 14 21 19 18 18 16 13 14 15 16 15 18 18 19 22 22 22 23 25 26 25 25 25 26 26 26 25 24
8 8 9 10 11 13 14 14 14 15 16 15 17 18 15 15 20 20 21 20 13 13 14 15 15 15 17 24 26 20 19 19 19 19 21 24 26 27 25 23 25 25 25
7 7 9 11 13 14 15 16 16 16 16 15 15 17 16 13 20 21 21 19 12 13 13 14 15 16 18 23 23 19 19 19 17 21 23 25 22 19 17 22 23 21 23
8 10 10 12 13 15 16 16 16 16 16 15 14 16 15 14 20 22 20 17 13 12 12 13 16 22 25 24 22 18 19 18 22 22 19 19 17 17 18 18 20 22 21
11 10 11 13 14 14 15 14 15 17 17 19 20 20 16 16 15 22 22 17 12 13 13 12 11 22 22 20 19 17 17 24 19 17 19 16 15 15 15 16 17 19 21
9 11 13 14 14 14 15 14 15 18 18 15 18 19 17 17 18 21 19 15 16 17 13 12 15 19 19 17 16 16 18 16 16 16 16 15 16 17 18 17 21 19 18
13 15 14 14 14 15 16 16 18 17 16 13 14 15 16 14 14 18 18 17 17 15 12 13 17 18 16 15 14 16 16 14 15 14 15 15 16 17 17 18 19 17 17
14 14 14 14 15 15 16 16 18 18 16 15 16 18 17 15 15 14 17 17 17 17 12 14 20 14 16 16 15 12 13 13 14 14 15 15 16 16 15 16 17 18 18
13 14 15 14 14 16 17 17 18 18 19 18 18 16 17 18 16 17 17 16 17 16 19 19 11 12 12 11 11 11 12 12 12 13 13 14 15 15 15 15 15 15 16
14 13 12 15 15 16 18 21 20 22 22 23 22 22 22 22 19 21 21 20 19 19 17 12 11 13 12 11 11 11 11 12 13 12 13 13 13 14 15 15 13 13 14
15 15 16 19 17 17 19 18 22 21 23 22 22 22 20 20 17 18 18 19 18 17 18 12 13 13 12 11 11 11 11 12 14 12 12 12 13 13 13 13 14 13 13
18 18 18 15 18 20 21 21 22 23 25 23 23 22 22 21 19 18 17 17 18 19 17 15 14 13 13 11 11 11 11 10 10 11 10 12 12 13 12 12 12 14 13
20 18 19 22 25 25 24 24 27 26 25 25 23 21 20 20 19 18 18 20 18 20 19 18 16 15 14 13 13 14 13 10 11 10 9 10 11 10 11 11 10 11 12
22 24 26 28 29 27 25 27 25 23 24 24 25 21 18 18 20 20 19 19 19 20 22 21 19 17 17 16 15 14 12 11 10 10 10 9 9 9 10 11 11 10 10
27 29 27 30 29 27 30 29 30 24 22 24 25 24 22 22 22 19 20 21 23 23 22 21 21 21 19 18 15 14 13 11 11 10 9 8 9 7 9 9 10 10 9
31 30 29 30 30 28 30 31 31 30 26 26 26 25 23 23 24 22 21 20 20 23 25 25 22 21 21 19 15 15 14 12 12 10 9 9 7 6 8 7 9 9 10
29 31 31 29 27 29 26 27 26 28 27 25 24 24 24 25 23 24 25 24 22 21 22 24 26 24 22 22 22 19 16 13 12 12 10 9 7 6 7 6 7 8 8
29 28 27 27 28 25 25 27 27 26 26 24 22 23 23 23 24 25 26 27 29 29 27 24 25 26 24 22 23 22 19 16 15 13 10 9 8 6 6 6 4 8 7
31 33 23 24 25 23 25 27 26 25 23 22 22 22 22 23 24 25 24 25 26 27 29 28 27 26 23 23 24 23 19 16 13 13 12 10 9 8 7 6 5 4 7
27 27 29 23 20 23 23 22 20 19 19 20 22 23 23 23 23 23 24 23 23 23 25 28 27 24 21 21 20 22 22 19 16 14 13 12 10 8 6 6 6 4 5

GFSGL_850_spd_042.txt.gz
Wind_Speed
21 20 15 17 17 9 9 11 11 11 12 14 15 16 15 15 19 23 19 15 17 16 17 17 15 15 17 16 17 20 22 23 28 32 31 31 32 35 36 30 30 33 32
20 18 14 17 9 9 10 12 11 12 12 15 16 14 15 17 22 19 15 17 16 12 10 13 16 16 19 21 23 25 27 29 31 33 32 31 28 31 30 28 28 28 29
20 15 11 10 13 10 11 12 14 13 16 17 15 14 15 17 20 14 12 12 9 9 13 16 17 20 22 21 23 26 30 24 22 27 33 33 30 27 28 28 30 27 26
15 12 10 10 13 10 13 14 15 17 17 15 14 14 17 20 15 13 10 8 10 13 15 17 19 18 20 23 29 28 24 24 26 26 28 30 29 30 28 28 28 29 30
14 13 11 12 11 14 14 16 16 16 16 15 14 17 20 20 16 17 18 19 20 19 14 15 15 18 23 22 23 25 26 28 30 26 28 31 30 30 28 28 31 28 29
15 13 11 10 15 12 14 14 15 14 14 15 17 19 21 22 21 23 22 22 21 20 13 15 18 16 17 20 19 21 25 28 28 26 27 29 29 30 24 29 31 32 32
14 10 11 14 11 11 11 12 14 15 17 18 19 20 25 20 24 24 21 20 22 18 13 15 17 14 20 21 25 27 29 21 18 22 26 25 28 29 32 33 30 28 29
7 9 9 10 10 8 11 15 16 17 19 18 17 19 22 22 21 23 20 20 21 18 12 17 16 16 23 26 26 29 26 20 16 18 22 25 27 31 24 22 25 27 28
6 7 7 8 10 13 14 16 19 19 19 19 17 18 19 20 21 23 18 20 23 17 16 13 15 19 23 25 27 28 24 21 12 19 25 21 19 18 19 23 25 26 27
4 7 17 16 13 13 15 18 20 19 19 18 21 22 23 23 23 19 21 24 22 20 13 13 16 18 22 25 27 24 23 20 23 22 17 18 16 17 17 17 19 23 25
4 12 11 12 14 16 19 20 19 17 16 21 24 27 21 21 22 23 23 25 23 20 17 16 10 21 23 23 21 20 18 21 18 20 20 18 18 18 19 16 14 20 26
8 11 17 16 17 16 18 19 17 17 19 19 21 23 21 19 18 20 21 19 19 18 18 18 15 18 19 16 16 15 16 16 18 23 16 19 20 19 20 18 18 19 20
12 18 19 16 15 15 18 19 18 20 25 24 23 23 23 22 18 19 21 18 19 19 17 16 14 16 16 14 14 14 16 18 18 22 19 20 18 19 20 18 18 17 16
17 17 14 14 16 18 19 16 18 20 23 23 23 23 25 23 20 22 22 22 19 18 17 16 19 21 11 13 14 14 16 16 17 18 22 18 17 18 19 17 18 19 18
14 14 15 17 16 16 15 17 21 25 25 24 26 25 26 25 20 21 21 20 14 13 21 24 24 14 13 15 12 13 15 15 17 18 19 19 19 19 16 15 17 17 16
15 16 16 17 18 20 21 23 22 22 23 22 25 26 25 26 26 27 26 24 24 24 25 24 21 13 14 17 15 11 15 15 17 20 14 16 17 20 16 15 17 16 16
18 18 19 20 21 21 21 21 25 27 25 23 25 27 25 23 22 21 21 21 20 21 24 22 17 12 16 17 14 12 15 17 19 14 17 12 16 15 16 15 13 16 17
24 24 24 24 22 20 21 26 27 26 27 30 26 26 24 23 25 21 19 19 21 21 22 22 18 16 16 16 15 13 17 20 17 14 16 10 13 14 13 17 14 14 15
28 28 27 28 27 28 32 35 35 30 29 29 28 25 25 25 21 19 18 22 23 23 22 23 21 17 17 18 18 18 20 20 15 12 11 12 12 12 10 13 15 14 11
27 28 30 31 33 34 33 34 35 29 29 32 29 27 25 26 23 20 20 21 22 22 20 21 23 24 22 20 20 21 21 17 12 12 13 15 11 12 7 11 11 16 13
29 31 33 35 33 31 33 30 31 32 29 33 36 29 24 25 27 24 24 24 24 22 22 21 23 22 20 21 24 23 21 18 15 16 14 12 10 10 6 9 9 12 12
34 36 38 36 32 30 32 30 30 30 26 28 31 26 22 24 27 26 23 23 22 24 22 24 25 25 23 22 22 22 20 18 16 15 14 12 10 8 6 8 6 11 10
32 33 36 35 36 32 26 27 25 25 26 28 27 26 23 22 23 24 23 23 24 23 21 22 24 26 25 24 24 23 22 20 18 16 15 12 10 9 8 8 6 7 12
37 37 38 37 31 33 26 24 21 23 26 26 25 24 24 19 19 19 20 20 21 22 23 24 24 25 27 27 25 24 23 22 21 19 16 13 11 10 8 8 6 6 9
36 35 33 35 30 28 18 16 16 19 19 16 16 16 16 18 19 19 21 21 22 22 22 22 22 22 23 26 25 23 22 21 20 18 14 11 11 10 9 9 8 5 5
25 25 24 27 25 13 11 17 20 18 18 19 20 20 21 21 21 18 19 19 19 19 18 18 20 19 20 23 22 20 20 21 19 17 16 13 12 10 9 8 7 6 4

GFSGL_850_spd_045.txt.gz
Wind_Speed
28 29 27 25 22 17 20 18 12 18 22 17 17 19 17 17 20 21 23 18 16 17 15 14 10 11 14 16 18 21 24 24 29 36 37 37 36 35 36 36 31 27 27
30 28 23 18 14 17 15 12 14 20 19 18 19 19 16 18 21 21 22 14 12 10 9 10 13 16 19 23 26 29 27 27 31 36 34 35 35 33 28 26 26 26 26
29 25 19 14 15 13 14 15 15 18 20 21 20 18 17 18 21 21 19 13 14 13 12 14 17 19 22 24 23 25 28 28 24 26 33 33 28 24 25 25 25 25 24
24 20 15 10 11 16 15 13 18 20 21 21 20 17 15 21 23 23 19 16 17 16 17 21 18 19 20 22 26 25 25 27 26 30 34 31 26 24 26 28 27 27 31
22 15 7 12 13 15 11 18 22 22 21 21 17 16 17 21 23 23 21 20 22 25 23 21 16 19 22 25 21 24 26 27 30 32 31 27 26 27 24 24 34 36 36
16 8 14 13 14 14 16 16 17 19 21 19 19 21 23 25 25 24 23 22 23 23 22 21 16 20 21 21 22 23 25 28 31 25 23 25 28 26 27 31 33 30 32
15 18 13 16 15 7 14 14 17 19 21 23 24 24 23 23 23 23 23 21 22 21 21 20 18 21 23 23 24 25 24 25 22 19 20 24 25 26 30 30 24 25 29
21 15 8 6 1 7 8 14 16 18 21 24 26 27 24 24 25 22 23 23 24 20 21 23 20 23 23 24 25 24 25 23 20 15 18 25 28 25 20 21 24 26 24
11 7 3 3 4 9 12 16 22 23 22 23 24 24 24 26 26 26 24 26 20 20 20 20 19 19 22 24 24 26 25 21 17 16 15 14 13 13 14 18 20 23 28
8 7 3 4 6 12 14 21 22 23 25 22 24 22 25 28 28 24 25 23 21 21 24 22 20 20 21 21 23 25 23 19 17 16 17 15 12 14 14 16 18 20 22
7 0 11 8 8 16 23 24 21 19 20 18 21 24 25 28 26 21 20 21 20 21 22 18 18 21 21 20 23 20 16 16 16 17 21 18 17 16 15 15 14 16 21
13 19 10 11 19 22 18 16 19 23 22 21 25 28 30 26 24 21 19 20 20 22 20 19 18 17 17 17 16 13 12 14 18 18 22 21 21 18 17 17 16 15 15
14 8 14 20 17 14 15 19 22 23 22 24 26 28 27 26 24 22 22 22 19 21 22 19 19 16 13 17 13 12 12 15 18 18 21 22 21 17 19 17 14 13 12
11 16 18 16 15 17 20 20 18 19 23 26 26 29 31 28 24 22 23 23 22 23 21 22 19 19 20 19 14 15 14 15 17 18 21 24 19 18 18 13 15 17 18
17 16 15 17 18 19 19 20 21 23 25 29 30 29 27 28 27 24 24 25 25 24 23 20 20 25 26 19 15 16 16 15 17 19 21 22 18 18 16 12 14 15 17
18 19 20 20 21 22 23 25 21 19 21 21 22 23 26 26 25 28 23 24 24 25 26 28 29 27 25 19 15 18 16 14 18 20 22 18 17 16 15 14 14 14 16
22 22 23 26 27 27 25 26 29 30 29 30 26 24 24 25 23 26 23 23 23 22 27 27 26 23 20 16 16 17 16 15 19 21 23 17 15 13 13 13 16 14 12
24 28 31 34 31 30 31 32 33 31 33 34 31 25 23 22 21 20 23 22 25 25 27 27 26 20 17 16 16 17 16 19 20 22 21 14 11 14 12 11 13 15 14
24 26 28 31 33 35 36 36 36 36 37 33 32 29 26 22 23 20 22 22 26 27 27 27 25 22 19 19 16 18 19 19 19 22 15 12 12 15 12 9 10 12 14
27 29 30 33 36 37 37 37 34 30 31 32 31 32 29 29 28 26 22 27 25 24 24 23 23 22 21 19 18 20 22 21 21 22 15 14 15 14 10 8 7 11 14
32 33 32 33 35 35 35 34 35 29 30 28 26 26 24 30 29 24 23 23 26 25 25 24 22 21 21 20 20 21 23 23 22 23 17 14 15 11 10 8 7 9 12
29 32 35 38 39 39 37 37 37 37 27 24 23 23 22 23 22 21 22 23 26 25 21 21 23 24 22 22 22 22 22 21 21 20 16 14 13 10 10 8 7 10 10
31 31 32 34 34 32 34 34 32 24 21 18 18 20 20 22 21 22 22 19 20 19 18 20 21 21 21 22 23 23 22 22 19 17 16 15 11 10 11 9 8 9 8
24 25 27 29 30 31 33 35 35 25 8 10 13 12 10 11 14 18 19 17 15 16 17 17 18 19 19 19 21 24 22 20 19 18 17 15 13 12 12 10 6 8 9
26 25 23 26 28 27 21 20 18 11 9 12 14 15 17 20 24 23 16 10 13 17 16 17 18 19 18 18 19 20 20 20 19 17 16 15 13 12 11 10 9 8 8
23 23 25 25 25 22 18 17 16 15 15 14 13 12 13 14 15 17 20 21 21 15 12 14 14 15 15 15 14 14 18 19 17 17 16 14 14 12 11 11 10 8 6

GFSGL_850_spd_048.txt.gz
Wind_Speed
32 30 27 26 25 23 21 18 15 15 17 21 16 21 22 23 23 22 22 22 26 20 16 12 11 13 16 20 21 22 23 26 28 34 35 35 32 33 32 28 25 24 23
32 31 32 30 26 21 17 16 19 20 18 12 20 19 22 23 21 21 21 23 27 20 18 17 16 17 20 23 24 26 24 24 28 32 32 31 33 32 25 23 22 21 22
31 34 34 28 22 18 19 15 21 19 8 17 19 20 23 21 20 20 24 26 26 22 21 20 18 22 26 23 22 23 25 26 25 29 33 33 33 27 24 22 21 21 22
36 34 29 24 20 16 16 15 13 6 14 17 17 20 20 19 20 23 24 26 24 22 23 22 24 24 24 22 22 25 24 25 27 30 33 34 29 26 22 24 26 29 33
33 28 22 18 18 18 16 15 10 9 11 14 18 22 22 21 22 24 25 24 21 22 25 26 23 23 23 23 24 22 23 26 29 30 33 30 28 27 25 26 30 33 25
27 23 19 17 21 17 14 13 9 8 12 18 21 22 24 24 25 23 23 24 23 22 23 23 23 23 24 23 23 23 23 26 29 31 29 27 27 27 29 30 30 26 30
22 16 17 22 20 16 11 7 5 12 19 17 22 23 23 25 25 23 23 25 25 24 24 25 23 24 22 22 23 22 23 25 26 27 26 23 27 28 26 22 23 24 25
20 22 21 17 13 10 5 7 21 14 13 22 23 22 24 24 25 23 23 25 26 23 27 26 20 21 23 23 22 23 24 24 24 21 19 20 20 20 19 20 23 23 27
23 21 18 15 6 10 23 19 9 16 21 23 23 26 24 25 23 23 25 27 24 24 24 21 20 23 21 20 22 24 24 23 20 17 14 16 16 15 16 18 21 24 29
19 14 6 10 24 17 9 12 18 21 22 18 18 20 21 22 24 25 25 24 24 21 20 20 19 19 18 20 22 23 24 19 16 15 12 14 14 17 15 14 16 20 21
9 3 18 19 7 7 13 18 21 20 18 19 22 21 22 24 25 26 26 24 23 21 20 20 18 19 19 19 20 20 21 18 15 16 16 17 18 21 17 15 15 16 19
18 15 12 8 8 15 20 19 16 18 20 22 25 25 25 26 26 27 27 23 22 23 24 22 19 21 19 17 14 18 17 17 16 16 19 19 21 24 20 19 16 14 14
8 7 7 11 16 18 18 18 19 21 23 26 24 27 28 25 27 28 24 23 22 24 22 19 20 21 19 15 16 18 17 17 16 17 19 20 22 23 19 17 12 13 14
9 12 16 17 17 17 18 20 22 23 25 26 27 28 30 30 29 27 24 23 23 25 25 22 21 22 23 21 20 20 18 16 17 17 19 21 24 22 17 14 17 17 17
15 16 17 18 20 21 22 24 25 26 26 27 25 24 26 28 27 24 25 25 28 24 23 24 25 24 24 26 24 21 20 15 17 18 18 20 23 21 17 13 15 15 14
18 19 21 23 24 26 29 31 29 29 28 28 26 25 26 28 25 24 24 25 26 23 23 26 26 24 24 26 24 23 19 16 17 18 17 20 23 20 16 13 13 14 14
20 23 24 27 29 31 32 34 36 36 34 35 33 36 31 26 26 24 24 22 23 24 26 27 26 24 24 22 21 19 18 14 15 17 17 19 21 15 13 13 13 13 14
20 21 24 26 28 30 31 33 34 36 39 38 33 34 34 25 24 22 23 22 22 26 28 30 30 25 23 21 19 17 17 16 17 15 16 19 18 14 12 13 12 13 14
28 30 33 34 35 37 38 40 41 41 38 38 38 32 27 25 23 22 24 25 26 28 30 28 28 27 21 19 19 18 18 19 18 18 17 19 16 13 11 12 10 10 12
32 32 32 33 35 37 37 39 39 35 35 35 33 33 24 21 23 23 25 21 25 26 27 30 25 23 21 18 18 19 18 18 18 20 18 19 18 13 11 11 10 10 11
31 32 31 31 31 32 33 33 34 33 34 33 35 29 17 17 21 21 21 17 18 23 24 25 23 23 22 20 18 19 19 19 18 18 18 18 16 11 11 12 10 9 11
27 26 27 26 27 28 27 29 34 36 38 35 34 31 15 15 17 17 19 20 20 20 19 19 24 18 19 20 20 20 21 21 19 18 18 17 14 11 10 10 9 9 9
24 25 24 24 26 27 28 26 30 31 22 19 20 7 11 11 11 10 12 14 18 19 19 16 19 15 18 19 18 19 21 21 20 17 16 15 13 11 11 10 10 9 7
23 23 24 25 25 25 23 24 22 25 24 21 18 14 10 12 15 17 20 18 12 12 13 15 15 16 16 16 18 18 18 18 20 17 17 16 14 12 12 11 9 8 7
22 22 23 24 24 23 22 22 22 22 23 22 22 18 15 14 12 13 16 17 19 25 18 15 16 15 16 18 19 18 17 16 16 18 17 15 14 13 13 11 10 10 8
22 22 22 22 22 22 21 22 23 23 24 24 23 20 18 18 16 16 15 15 16 16 18 22 16 15 13 15 15 16 16 14 13 18 16 15 14 14 13 12 12 10 9

GFSGL_850_spd_051.txt.gz
Wind_Speed
27 28 29 29 30 28 27 30 32 31 18 23 22 12 12 12 17 19 18 19 20 21 23 23 18 16 16 17 20 23 24 24 26 31 32 30 31 31 31 29 27 26 25
29 29 30 33 32 32 31 31 29 15 26 15 10 9 12 14 17 17 17 19 21 22 24 22 20 20 20 19 24 25 23 21 25 32 31 31 31 31 30 28 25 24 23
29 31 34 34 31 32 30 26 21 21 18 17 8 12 13 14 16 17 18 20 21 22 23 21 21 21 23 24 23 23 23 24 25 27 32 32 32 31 30 28 25 24 24
32 32 35 34 32 28 21 23 18 17 7 6 11 10 12 18 17 20 19 20 20 21 22 21 23 25 26 21 23 22 23 23 24 25 29 32 32 30 29 28 31 31 30
33 33 32 28 24 22 21 17 16 13 10 6 8 15 20 22 21 20 19 19 20 20 20 20 23 26 23 21 22 22 22 23 23 25 28 31 31 29 28 29 31 29 25
31 28 27 24 20 17 18 18 17 9 8 11 23 22 19 20 19 20 20 21 18 20 22 23 23 24 23 21 23 22 22 22 23 26 28 29 28 27 28 27 26 27 30
24 25 22 18 19 20 18 14 10 8 21 18 17 18 18 21 20 20 21 19 19 22 26 24 24 25 25 19 21 23 23 22 23 26 28 25 25 23 25 27 25 24 28
24 24 23 23 21 14 8 4 18 17 11 12 15 18 23 22 22 22 20 19 22 25 25 24 24 25 20 21 23 23 22 22 23 24 22 21 20 22 21 23 26 29 31
24 23 20 16 10 4 13 20 25 10 11 15 20 22 22 21 19 18 19 21 23 26 23 24 23 22 20 21 21 21 22 22 22 19 17 17 17 17 19 23 25 26 31
20 16 11 2 10 18 27 11 9 13 19 23 25 21 21 22 20 20 21 23 26 27 23 23 22 22 19 19 20 21 23 20 19 16 15 14 15 17 19 19 21 24 27
8 5 10 19 18 13 9 11 16 22 24 23 24 23 23 24 24 23 23 26 27 28 25 24 23 22 22 20 19 21 19 18 17 17 16 15 15 17 20 19 19 20 22
11 15 14 10 9 11 15 19 20 21 22 24 25 27 27 27 26 26 26 26 28 26 26 24 22 20 25 22 20 18 15 18 18 18 17 16 16 18 21 22 21 17 17
6 6 8 11 14 16 18 20 21 22 25 27 27 30 31 29 28 27 27 27 25 26 26 25 25 23 23 23 21 19 17 18 18 19 18 16 16 19 22 23 20 18 18
8 11 13 15 16 17 19 21 24 25 28 30 32 33 32 31 28 26 26 26 24 25 28 28 25 26 26 25 24 24 22 20 20 20 18 17 17 18 23 22 22 20 21
10 12 14 17 19 22 24 26 28 30 30 33 35 35 35 35 32 28 27 27 26 25 26 27 30 24 28 28 26 24 24 24 21 20 18 16 16 19 22 19 19 18 18
15 18 21 24 26 27 31 36 35 35 36 36 36 34 36 39 40 39 38 27 27 23 23 27 28 27 27 27 26 23 22 22 21 18 17 15 16 18 20 17 17 16 17
19 22 25 27 30 33 35 36 42 47 43 43 43 44 42 40 35 35 35 27 25 24 25 28 28 30 27 26 23 22 21 19 16 17 15 13 15 17 17 16 15 15 15
22 24 27 30 31 32 33 34 35 36 40 45 44 37 35 33 33 31 25 25 26 25 28 29 28 29 28 27 24 21 19 17 18 18 15 13 14 16 15 15 14 14 15
27 28 29 30 30 31 32 33 32 33 34 36 38 36 31 32 32 33 22 21 25 28 31 31 28 27 29 25 22 19 18 18 18 18 17 15 14 15 15 15 13 12 13
26 27 29 29 29 30 29 29 29 27 32 35 38 38 36 31 30 23 18 19 20 20 21 25 25 24 25 25 20 18 18 19 20 19 17 16 16 15 14 14 11 12 11
26 26 26 26 25 26 26 26 26 25 31 34 30 24 30 33 27 22 16 15 18 17 18 20 22 23 23 22 21 20 19 18 19 18 16 14 17 16 13 13 10 10 10
23 23 23 24 24 25 25 23 23 26 29 29 31 29 22 12 7 2 9 13 14 15 18 24 19 19 18 17 17 18 19 19 19 19 18 15 16 16 13 11 9 9 9
21 22 22 23 23 23 24 23 24 25 27 27 27 28 27 24 20 16 10 10 11 13 13 13 12 14 13 14 16 16 18 19 19 19 19 18 16 16 13 11 9 9 7
22 22 23 23 23 23 23 24 25 25 26 27 26 25 25 24 23 21 19 16 16 16 18 18 15 15 13 14 13 14 15 16 17 17 18 19 18 16 14 12 10 9 7
21 22 22 23 23 24 23 23 24 25 26 26 26 24 24 24 23 22 20 18 18 17 15 16 19 18 18 17 15 17 19 18 16 15 17 19 18 17 15 13 11 10 8
22 21 22 22 22 22 23 24 24 25 25 26 25 25 24 23 24 24 22 19 18 17 17 16 15 17 20 20 17 14 15 16 16 15 14 20 18 17 15 13 12 10 9

GFSGL_850_spd_054.txt.gz
Wind_Speed
32 26 24 25 27 30 31 31 30 30 32 31 22 22 22 14 13 9 13 17 16 15 16 15 18 16 16 16 17 18 21 23 25 29 28 28 27 27 28 28 26 26 25
26 24 24 27 31 33 36 31 30 30 30 26 25 21 16 6 7 12 18 15 15 16 15 18 18 17 17 17 20 23 22 22 23 28 30 29 29 28 28 29 25 24 24
22 25 27 30 33 33 30 28 26 26 24 16 15 15 10 8 10 16 15 14 14 16 18 18 18 18 20 21 24 23 21 21 23 27 29 30 30 29 30 28 27 26 25
24 26 29 31 29 28 26 23 22 23 18 15 13 9 4 13 14 14 14 15 18 18 18 19 19 19 20 23 25 22 21 22 22 24 27 29 29 29 28 29 29 27 26
23 26 27 25 22 26 21 21 22 17 11 12 7 12 15 14 18 14 18 20 18 19 18 19 20 22 21 24 25 23 22 24 22 24 26 28 29 29 27 27 28 29 28
20 20 19 21 23 20 21 19 16 10 12 11 15 15 22 14 16 19 21 22 20 20 19 20 22 24 23 24 24 27 21 23 23 24 25 28 29 27 25 25 26 26 23
14 15 17 19 19 18 16 13 14 17 12 16 23 22 13 15 18 23 23 24 24 22 20 21 24 24 22 25 26 22 23 24 24 23 26 26 27 22 23 24 24 25 26
13 15 16 17 17 15 15 8 7 16 17 29 14 12 16 19 23 24 23 24 24 22 21 22 25 24 24 25 22 22 24 23 22 24 26 25 22 20 20 22 26 28 29
13 15 15 16 15 9 5 9 19 26 18 11 14 18 22 25 22 22 22 22 24 24 23 24 25 26 24 23 23 22 22 22 21 23 24 21 19 18 18 22 24 26 30
18 18 15 8 2 11 21 20 14 12 14 18 22 24 25 26 25 25 23 25 26 27 27 27 27 26 24 23 25 24 24 22 21 21 20 18 17 18 18 18 22 23 25
11 4 7 13 15 14 10 10 14 18 21 23 25 25 26 26 27 27 27 28 29 30 29 29 28 23 24 24 26 26 25 20 20 19 18 18 17 17 17 17 18 20 22
7 6 6 6 7 10 13 16 18 20 22 24 27 29 28 27 27 29 28 28 29 29 31 30 28 22 22 25 24 26 24 21 20 19 20 20 18 16 16 17 19 18 18
1 2 4 7 9 11 13 16 19 21 24 27 29 33 36 36 33 30 29 30 30 30 30 30 27 24 25 26 27 27 24 24 23 22 22 21 18 17 17 18 18 18 18
4 6 9 11 14 16 19 22 25 27 30 32 35 37 39 41 40 37 32 28 28 29 31 29 27 26 27 29 28 27 28 25 26 25 24 22 19 18 17 18 20 18 19
8 11 13 16 20 23 25 27 30 31 31 34 35 37 38 42 43 39 37 35 34 35 34 27 25 27 29 30 29 26 29 25 26 27 26 23 20 18 16 17 18 17 18
12 16 19 23 25 28 31 33 31 32 32 32 31 30 35 33 34 36 35 34 39 33 35 28 25 26 27 27 28 26 24 26 25 25 26 24 20 17 15 16 15 16 17
17 20 23 25 27 29 31 33 38 37 33 32 31 34 33 33 32 31 32 33 30 29 31 29 26 26 27 27 25 28 25 23 22 21 23 20 17 15 14 14 13 14 14
19 21 23 25 26 28 28 30 31 33 36 38 35 36 36 35 33 30 30 28 31 29 27 23 23 26 27 27 24 29 25 22 21 21 20 19 17 15 13 13 12 13 13
21 22 23 24 24 26 26 27 26 26 26 31 37 37 37 39 35 28 25 25 25 19 15 18 24 27 28 23 23 22 23 20 20 20 20 20 18 16 13 12 11 12 12
19 21 22 23 24 24 24 25 26 25 28 31 32 33 36 38 38 32 19 19 15 12 14 18 20 19 21 24 21 22 21 18 19 20 20 19 19 18 14 12 11 10 9
20 20 22 22 22 23 23 24 24 25 27 29 30 30 30 31 30 29 27 17 12 8 12 16 17 16 18 19 20 21 19 19 20 19 20 20 18 18 14 13 11 10 8
19 20 21 22 22 23 23 23 24 25 26 28 30 29 29 28 28 27 26 25 23 18 11 10 10 12 15 15 16 17 16 17 20 20 19 18 18 17 16 15 12 9 7
20 21 21 21 22 22 22 23 24 25 26 27 28 29 28 28 28 27 27 25 24 22 19 14 14 14 14 15 12 13 13 15 17 20 19 19 19 18 17 16 12 10 7
20 21 21 21 21 22 22 23 23 24 25 27 27 28 27 27 28 28 27 26 24 22 20 17 16 16 18 17 15 12 10 11 13 16 18 20 21 20 18 16 13 10 8
20 20 20 21 22 23 23 23 23 24 25 26 27 27 27 27 27 28 28 26 25 24 20 17 17 17 18 18 18 17 15 13 14 14 16 18 20 21 19 16 13 11 9
20 20 20 21 21 22 23 24 24 25 26 26 27 27 27 28 28 28 28 27 26 23 22 19 16 17 18 18 17 19 18 16 13 15 15 15 20 22 20 17 14 12 10

GFSGL_850_spd_057.txt.gz
Wind_Speed
35 33 32 32 28 29 28 29 27 25 21 34 30 27 23 20 17 14 10 12 10 15 14 15 16 16 15 14 16 18 18 17 23 24 20 18 23 22 22 25 27 27 27
27 28 26 24 24 24 26 28 31 32 29 28 28 28 24 19 18 15 12 12 14 14 15 16 16 16 17 17 19 19 20 19 21 24 21 20 19 21 25 27 26 26 26
16 19 20 19 21 25 30 31 29 30 22 26 26 22 20 12 15 11 13 15 15 16 15 16 18 19 19 19 19 21 19 23 23 21 23 21 20 19 20 22 23 24 22
16 19 19 20 23 23 21 15 15 19 21 24 22 16 14 9 13 13 14 15 16 16 16 19 20 21 21 20 21 22 23 24 20 21 22 21 20 18 21 21 20 19 21
15 15 14 12 12 14 15 14 14 17 19 16 15 12 10 17 19 17 16 18 18 20 21 21 22 22 21 22 23 22 24 22 21 22 22 21 20 19 20 20 20 21 20
5 5 5 6 8 8 11 14 16 18 15 12 7 13 18 23 20 13 17 22 23 24 24 24 23 22 23 24 25 26 27 24 24 22 22 22 21 20 20 18 18 19 22
3 2 2 5 9 13 14 15 16 11 9 6 14 19 22 18 13 15 20 25 27 27 27 26 25 25 23 25 26 27 27 28 25 23 24 22 21 19 19 18 17 19 21
6 7 9 11 11 13 13 10 7 5 10 18 24 19 13 14 17 21 24 25 27 28 28 27 26 27 26 25 26 28 27 25 24 24 25 23 21 24 21 17 18 20 21
11 11 13 14 14 10 8 4 12 17 21 15 12 13 18 22 23 25 24 27 28 28 28 27 28 29 29 25 27 29 27 26 23 22 23 24 24 22 20 16 17 19 22
16 15 14 10 4 7 12 12 11 8 10 14 18 21 22 24 24 24 24 27 31 33 33 33 32 30 32 28 28 29 29 27 24 22 22 23 21 20 19 18 17 18 19
10 6 2 6 7 6 5 6 9 13 16 18 21 22 24 25 27 27 26 28 31 33 35 35 34 31 30 30 27 29 29 24 27 24 22 19 18 17 15 15 16 16 18
3 4 3 2 3 5 8 11 13 16 20 23 26 29 30 31 31 31 31 31 31 32 35 36 35 33 29 30 28 29 26 25 25 26 23 20 18 16 15 16 17 20 19
1 0 1 3 5 8 11 14 17 20 24 27 29 33 33 33 31 33 32 31 32 32 33 35 32 33 31 31 31 28 26 25 30 28 26 22 19 16 17 19 20 21 22
1 1 3 6 9 12 15 18 20 21 23 25 25 26 29 32 30 28 29 31 32 32 34 37 32 34 36 32 30 29 28 31 28 33 26 21 20 21 20 19 21 19 17
2 5 8 11 14 16 18 19 20 20 21 22 21 20 26 31 30 33 33 34 33 33 33 33 34 35 34 32 28 28 29 26 27 28 30 25 24 23 22 20 20 18 15
7 9 12 15 17 19 20 21 21 21 22 21 20 21 23 27 32 35 37 34 32 30 30 31 30 30 32 28 25 24 25 24 24 23 29 26 25 24 20 18 19 17 14
10 12 15 16 18 19 21 23 25 23 22 21 22 24 26 29 29 31 36 33 28 27 25 27 29 28 28 26 24 21 21 22 22 22 23 25 23 23 20 19 16 14 13
12 13 14 16 17 19 20 22 22 24 23 24 26 27 28 28 29 29 31 31 20 18 22 23 22 24 22 17 20 22 23 22 20 23 23 23 21 19 19 19 15 13 11
12 13 14 15 17 18 19 20 21 23 25 27 29 29 31 31 30 29 27 27 27 24 17 11 10 12 13 16 18 19 18 20 19 19 22 22 20 20 20 17 15 14 13
12 13 14 16 17 18 19 20 21 22 24 26 28 30 32 33 33 32 30 28 26 25 25 21 14 11 11 14 16 16 16 17 18 19 21 21 19 20 21 19 17 13 11
12 14 15 16 17 18 19 20 21 22 24 25 26 26 27 29 29 29 28 28 27 25 25 22 21 16 11 13 11 14 15 17 19 18 21 19 20 20 20 20 18 15 12
13 15 16 17 17 18 19 19 21 22 23 24 25 25 25 25 26 27 27 27 26 24 23 23 21 21 16 11 11 12 11 13 15 16 20 21 19 21 20 20 18 15 13
14 15 15 16 17 18 18 19 20 21 22 22 24 25 25 26 26 27 27 27 27 25 23 22 21 19 18 15 13 13 13 12 13 14 16 21 20 21 21 20 19 16 14
15 15 16 16 17 17 18 18 19 19 21 22 23 24 25 26 26 27 27 27 27 26 24 22 20 20 18 17 14 15 15 15 13 10 12 17 23 22 22 20 19 17 14
15 15 16 17 17 17 18 18 18 19 21 22 23 24 25 26 27 28 28 28 28 27 25 23 21 20 18 17 16 15 16 18 15 12 10 13 18 24 25 24 20 18 15
16 16 16 17 17 17 18 19 19 20 21 23 24 25 26 27 28 29 29 29 29 28 26 24 22 20 18 17 17 18 17 19 19 15 14 14 16 21 23 25 21 18 15

GFSGL_850_spd_060.txt.gz
Wind_Speed
20 21 26 26 26 27 29 27 24 27 32 27 24 25 28 34 29 24 21 14 15 15 14 15 15 14 14 14 14 15 17 18 22 24 21 21 21 21 22 21 22 23 22
15 17 19 18 19 22 21 18 21 30 30 26 25 19 32 32 27 26 12 14 15 14 16 15 17 16 17 16 17 18 19 19 21 25 25 23 22 22 23 23 22 21 22
13 15 14 15 16 18 21 24 26 28 26 28 20 27 29 22 18 11 12 14 15 16 16 18 18 18 19 19 20 20 20 21 22 25 28 24 23 22 22 23 22 22 20
10 10 12 13 13 13 14 16 16 10 14 20 25 19 18 15 12 13 16 14 17 17 18 19 20 21 22 22 22 22 22 23 24 26 26 26 24 22 21 23 22 21 21
7 8 7 7 5 7 8 9 12 12 11 15 15 16 11 9 13 19 18 20 17 19 20 21 23 24 26 27 25 23 22 24 25 25 26 25 24 23 22 22 23 21 20
7 5 5 4 5 5 6 9 9 11 13 16 13 6 11 15 18 19 19 18 20 20 23 24 25 28 31 30 30 30 28 26 26 25 26 26 24 23 21 22 22 21 21
9 10 8 8 8 9 10 10 11 11 8 4 9 14 15 20 19 12 13 19 20 22 26 27 28 28 30 29 28 29 30 30 33 30 29 27 25 23 22 22 21 20 21
12 12 11 11 11 11 10 8 3 2 7 11 14 18 14 10 13 15 19 24 25 25 26 27 29 30 29 30 27 27 27 27 28 29 24 24 23 21 21 20 20 20 20
15 15 13 10 6 5 3 1 5 8 10 10 7 7 9 12 19 21 23 26 25 27 28 29 30 31 31 32 35 33 31 29 29 30 29 28 28 29 28 22 19 19 20
15 13 12 9 5 1 4 4 2 2 3 6 10 13 17 19 21 22 23 26 28 28 29 30 32 35 36 35 38 39 36 33 26 24 22 22 24 22 22 21 18 19 19
14 12 7 3 1 1 1 1 3 5 9 12 15 17 19 19 21 25 25 27 26 30 30 33 34 33 35 37 34 39 40 33 26 25 23 21 18 18 18 18 16 17 19
9 5 4 3 2 1 1 4 6 6 10 12 15 16 14 15 18 21 24 25 26 28 32 34 34 35 34 34 35 35 36 36 30 29 27 22 21 19 18 18 18 18 19
8 5 4 2 0 2 4 7 7 9 11 11 12 13 13 15 16 18 21 26 29 31 33 35 37 34 36 36 32 34 34 37 32 30 28 26 24 20 17 17 18 19 20
6 5 3 1 3 6 7 7 7 10 11 12 12 12 14 15 16 20 26 27 30 33 32 32 33 33 37 36 29 27 31 33 33 32 27 26 23 20 18 18 17 17 16
5 3 1 3 4 5 7 8 8 11 13 13 12 14 17 17 18 27 28 29 31 35 34 30 28 28 28 27 25 24 25 29 25 26 25 28 24 23 20 17 16 16 16
3 2 3 4 6 5 5 5 13 11 12 14 14 16 18 20 24 26 29 30 29 31 27 23 27 28 28 24 25 23 24 23 20 21 23 25 23 25 21 18 15 17 15
2 2 4 5 5 6 7 6 6 10 15 15 16 18 19 22 24 26 28 29 25 24 19 19 21 22 25 24 20 18 23 16 18 20 20 25 22 22 22 18 16 16 14
2 4 4 4 5 6 7 8 8 9 9 11 15 19 21 22 23 23 25 25 23 20 19 21 24 24 20 16 10 11 10 13 17 20 20 23 22 20 20 17 16 15 13
3 4 5 6 7 9 9 9 9 9 10 12 13 13 20 23 23 20 20 18 20 20 20 21 22 22 22 17 10 11 13 14 15 17 18 18 20 21 18 16 15 14 13
4 5 6 7 9 9 10 10 10 10 11 12 13 15 20 24 18 18 17 17 18 19 20 20 21 21 20 20 17 11 9 12 12 14 16 17 20 19 17 17 17 15 12
5 7 7 8 9 10 11 12 12 12 13 13 13 15 21 22 16 17 18 17 18 19 20 21 22 22 21 20 19 14 11 9 13 15 15 17 20 19 17 17 16 17 13
6 8 9 9 10 12 12 13 13 13 14 15 16 16 21 17 16 17 17 18 19 19 20 20 22 21 21 21 20 18 13 10 9 10 14 15 19 19 17 17 17 17 13
8 9 10 11 11 13 13 13 13 14 15 16 17 17 18 18 19 18 19 20 20 22 22 22 23 23 21 20 20 18 18 14 13 13 12 12 16 20 19 19 18 18 15
9 10 10 12 12 12 13 13 13 15 16 17 17 17 18 19 19 20 21 21 23 24 24 24 25 23 22 21 20 19 18 17 18 16 14 14 14 18 20 20 19 17 15
11 11 11 12 12 13 13 13 14 15 16 16 17 18 19 19 20 21 21 24 25 24 26 26 24 23 23 21 20 18 18 19 19 19 17 16 14 16 21 23 22 19 17
11 12 12 12 12 13 14 14 15 16 17 18 19 19 20 21 21 23 24 24 24 27 26 25 24 23 23 22 19 18 18 19 19 17 19 17 16 15 18 23 25 23 18

GFSGL_850_spd_063.txt.gz
Wind_Speed
24 27 28 31 28 28 28 30 29 26 23 22 27 27 26 27 20 26 26 24 23 19 19 19 15 16 17 17 17 17 18 18 23 25 21 22 23 23 24 25 23 24 27
21 20 25 23 20 21 18 20 22 23 23 25 27 24 13 14 20 26 20 16 12 17 19 14 18 17 20 19 20 21 21 21 23 27 27 26 26 25 26 26 25 26 26
16 17 23 20 16 18 20 20 21 19 21 23 22 17 18 20 21 16 16 13 14 16 13 17 21 21 22 21 22 24 24 24 25 26 30 28 29 27 27 26 26 26 26
24 23 19 17 15 15 15 15 14 14 12 11 15 19 18 13 12 13 11 15 15 11 18 21 22 22 23 23 25 27 28 29 28 28 30 31 30 28 25 26 27 26 24
13 14 14 13 12 9 8 8 8 9 10 8 10 14 10 12 10 13 16 16 16 21 18 21 22 24 26 29 31 33 30 30 29 29 30 29 29 27 27 27 27 25 24
12 11 11 8 8 8 7 5 6 9 8 8 9 9 8 9 13 14 17 17 19 16 19 21 24 26 30 33 34 34 35 36 36 31 32 31 30 28 29 28 25 23 26
10 11 11 12 12 10 10 9 7 6 7 6 6 8 11 13 16 15 11 14 15 17 20 23 26 28 31 31 33 36 37 38 37 38 40 36 33 31 29 25 22 23 25
16 16 16 15 13 12 9 9 7 6 5 5 7 9 10 7 13 13 15 19 22 22 23 25 28 31 32 33 36 38 38 36 34 36 34 31 27 25 24 22 20 20 23
17 16 16 14 12 9 8 7 5 3 3 2 2 1 4 5 14 19 21 20 21 22 23 25 27 31 34 36 38 40 41 43 40 37 33 36 35 35 33 30 28 24 27
17 16 14 12 11 9 3 1 3 4 3 3 3 4 7 7 13 20 23 25 26 27 28 28 30 32 33 35 36 39 42 44 41 38 34 33 30 32 31 34 32 27 25
16 15 12 7 6 7 7 6 5 4 2 3 5 6 7 8 9 20 24 25 25 29 32 35 34 31 33 36 40 42 42 41 39 37 36 30 27 21 19 22 21 19 20
14 12 10 9 8 7 6 4 2 1 2 3 8 8 7 8 11 18 22 25 26 30 33 35 36 37 39 40 40 41 40 42 39 39 38 32 27 24 23 22 22 22 22
13 11 9 9 7 6 5 2 2 2 3 5 6 6 7 9 9 16 24 25 27 28 31 34 37 38 37 36 35 35 36 35 33 34 35 40 33 27 23 25 23 23 24
13 11 10 9 6 4 2 1 2 5 5 6 6 6 8 11 10 19 25 26 26 29 31 34 33 30 28 29 32 33 30 28 28 28 31 36 29 23 24 26 24 24 23
12 10 8 6 5 2 3 5 5 9 8 8 8 10 13 14 16 21 23 25 27 29 30 28 26 26 28 29 30 30 28 27 26 26 29 30 23 19 23 24 25 24 21
11 9 7 5 4 3 2 7 9 10 10 11 11 12 14 17 19 21 23 24 24 25 22 22 25 25 25 25 27 28 29 25 24 21 19 18 19 20 21 22 23 24 20
10 7 6 5 4 4 3 3 3 12 15 16 16 16 17 18 18 21 23 22 19 20 17 20 23 25 26 25 29 28 21 21 18 18 15 17 19 19 21 22 24 22 20
6 5 3 3 3 3 4 5 5 6 7 8 12 18 20 20 19 21 21 18 15 16 16 19 22 24 25 25 26 27 22 14 9 12 15 17 19 21 22 23 22 21 19
5 4 4 5 6 7 7 7 7 7 8 10 10 11 13 24 20 16 18 14 16 17 18 19 20 22 23 24 24 23 23 16 11 16 16 17 18 21 22 23 21 19 17
3 3 4 5 6 6 6 6 6 7 9 10 11 12 15 20 19 14 15 16 16 17 19 19 20 21 23 23 23 23 21 19 13 13 13 15 17 17 21 22 20 18 17
3 5 5 6 7 8 8 8 9 8 9 11 11 13 22 22 15 15 16 16 18 19 20 21 22 22 22 23 22 22 22 20 17 12 11 9 15 17 21 22 19 18 17
6 7 7 8 9 10 10 10 9 9 10 11 12 13 19 15 14 15 16 17 19 19 20 22 23 22 22 22 22 22 22 21 18 14 14 10 10 13 18 19 18 18 17
7 8 8 9 10 11 9 8 9 10 11 11 12 13 14 14 15 16 17 19 19 21 21 22 23 23 23 21 22 21 23 21 20 19 18 15 14 11 15 19 19 19 18
8 9 9 10 10 11 8 10 10 11 12 12 13 13 14 15 16 17 18 20 21 21 22 22 23 26 24 23 23 22 22 21 21 21 20 18 16 15 11 19 21 20 18
9 9 9 8 8 9 9 10 11 11 12 13 13 14 15 16 17 17 18 20 22 21 22 25 23 22 24 26 26 24 21 21 21 20 20 20 18 18 16 16 21 20 18
8 8 8 9 9 10 11 12 12 13 13 13 14 15 15 16 17 17 19 19 20 23 25 24 25 26 26 26 24 22 21 20 20 20 20 21 19 17 18 15 21 22 20

GFSGL_850_spd_069.txt.gz
Wind_Speed
42 44 46 45 42 38 37 33 24 31 36 37 32 30 23 20 22 22 20 22 20 20 22 22 21 19 20 20 22 21 21 25 31 33 32 30 30 31 27 31 34 34 34
41 39 41 42 43 31 36 30 32 31 26 22 21 22 21 22 20 21 20 19 19 20 19 17 16 17 20 20 17 18 22 27 32 37 36 35 34 29 32 34 35 38 36
20 30 33 31 25 28 33 39 29 26 22 21 18 17 18 18 20 18 16 18 18 16 14 16 16 18 19 16 20 23 27 30 32 35 40 39 36 33 34 34 32 35 33
28 37 31 26 21 17 24 19 17 17 17 16 17 18 18 16 15 16 16 16 14 13 13 15 17 16 17 20 23 26 26 30 32 37 40 42 39 38 37 33 35 38 33
23 28 27 21 16 15 14 16 15 15 16 17 18 16 14 14 16 15 13 12 12 13 15 16 14 16 16 17 22 26 29 33 37 40 43 44 46 46 43 39 33 28 28
23 23 20 18 14 11 12 13 14 15 15 14 14 13 13 13 12 12 10 11 12 15 14 9 9 13 17 20 24 28 29 29 29 29 32 35 41 42 41 43 39 38 34
14 14 14 13 13 11 12 14 14 12 13 13 12 12 12 11 11 10 11 12 10 8 9 12 15 19 23 26 29 31 33 35 36 37 39 40 39 37 38 40 41 39 40
12 12 12 13 13 14 14 15 15 13 13 14 14 12 11 11 10 9 8 8 10 11 14 17 20 23 25 30 34 37 38 40 42 43 44 46 43 40 35 36 37 38 41
17 17 16 17 19 19 17 16 17 17 17 14 12 10 13 11 11 10 11 12 13 15 17 20 21 23 24 27 31 35 38 38 37 37 38 39 40 41 42 35 34 35 38
22 22 20 20 18 17 16 16 16 14 11 13 15 13 11 11 11 14 15 15 17 18 17 18 19 22 24 25 28 31 36 35 35 36 34 34 33 33 32 30 34 35 37
21 21 21 19 17 15 15 13 14 17 17 16 15 13 13 13 14 16 18 19 18 18 18 20 21 23 24 25 25 25 27 32 34 33 34 34 34 32 27 26 27 32 31
24 22 21 18 16 17 17 18 16 17 18 18 18 16 14 15 17 17 18 19 18 19 21 22 23 23 24 24 25 26 27 28 30 32 33 32 34 32 30 25 28 26 29
24 22 21 19 19 18 19 21 21 19 18 16 14 14 15 16 16 16 17 18 20 20 22 22 22 22 22 24 25 27 27 26 26 28 33 30 31 33 31 28 25 29 30
23 24 25 24 22 21 21 21 21 19 17 16 16 16 17 17 18 19 19 20 20 20 21 21 20 21 22 24 26 27 27 26 26 28 30 32 30 28 31 26 24 31 32
25 24 24 24 24 23 21 18 16 15 14 13 13 14 15 17 19 18 19 20 20 21 22 20 20 22 25 26 27 27 28 28 28 28 27 33 24 23 31 28 22 31 20
24 23 22 20 19 16 15 14 12 11 10 10 12 14 15 17 18 17 19 18 18 19 18 18 19 21 24 27 29 30 30 29 29 29 27 26 28 20 28 14 15 23 14
22 21 20 17 15 13 10 9 9 7 8 8 9 9 11 13 15 13 15 16 15 16 16 17 20 22 25 27 28 30 31 29 29 28 27 24 27 19 20 15 8 10 15
16 14 14 14 13 12 10 8 8 9 10 11 11 12 15 16 16 17 19 19 17 17 17 18 20 22 26 27 27 29 30 29 29 28 27 24 22 23 15 15 14 14 14
11 11 5 3 4 6 6 9 10 11 11 12 13 13 16 16 17 20 23 22 19 19 20 21 21 24 25 25 28 29 29 28 28 28 26 24 23 22 17 10 14 15 15
4 7 11 8 6 6 9 10 12 12 11 12 13 14 16 19 23 24 18 15 16 19 21 22 25 26 24 27 29 29 29 28 28 27 26 24 23 21 21 15 7 12 17
10 11 8 6 8 9 10 12 13 14 13 13 14 16 18 20 21 20 15 17 20 22 24 26 27 26 27 27 25 26 28 28 25 25 25 25 23 22 20 19 12 9 11
4 3 5 7 9 11 12 12 13 13 14 14 15 16 18 20 20 19 19 21 23 23 25 25 26 27 25 22 25 26 24 24 25 26 26 25 23 21 20 19 12 9 11
4 6 8 10 12 12 12 13 14 14 15 15 16 18 17 17 19 20 21 23 24 25 25 27 27 24 20 23 21 23 24 26 26 25 24 24 23 22 21 19 14 10 7
8 8 9 10 11 11 12 11 13 15 13 15 17 18 19 20 21 22 24 24 25 27 27 26 22 22 23 22 23 23 24 23 22 23 24 27 27 23 20 18 15 13 9
8 9 10 10 11 12 12 14 15 16 17 19 19 20 21 22 24 23 23 26 27 26 24 20 22 22 22 23 22 22 22 23 22 22 23 24 24 20 19 18 15 13 10
9 10 10 12 12 13 15 17 18 18 20 20 19 21 23 23 23 26 26 24 24 23 23 23 21 21 21 21 21 22 23 25 25 23 23 24 24 21 19 18 15 14 12

GFSGL_850_spd_072.txt.gz
Wind_Speed
47 46 47 47 48 49 51 49 42 42 37 34 35 36 44 41 31 28 26 29 22 20 20 20 21 21 21 21 21 21 23 25 28 29 27 27 30 31 31 31 32 31 32
41 36 32 40 43 50 49 48 40 29 31 35 38 40 39 31 31 25 26 27 25 21 20 20 20 19 18 18 19 21 19 18 24 31 31 33 34 33 34 34 33 33 36
31 33 30 45 52 47 39 33 33 29 29 31 36 34 28 26 25 29 28 24 21 18 19 19 18 16 15 17 19 16 20 21 25 32 36 35 36 34 37 38 38 38 39
37 29 32 37 31 34 37 39 42 33 36 29 33 28 23 22 24 26 24 22 20 20 19 17 15 15 18 14 16 18 20 22 25 31 36 39 39 39 38 39 42 41 42
38 36 31 31 31 32 30 31 29 25 27 29 25 24 26 24 25 22 19 19 19 19 16 13 15 15 13 16 16 18 21 24 27 31 35 38 40 38 37 37 36 37 40
40 35 31 28 23 21 18 19 22 24 24 26 28 26 24 21 19 19 19 19 18 16 15 16 15 15 16 18 19 23 25 29 33 34 36 38 41 40 40 38 34 37 42
25 25 23 24 21 22 19 21 21 22 24 24 23 20 18 17 17 18 17 17 16 17 18 15 15 17 19 22 24 26 28 30 34 37 41 41 44 42 40 39 36 36 38
19 19 21 21 22 23 22 22 22 22 20 19 18 17 17 18 17 17 17 17 16 15 15 14 15 18 22 25 27 29 30 30 31 32 34 36 36 36 34 37 38 42 44
22 24 24 23 23 22 20 21 21 21 20 20 20 21 20 18 18 18 18 16 14 13 14 16 18 20 22 24 26 28 28 29 28 29 30 31 31 30 26 28 33 33 36
21 21 22 22 21 21 22 23 22 21 23 22 21 19 19 20 19 17 16 14 14 14 15 17 18 18 20 21 23 25 28 30 31 32 33 34 32 30 23 24 26 27 30
18 20 21 20 20 19 20 22 22 22 21 21 20 19 17 17 17 16 16 15 14 15 15 15 16 18 19 21 22 23 25 29 30 32 33 33 30 30 27 26 23 23 28
20 19 18 18 18 18 19 20 19 19 19 20 20 20 19 17 16 16 15 15 15 15 16 17 17 18 19 20 21 23 25 27 28 30 31 31 31 32 32 28 25 26 26
16 16 14 15 15 16 18 19 19 17 17 18 19 18 17 17 16 15 15 15 17 16 17 18 18 18 19 20 21 22 24 24 26 27 29 29 28 30 34 28 24 23 26
15 15 16 17 19 18 16 15 14 16 17 16 16 16 16 15 15 15 16 18 18 18 18 17 18 18 19 19 20 21 22 23 24 25 27 28 29 27 30 23 25 30 29
17 18 17 17 17 18 18 17 17 16 12 12 13 12 13 14 16 18 19 20 19 19 18 17 17 18 19 21 22 22 23 24 25 25 26 27 28 26 27 21 25 23 28
20 20 20 20 19 17 17 16 13 11 11 12 13 14 15 15 18 18 16 17 17 17 16 17 18 20 21 22 23 25 25 25 25 26 26 25 26 26 26 23 22 18 21
21 21 20 17 15 12 8 6 7 8 9 10 10 11 13 15 15 14 13 12 13 16 17 18 19 20 21 22 24 25 26 27 27 26 26 25 24 24 24 24 19 12 8
22 19 16 13 10 7 7 7 11 11 10 12 12 12 15 16 15 16 17 19 21 19 19 19 19 21 23 24 26 27 28 29 28 27 26 25 24 23 24 22 21 14 12
17 13 10 9 9 12 15 13 10 13 12 12 13 14 16 17 18 19 21 24 23 19 18 19 21 23 25 27 27 28 29 29 27 26 25 23 23 21 22 21 20 16 10
9 9 11 13 12 9 11 11 10 10 11 12 14 16 16 18 20 22 22 21 18 18 20 22 24 25 26 27 26 26 25 26 27 25 24 23 22 21 21 20 19 20 12
7 5 6 6 6 6 7 8 9 11 13 14 15 16 18 19 20 21 21 20 20 21 23 25 25 26 26 27 26 23 25 24 23 25 25 25 24 21 19 19 19 17 15
3 3 3 3 5 6 8 10 11 12 13 14 15 16 18 19 20 20 20 21 21 22 23 25 27 27 28 25 23 25 25 24 25 25 25 24 22 21 20 20 19 17 15
2 3 4 6 7 9 10 10 10 12 13 15 16 16 17 19 20 21 22 23 23 25 26 27 29 28 24 20 22 22 25 25 24 24 25 25 25 24 22 20 18 16 15
7 8 7 7 8 8 9 10 12 13 13 15 17 19 20 21 21 22 23 25 26 26 27 29 27 25 23 22 21 22 22 23 23 24 25 26 27 25 22 20 17 15 14
7 7 8 9 10 10 11 12 14 15 17 18 18 19 20 21 22 24 24 26 28 27 26 24 22 23 22 20 20 21 20 20 21 24 26 27 28 26 23 21 18 16 14
8 9 10 10 11 12 13 14 15 17 18 19 19 21 23 24 24 26 28 29 27 25 24 24 21 19 19 19 20 20 19 19 20 25 28 27 27 25 22 20 17 16 14

GFSGL_850_spd_075.txt.gz
Wind_Speed
47 45 44 42 42 42 42 44 43 44 47 42 38 39 36 34 42 38 38 41 31 30 27 26 25 20 22 24 23 22 24 24 26 28 28 24 23 25 26 27 29 30 31
44 40 34 20 32 36 46 45 39 44 41 31 36 42 41 44 44 38 37 34 32 33 29 28 23 23 24 23 21 21 21 22 24 24 23 25 26 27 30 30 30 32 34
45 43 42 43 42 43 46 45 39 39 35 37 43 40 42 39 38 45 42 35 30 28 27 24 21 23 21 20 21 21 21 21 22 25 28 28 30 31 33 35 38 39 38
47 45 45 42 45 45 44 41 41 30 36 40 45 39 38 40 37 34 34 29 31 28 23 22 22 21 19 20 21 22 23 26 25 27 28 30 33 33 35 38 42 43 43
40 41 42 41 44 41 38 36 38 43 41 39 40 36 34 31 36 28 26 29 29 27 23 22 20 22 22 21 23 24 23 25 26 27 29 33 35 37 39 41 43 47 48
35 37 38 36 36 34 32 31 33 38 42 39 35 34 29 24 22 26 30 27 22 21 22 22 22 20 22 23 24 20 21 25 28 31 33 35 37 40 40 39 39 40 46
34 35 36 40 32 27 23 21 20 27 27 26 24 22 24 26 26 23 22 21 21 22 21 20 20 21 21 20 20 22 25 28 29 32 34 33 36 34 34 35 33 35 38
30 34 36 33 23 18 18 19 20 20 21 22 24 25 22 20 19 19 19 20 20 19 19 19 18 18 19 21 23 26 27 27 27 28 29 30 30 30 30 31 33 36 39
21 20 19 18 19 20 23 22 22 22 23 22 20 20 18 17 18 19 19 18 17 17 17 16 16 19 22 23 25 25 25 25 26 27 27 28 28 26 23 25 28 30 37
15 15 15 17 21 22 21 20 20 19 20 20 19 17 18 19 20 18 16 15 16 17 17 18 19 21 21 22 23 24 25 26 26 26 26 26 26 25 22 21 24 28 29
18 18 17 18 18 18 19 19 20 23 22 20 20 20 20 18 18 17 17 16 16 16 18 19 19 19 21 22 23 23 23 25 24 26 26 26 25 24 23 22 23 25 28
15 15 15 15 15 16 17 19 20 20 21 20 20 21 20 20 18 18 17 16 16 17 18 18 19 19 19 21 21 21 22 23 23 25 26 26 26 27 27 25 26 27 23
14 14 14 15 15 14 16 21 21 20 18 19 20 19 19 18 17 17 16 16 16 16 17 18 18 18 19 18 19 21 22 22 24 25 26 26 27 28 29 29 27 26 26
17 17 15 14 15 16 18 17 16 16 16 17 17 18 17 17 16 15 14 14 16 18 18 18 19 19 18 19 20 21 21 22 23 25 26 27 28 28 29 29 29 30 29
14 15 13 12 14 16 16 15 16 16 13 13 15 14 14 15 15 15 16 17 18 18 19 17 17 17 18 19 20 21 22 22 23 24 25 27 28 29 29 28 26 28 28
15 17 16 18 18 18 19 19 17 13 13 12 11 13 14 15 15 16 17 16 16 12 13 14 16 17 18 19 21 22 22 23 24 25 26 26 28 28 29 28 26 25 26
19 22 22 22 22 20 18 15 13 8 5 7 9 10 10 10 12 13 13 12 12 15 16 17 17 18 19 20 21 23 24 25 25 26 26 26 26 27 27 27 27 24 24
21 23 22 20 18 15 11 8 8 10 11 10 11 14 16 13 14 15 15 16 16 17 17 17 18 19 21 22 23 25 26 25 24 24 25 25 25 25 27 25 25 24 23
19 16 11 10 9 8 8 9 9 10 12 12 12 11 11 13 14 15 17 19 19 19 18 18 19 21 22 23 24 25 25 24 23 24 24 22 22 23 25 24 23 22 21
8 6 4 4 3 4 5 6 6 6 7 7 8 9 11 13 16 18 19 20 19 19 19 20 21 22 23 25 26 26 26 24 23 23 23 23 23 23 23 23 22 22 21
6 5 3 2 1 1 2 4 5 6 8 9 10 11 13 15 16 17 18 19 20 20 21 22 23 24 26 27 27 26 25 23 22 22 23 24 23 23 22 22 22 21 21
6 5 4 2 3 4 5 6 7 8 8 9 11 12 14 15 16 17 18 19 20 21 22 24 26 27 28 28 27 26 25 25 22 23 23 23 24 24 24 22 22 20 18
6 5 5 5 6 7 8 8 9 9 9 10 11 13 15 17 18 19 20 21 23 24 25 27 28 29 28 26 23 24 25 24 23 23 23 23 24 26 26 25 23 20 18
7 7 7 7 7 7 8 9 10 11 12 14 15 16 18 18 20 21 22 23 24 26 27 27 26 26 26 25 23 21 22 22 23 22 22 24 26 27 27 26 24 20 19
9 9 9 9 9 9 10 11 12 14 15 16 17 18 19 20 22 23 24 25 27 28 26 25 24 25 25 23 21 20 21 22 22 21 21 24 29 30 28 25 23 20 18
10 10 10 9 10 10 11 12 13 14 15 17 18 20 21 22 23 24 27 29 28 27 26 24 22 21 20 19 18 19 21 21 21 19 21 25 29 28 25 23 21 19 17

GFSGL_850_spd_078.txt.gz
Wind_Speed
38 38 39 40 40 39 42 43 42 44 43 42 40 39 37 38 38 38 43 35 36 34 35 36 40 32 27 23 21 25 23 24 25 23 25 22 26 24 21 22 23 24 25
42 42 38 33 31 37 46 46 48 46 40 41 43 42 38 40 34 36 38 39 37 37 34 37 32 31 25 24 22 25 25 23 22 23 22 21 24 27 27 25 26 28 30
46 44 42 43 33 32 42 45 51 49 46 46 43 43 36 40 30 30 30 32 37 39 40 33 34 24 24 25 24 23 22 22 22 22 24 23 26 26 26 29 30 31 33
43 46 46 44 43 46 45 39 36 38 39 38 42 37 33 37 35 34 38 37 36 36 37 29 25 25 23 23 22 21 21 21 21 23 24 24 25 25 29 34 37 37 40
33 39 41 41 44 45 44 44 42 39 39 40 37 37 34 33 35 33 31 30 32 32 27 22 21 22 22 24 21 20 19 20 23 25 23 24 27 30 32 35 38 39 40
29 31 31 36 37 36 38 37 37 36 37 36 35 38 35 34 35 30 30 29 26 22 24 25 23 21 21 18 18 20 23 21 20 20 24 27 29 31 31 33 35 37 41
25 28 29 30 33 35 35 32 29 27 28 29 32 33 33 28 28 28 21 23 23 22 21 22 21 21 19 18 18 18 18 19 21 23 25 27 29 28 31 33 33 35 36
24 26 29 28 29 30 29 25 25 23 21 22 21 21 22 21 22 24 24 20 19 19 19 19 19 18 18 16 16 17 20 21 22 22 24 24 26 26 27 29 31 33 36
21 22 24 25 22 23 22 17 17 20 21 20 20 19 20 19 19 17 16 16 16 17 16 15 15 15 15 16 18 19 19 20 21 22 23 23 24 24 24 26 27 29 37
17 16 15 14 12 14 16 18 20 22 21 20 18 15 15 15 14 13 13 13 14 14 13 13 13 15 17 18 19 20 20 21 21 22 21 21 22 22 21 22 24 28 31
12 11 11 12 14 15 18 19 19 18 17 17 17 16 16 14 14 14 13 12 12 12 12 12 14 16 18 20 20 21 22 22 22 22 23 23 23 23 23 22 22 25 28
12 11 11 11 13 15 14 14 14 14 16 17 16 15 15 15 14 15 14 11 11 11 11 13 15 16 18 20 21 21 22 23 22 22 23 24 25 24 24 23 24 24 25
11 10 11 12 11 10 10 10 12 13 16 15 14 13 14 13 13 13 13 12 12 13 14 15 16 17 18 18 19 21 21 21 22 24 24 25 25 25 26 26 26 26 28
11 12 12 10 9 9 9 10 12 13 13 11 11 13 14 15 14 13 13 13 13 16 16 16 18 18 18 18 19 20 21 22 24 25 25 25 26 27 27 26 28 28 31
15 13 10 7 7 10 12 12 10 10 10 11 14 15 15 13 11 11 12 15 18 17 16 16 16 16 17 18 19 20 21 23 23 24 25 27 27 27 27 27 27 27 28
17 18 16 15 17 17 18 19 18 14 12 10 7 6 8 10 12 14 15 16 16 13 15 15 16 17 17 19 20 22 23 23 24 26 27 26 27 28 28 28 27 26 27
19 21 21 20 19 18 17 12 11 9 7 6 6 5 6 8 10 14 16 15 14 16 17 17 18 19 19 20 21 22 24 25 26 26 26 25 25 26 27 27 27 27 27
20 20 20 19 16 13 9 5 2 1 2 3 4 6 6 7 7 9 11 13 14 16 17 17 17 18 19 21 22 24 25 26 26 25 24 23 22 24 25 26 26 26 26
18 17 14 12 9 6 5 3 2 1 1 1 3 4 7 8 10 12 14 15 16 15 15 15 17 19 21 22 23 24 26 26 25 24 23 22 21 22 24 24 24 24 24
15 13 10 9 7 5 3 2 1 0 1 1 2 4 7 10 13 15 16 15 15 15 16 17 18 20 22 24 25 26 27 27 26 24 23 22 22 22 23 24 23 24 23
12 11 9 8 7 5 4 3 2 1 1 2 3 6 8 10 12 14 15 15 16 17 19 20 22 24 26 27 28 29 29 28 25 24 23 23 22 23 21 22 23 23 24
12 11 9 8 6 5 4 3 2 3 3 4 6 8 10 12 14 16 17 18 19 20 22 24 26 27 28 29 29 30 29 27 24 22 23 22 22 21 22 23 24 23 22
10 8 7 7 6 5 5 4 4 5 6 7 9 11 13 14 16 17 18 19 21 23 24 26 28 28 27 26 25 26 27 26 23 22 23 23 22 21 22 25 26 25 23
8 7 7 7 6 6 6 6 7 7 8 9 11 13 14 16 17 18 20 22 23 25 26 27 27 27 27 26 25 23 22 22 22 22 23 23 22 21 24 27 28 25 23
8 7 6 6 6 6 7 7 8 9 10 12 13 15 16 17 19 20 21 23 24 25 25 24 23 23 23 23 21 20 19 20 21 23 23 23 23 22 24 27 27 24 20
8 8 8 7 7 8 8 9 10 11 12 14 15 17 18 19 20 21 22 23 24 24 24 23 23 22 22 20 18 17 18 20 22 22 22 23 23 24 24 26 25 23 20

GFSGL_850_spd_084.txt.gz
Wind_Speed
30 29 30 32 35 38 39 39 41 40 38 36 37 37 39 39 36 34 34 34 33 32 34 33 39 45 44 42 43 34 34 37 29 35 33 30 26 25 28 24 23 24 17
30 30 31 31 33 39 45 47 48 49 46 46 46 42 39 38 37 34 32 34 37 38 37 42 41 35 34 41 38 40 41 37 37 37 38 30 27 28 27 25 24 16 18
31 32 32 32 35 39 42 44 45 45 45 38 35 38 43 42 40 39 40 42 43 37 39 41 35 32 32 35 33 35 36 34 35 37 31 28 31 27 24 24 25 22 18
31 32 34 35 36 37 35 33 35 33 32 32 33 35 38 39 40 41 42 41 38 39 40 35 33 32 36 32 33 33 33 32 30 26 29 29 26 23 23 22 17 16 17
30 32 35 34 34 34 33 33 35 33 29 28 26 26 26 28 31 32 34 35 36 35 34 32 32 36 30 29 30 27 28 28 28 30 25 23 21 19 18 12 16 17 19
36 36 32 33 35 34 32 30 27 26 27 28 30 30 31 31 33 30 31 33 31 32 34 33 33 30 28 26 24 23 25 24 24 22 21 20 17 16 16 15 16 17 17
33 32 31 30 31 34 32 26 25 25 24 26 25 29 30 29 28 24 25 30 32 32 31 30 29 27 24 21 22 21 20 19 18 17 16 16 16 16 15 16 16 16 17
30 29 28 28 27 25 27 27 29 33 32 30 27 26 28 27 25 26 27 28 29 28 26 23 21 19 18 17 16 15 14 15 15 16 16 17 19 21 21 19 19 20 21
29 27 26 26 25 27 29 28 27 26 26 25 26 25 24 24 24 23 22 22 21 20 18 16 15 14 14 13 12 12 13 14 13 13 17 21 22 22 22 22 21 16 20
28 27 28 27 25 24 24 24 24 23 23 23 22 21 19 19 18 16 13 12 14 15 15 14 13 11 10 10 9 9 10 13 14 16 17 19 20 22 21 21 19 19 17
32 29 27 26 23 20 19 20 20 21 20 19 18 17 16 14 12 11 10 10 11 12 11 10 8 7 3 4 7 9 11 14 15 16 17 18 18 18 18 18 21 21 21
25 26 25 23 22 22 21 20 19 18 17 18 18 18 17 16 15 15 14 12 11 8 8 8 7 5 5 7 10 11 12 15 17 18 18 18 20 21 22 25 26 25 23
25 24 25 24 22 20 19 17 15 16 17 20 20 20 19 17 15 14 12 9 8 6 5 5 7 9 10 13 15 16 17 16 17 17 17 16 15 17 21 23 21 22 24
27 26 25 24 23 20 18 17 17 18 19 20 20 19 19 17 13 11 8 5 2 3 6 7 10 10 10 12 12 12 14 15 17 15 13 14 16 17 18 18 20 21 22
25 23 22 22 21 22 22 19 17 17 15 17 17 15 14 13 9 6 4 1 3 6 8 7 5 5 6 7 9 11 9 10 11 12 14 16 17 17 18 19 20 21 22
21 23 22 22 22 22 21 25 20 19 17 13 12 9 11 10 8 4 2 6 8 7 4 2 4 6 6 8 9 10 11 12 12 14 15 17 18 18 20 20 20 21 22
22 22 21 21 22 22 22 22 26 24 20 18 14 11 7 4 1 2 4 5 5 6 4 5 6 7 8 9 11 12 13 14 16 16 18 18 19 20 21 21 21 21 22
22 22 24 24 23 23 22 22 20 17 17 15 10 7 5 3 2 2 3 7 6 8 6 7 7 9 10 11 12 13 15 16 17 18 19 19 20 20 21 21 20 20 22
25 25 24 25 24 22 20 18 17 14 13 11 8 5 3 3 3 4 4 5 6 6 7 7 9 9 11 12 14 16 17 18 19 19 19 20 20 20 21 20 20 21 22
27 26 24 22 19 18 16 14 14 13 12 9 7 6 5 3 6 8 8 7 7 7 7 8 9 11 12 13 14 15 16 17 18 18 19 19 19 18 19 19 19 20 20
21 18 16 15 15 15 14 13 11 10 9 6 3 2 1 4 5 6 6 7 7 7 8 8 9 11 12 13 14 15 16 16 17 17 17 17 17 18 18 18 19 19 19
17 17 15 15 14 13 13 11 11 10 9 7 4 2 2 4 5 5 5 7 8 8 9 11 12 12 14 15 15 15 15 16 16 16 16 17 16 17 17 18 18 18 18
16 14 13 13 13 12 11 10 9 8 7 5 4 4 4 4 4 4 7 9 10 12 14 16 16 17 16 17 18 18 16 15 15 15 16 16 16 17 17 19 19 19 18
13 12 11 11 10 10 9 8 7 6 6 5 4 4 4 5 6 8 10 12 13 14 15 16 17 17 18 18 18 18 17 17 17 18 18 19 19 19 19 19 19 19 20
11 11 11 11 10 10 9 8 7 6 5 4 4 4 6 7 9 10 12 13 14 15 16 16 17 17 17 17 16 15 15 16 17 19 21 23 24 24 22 20 19 19 19
13 12 12 11 11 10 8 7 6 6 5 5 6 7 8 9 10 11 13 14 15 16 16 17 17 17 16 14 13 14 16 18 20 21 23 24 25 24 22 20 20 19 20

GFSGL_850_spd_087.txt.gz
Wind_Speed
34 35 37 38 36 36 36 40 49 53 48 47 40 43 34 31 31 30 31 32 31 32 32 33 34 33 32 31 35 37 35 38 38 40 32 35 34 32 28 26 26 29 34
30 31 38 37 38 39 39 36 37 46 47 44 41 35 34 34 34 34 35 35 35 35 35 33 34 34 34 35 38 35 32 38 41 43 40 39 38 35 35 33 28 33 29
31 33 32 35 39 41 44 44 40 38 43 41 41 41 38 35 35 36 36 36 37 37 36 36 35 38 40 39 35 32 33 36 39 39 41 38 38 36 30 31 34 31 27
34 34 35 36 37 38 39 41 42 41 41 42 44 40 39 37 36 36 34 34 35 37 38 42 39 40 41 35 33 32 33 34 36 35 34 32 31 31 32 31 29 28 25
33 33 36 37 33 32 33 34 36 40 39 38 39 37 35 34 36 35 33 34 35 36 39 35 35 36 35 32 32 34 34 34 33 32 31 30 30 28 27 23 24 19 18
35 37 32 32 30 33 33 34 34 35 36 35 36 35 34 34 35 34 33 31 32 35 36 36 34 36 33 35 34 35 33 28 27 26 27 28 24 22 21 21 20 17 20
33 31 30 30 30 31 30 29 30 32 32 34 33 32 30 28 32 33 30 31 32 32 31 32 31 30 31 30 26 23 20 18 18 18 17 16 14 15 17 16 19 19 21
34 32 32 31 29 29 29 29 29 29 30 31 32 33 33 32 32 34 32 30 26 28 29 27 24 23 21 17 13 11 12 11 11 11 12 14 16 16 17 18 19 25 32
31 32 32 32 30 30 31 30 26 32 37 35 33 33 33 32 30 28 25 23 22 22 21 18 15 12 10 9 9 8 9 9 11 12 12 13 15 17 19 25 28 27 29
26 25 25 26 26 26 28 38 42 38 34 33 30 28 26 21 21 23 21 18 16 16 14 12 10 9 9 9 7 6 7 9 11 11 11 15 19 22 24 25 24 23 19
20 19 22 24 27 34 39 36 35 32 27 25 24 20 17 15 15 13 11 11 10 11 11 10 9 7 5 4 3 6 7 10 13 15 15 14 13 13 11 13 14 17 21
35 36 32 31 33 32 28 26 24 24 25 24 22 20 17 15 13 13 14 12 12 10 9 8 6 3 2 3 5 9 10 11 15 15 14 13 11 12 13 14 16 19 21
24 27 25 25 23 23 24 24 22 22 23 22 21 20 19 18 17 16 14 12 9 6 4 1 0 4 7 9 9 9 10 10 11 11 11 12 13 14 16 18 19 20 22
24 26 27 26 26 25 23 20 19 17 18 21 21 21 21 20 17 15 12 8 5 3 2 2 5 6 6 8 9 11 11 14 15 12 11 14 16 18 19 18 20 21 24
26 25 24 22 22 22 20 19 17 17 15 18 19 21 19 18 15 12 9 7 4 4 7 8 6 3 1 3 6 7 7 9 10 11 13 16 17 19 20 19 20 23 25
23 24 24 23 23 24 24 26 19 17 17 17 16 14 15 15 13 8 5 4 5 7 4 3 3 4 4 5 6 7 8 10 12 13 17 17 18 19 20 21 23 24 25
20 22 23 24 26 26 24 25 29 25 21 20 18 17 13 12 8 7 8 8 9 7 6 5 4 5 6 7 7 8 10 12 15 15 17 17 20 21 23 23 24 24 25
23 23 23 23 24 26 27 28 28 27 24 22 15 12 11 9 8 9 12 10 7 8 7 6 6 6 7 8 10 12 13 14 15 15 17 18 18 20 21 22 22 23 23
24 25 26 27 26 25 24 23 22 20 19 16 13 10 10 8 5 5 4 4 6 6 6 6 7 7 8 9 10 11 12 13 15 15 16 17 18 19 19 20 21 22 23
26 25 25 25 23 22 20 20 19 17 16 15 14 14 7 4 7 8 8 7 7 7 6 6 6 7 8 9 10 11 12 13 14 14 15 16 17 17 18 20 20 22 22
26 24 23 22 21 19 18 17 15 13 12 10 10 9 8 6 8 8 8 8 7 6 7 7 8 8 8 9 10 10 11 12 13 14 15 15 16 17 17 18 19 21 22
20 20 19 19 19 18 17 16 14 13 12 10 8 6 5 6 7 7 6 7 7 8 8 8 8 8 9 9 10 11 11 12 13 13 14 15 15 16 17 18 19 22 22
18 17 17 16 15 15 14 13 13 11 10 9 7 7 7 7 6 5 6 7 7 8 9 10 10 10 10 12 13 12 11 12 12 13 15 16 16 17 18 20 21 22 23
13 13 13 13 13 12 12 12 11 11 10 9 8 7 6 6 6 7 7 8 9 9 10 12 13 13 13 14 13 13 13 13 14 16 18 20 20 19 19 20 21 22 23
13 13 13 13 12 12 12 11 10 9 7 6 6 5 5 5 5 6 8 9 11 12 13 13 14 14 14 14 13 12 12 14 17 19 22 23 24 23 23 22 21 22 23
14 14 13 12 12 11 10 9 8 7 6 5 5 4 5 5 5 7 9 11 12 14 13 15 16 15 14 13 12 13 15 17 19 20 23 24 25 25 23 23 23 24 24

GFSGL_850_spd_093.txt.gz
Wind_Speed
39 38 37 37 38 39 39 39 42 42 42 48 47 44 40 37 39 35 33 34 33 32 34 32 30 31 30 30 29 31 33 34 38 41 40 39 40 40 35 31 32 31 35
38 39 39 37 36 39 41 41 39 45 45 45 48 46 45 43 40 36 35 35 36 37 37 33 33 32 33 33 33 34 36 36 39 42 43 43 43 43 36 35 35 37 38
37 39 41 40 39 39 39 40 38 42 46 44 45 45 46 43 43 41 39 38 38 37 36 36 35 34 36 38 39 38 38 39 41 43 44 45 48 41 38 36 37 38 40
35 37 40 44 42 40 39 40 39 39 43 45 49 48 52 50 46 46 40 37 39 40 39 38 38 38 40 39 39 39 40 42 42 44 42 43 40 36 34 33 34 34 33
33 36 37 39 41 42 41 40 41 41 41 42 44 48 55 57 54 51 46 42 42 44 45 41 39 40 39 40 41 42 43 44 41 45 38 34 31 28 29 27 28 29 29
32 34 34 35 37 40 41 41 41 40 39 38 40 43 50 53 56 57 57 56 50 45 39 38 40 42 42 41 44 44 46 41 34 29 27 27 23 21 19 17 16 16 18
34 34 36 36 36 36 40 43 44 41 39 38 38 39 40 42 45 48 47 47 46 42 41 41 41 42 44 44 44 45 33 29 27 23 21 17 12 11 10 10 12 13 16
35 36 38 37 36 35 36 38 41 44 45 44 41 39 39 40 40 42 42 41 42 42 43 44 43 40 42 40 25 20 16 11 7 6 6 7 7 8 9 11 14 15 15
37 37 39 41 39 36 36 36 36 37 38 41 45 43 42 43 44 43 43 44 44 44 41 38 37 28 21 19 15 11 7 9 8 6 4 3 3 6 8 10 13 17 19
38 39 39 39 42 41 39 36 34 35 39 40 42 45 45 44 46 44 44 42 39 35 32 32 24 22 21 18 11 11 11 8 4 4 7 4 3 5 9 11 13 14 15
32 33 38 38 38 37 37 39 40 41 41 40 38 39 42 43 42 40 38 37 36 33 25 22 20 20 19 18 13 10 8 7 5 3 2 6 8 8 8 10 12 15 17
13 31 36 37 39 39 36 39 40 39 39 39 37 35 31 31 33 37 40 41 33 30 27 24 21 18 14 12 8 6 4 3 2 3 3 5 7 8 11 13 16 17 18
3 10 19 25 29 32 37 40 38 36 37 39 38 36 30 24 25 19 16 22 26 29 26 21 19 11 10 9 8 5 5 5 4 1 3 6 9 13 16 17 17 18 19
4 4 7 11 18 23 25 27 30 32 32 36 29 30 28 27 26 23 31 30 23 25 22 22 15 13 9 10 8 7 5 4 4 4 6 10 12 13 16 18 19 20 19
4 6 8 10 14 16 18 19 23 24 25 29 31 31 35 36 32 28 18 23 23 18 17 17 15 12 10 8 6 4 4 5 5 6 8 10 11 13 13 14 15 16 17
15 10 6 10 18 22 25 27 19 18 20 25 33 32 29 30 23 23 21 14 15 13 13 12 12 10 8 6 4 2 3 5 7 7 8 9 10 11 13 14 14 15 18
17 15 13 13 17 22 28 35 40 37 32 30 30 30 28 26 22 19 18 17 14 10 11 10 9 8 8 5 3 2 3 5 6 7 7 8 10 10 12 13 14 16 18
17 19 21 24 26 29 33 37 38 36 36 33 27 26 23 21 21 19 16 12 13 11 10 10 9 6 4 2 1 1 2 4 5 6 7 8 10 10 11 13 15 17 18
21 23 25 27 29 29 30 31 31 31 31 31 24 21 19 16 16 15 12 10 11 12 10 9 7 5 3 2 1 2 4 5 6 7 8 9 9 11 12 13 14 16 18
26 28 27 28 29 27 27 29 28 27 27 25 21 18 14 10 11 12 12 11 10 10 8 6 5 4 1 1 2 4 4 4 5 6 7 9 10 12 13 15 15 18 19
25 25 24 24 24 23 22 23 23 23 22 20 18 15 13 9 12 12 11 10 9 8 6 4 3 1 1 2 3 3 4 5 7 8 8 9 11 13 14 15 16 17 19
25 25 24 24 23 22 21 20 19 19 19 17 15 12 9 11 12 11 10 8 7 6 5 3 2 2 3 3 4 6 7 7 7 6 8 10 12 13 14 16 17 18 20
19 20 20 20 19 18 18 17 16 15 14 13 13 11 10 10 10 9 8 7 6 5 4 3 3 5 5 6 6 6 6 6 6 7 10 12 13 14 16 17 19 20 20
15 15 15 16 16 15 15 15 14 13 13 12 11 9 9 9 8 7 7 6 5 4 5 5 6 5 6 5 6 6 6 5 6 9 11 13 15 16 17 18 19 20 22
14 15 15 16 15 15 14 13 11 10 10 10 9 7 7 5 4 6 6 3 4 4 5 5 6 7 7 7 6 5 5 6 8 11 13 15 16 17 18 19 21 22 23
12 13 14 14 14 13 12 11 11 8 7 6 5 4 4 2 2 4 3 3 4 5 6 7 8 8 8 7 7 7 8 8 10 12 14 16 18 19 20 21 21 23 24

GFSGL_850_spd_096.txt.gz
Wind_Speed
27 31 30 30 33 38 32 30 29 30 35 39 38 37 37 38 38 41 45 37 35 38 39 37 39 35 34 31 33 34 35 35 36 38 37 36 36 34 34 34 33 38 36
28 31 33 33 36 37 36 33 32 33 36 38 39 38 38 37 39 40 42 40 38 36 37 36 34 34 34 32 33 35 37 36 38 40 41 41 39 37 34 35 36 36 32
27 31 35 36 37 39 39 36 35 35 38 41 41 43 44 43 40 39 39 39 37 36 35 35 37 35 36 36 36 37 39 39 42 44 44 43 40 38 38 38 35 31 35
27 30 37 38 38 38 36 37 38 39 41 42 42 42 49 47 48 47 44 44 43 42 39 37 36 35 35 37 40 41 43 43 44 44 44 42 40 39 34 34 31 31 30
29 30 36 38 38 38 38 37 38 41 42 40 41 45 46 51 52 50 49 48 48 46 42 40 39 38 40 41 44 45 45 45 44 45 45 43 41 41 30 26 26 25 24
31 32 30 35 39 40 39 39 38 40 42 42 41 42 47 49 50 52 50 51 48 45 44 44 42 44 44 47 48 47 47 47 47 45 47 47 32 24 20 18 18 16 16
33 31 31 33 36 38 41 40 41 42 40 43 42 42 44 45 46 46 49 51 52 51 52 52 49 49 52 48 46 47 46 45 43 39 31 24 19 16 15 11 9 8 10
34 34 32 31 35 37 37 40 42 40 41 41 42 42 41 40 41 42 44 47 51 55 54 55 54 52 51 49 48 44 40 38 30 26 22 20 15 14 13 10 8 8 9
32 34 35 33 34 36 39 39 37 40 41 41 39 37 40 41 39 38 38 42 47 49 49 51 53 49 43 43 40 35 27 20 18 20 18 13 13 8 4 6 9 11 11
27 33 31 33 37 39 36 37 37 37 39 41 41 42 41 42 42 40 39 41 45 48 52 47 42 37 32 31 26 23 21 16 15 11 10 7 1 3 6 7 8 10 11
13 23 29 34 36 36 35 38 40 39 40 40 40 40 42 43 42 42 42 42 44 43 39 34 30 28 27 22 17 17 14 11 8 6 1 1 1 2 4 6 9 11 12
12 10 15 29 36 38 36 37 40 41 42 45 45 44 42 39 40 39 42 40 41 40 33 28 26 25 23 20 17 10 11 8 5 5 4 1 1 1 4 7 10 12 13
13 8 7 12 20 30 31 35 38 41 41 39 35 34 30 25 25 27 24 29 32 32 30 28 24 20 15 14 11 10 9 7 5 3 2 1 4 7 9 9 11 12 13
9 7 3 4 7 10 14 20 23 25 32 37 33 30 27 22 19 16 20 22 28 29 25 24 19 14 14 10 10 9 8 4 3 3 2 3 6 7 9 10 11 11 11
12 12 9 5 2 5 8 7 7 10 11 22 24 27 28 31 29 26 26 30 26 22 23 23 21 16 15 11 8 6 4 3 2 3 4 5 6 7 8 10 11 12 12
14 14 16 17 15 11 9 17 22 15 15 16 29 32 35 38 34 31 29 25 24 21 19 17 16 13 10 8 7 5 3 3 3 4 4 6 6 7 8 9 10 12 13
16 16 15 18 22 27 32 36 42 37 35 32 31 33 30 30 27 24 22 21 18 14 13 15 12 9 7 5 4 3 2 3 3 4 5 6 6 6 7 8 10 12 14
12 14 15 19 21 28 33 36 38 39 40 36 28 26 24 23 22 19 16 14 17 12 11 11 12 10 6 5 4 3 3 4 4 5 5 6 6 6 8 9 11 14 16
13 17 19 23 25 27 30 33 33 33 34 31 27 25 22 18 17 15 12 9 12 13 12 11 9 7 6 5 4 3 3 4 5 6 5 5 5 6 8 10 12 14 15
17 19 20 22 25 25 27 29 28 27 27 23 20 19 16 10 10 11 11 11 12 12 10 8 8 6 4 3 2 2 2 3 3 2 3 4 6 9 10 11 12 13 14
19 20 19 21 21 22 21 22 22 21 19 18 17 13 10 8 12 12 12 11 10 10 8 6 6 4 2 1 1 2 3 2 2 3 4 4 5 7 9 10 11 14 16
17 19 19 18 18 17 17 16 16 16 15 15 15 13 11 10 12 11 10 10 9 7 6 5 2 1 0 1 2 2 1 1 1 1 2 4 7 8 9 10 13 14 17
13 14 15 15 13 13 13 12 12 11 12 12 12 12 11 10 10 9 8 7 6 4 4 3 1 1 1 2 3 3 2 3 3 3 4 5 7 9 10 12 14 16 17
12 12 12 12 12 12 11 12 11 10 10 11 11 10 9 9 8 7 6 5 4 2 2 1 1 2 4 5 5 5 5 5 5 5 7 8 9 11 13 14 15 16 18
8 9 10 10 10 11 11 11 10 10 9 9 8 7 7 7 5 4 3 2 1 1 2 3 5 6 7 6 7 7 7 8 8 8 9 10 11 12 14 15 16 17 19
9 9 10 10 9 9 9 9 9 7 6 6 5 5 4 4 3 2 1 1 2 3 5 7 8 8 10 9 8 9 9 9 10 10 11 12 13 13 15 16 17 20 22

GFSGL_850_spd_099.txt.gz
Wind_Speed
27 26 25 25 24 24 26 26 27 26 27 29 32 38 45 48 47 47 47 46 45 38 35 30 30 31 32 33 32 27 30 33 35 37 36 35 36 33 33 34 34 34 33
27 28 27 24 25 26 29 30 26 24 25 27 32 34 34 41 44 46 49 49 47 46 37 31 32 33 34 31 34 35 35 34 34 41 40 39 39 38 38 38 36 34 35
27 28 29 28 27 28 29 31 28 25 23 23 27 33 34 36 38 43 47 51 52 49 41 33 35 36 38 36 36 35 35 37 38 40 42 42 42 42 43 40 39 38 39
28 27 29 30 30 29 28 31 31 29 28 27 29 32 35 36 35 37 40 42 44 45 44 40 36 34 35 35 36 36 38 39 39 42 43 44 45 45 44 41 40 41 36
29 28 28 29 28 30 31 32 32 33 32 32 31 35 37 37 36 39 40 41 42 42 41 39 41 41 39 38 38 38 38 39 41 45 46 47 46 46 48 44 42 35 30
28 27 26 27 29 31 32 33 33 33 35 35 38 38 41 44 43 44 45 46 45 45 44 45 44 44 44 45 42 40 42 44 45 49 49 50 50 50 44 38 32 28 26
28 28 27 26 28 30 33 34 35 35 35 37 40 41 43 44 43 43 46 50 51 51 50 49 50 48 46 45 45 48 49 49 51 48 47 45 40 33 26 27 24 21 18
24 26 25 25 25 28 30 33 35 36 37 37 40 41 42 44 41 41 43 45 48 50 51 53 51 51 51 51 51 50 49 50 49 47 42 35 28 22 19 14 9 9 8
20 21 22 24 27 29 32 34 33 34 37 39 39 41 42 43 41 39 37 40 44 47 48 48 48 48 48 50 52 52 49 39 37 30 25 26 20 12 10 7 5 3 7
16 17 22 27 30 29 30 32 34 36 36 35 36 40 42 42 41 38 39 40 41 43 45 46 48 49 50 52 49 38 30 18 13 14 14 12 8 6 4 5 5 7 9
4 8 16 22 26 30 33 28 31 34 34 37 40 42 42 43 39 37 38 41 42 42 45 46 42 44 45 38 25 22 18 18 14 9 6 6 3 2 3 7 8 8 9
8 8 9 11 18 26 30 34 34 35 36 38 42 45 46 46 48 49 47 45 48 48 43 34 28 21 19 17 16 15 13 10 10 7 4 1 2 3 6 8 10 11 12
7 6 6 5 7 11 19 27 32 34 33 34 34 33 20 14 25 36 38 38 39 34 28 23 23 24 25 19 16 14 14 13 10 7 7 3 4 4 6 7 8 8 9
10 8 8 5 4 2 3 7 13 20 24 21 17 17 15 12 9 6 10 15 18 26 32 31 28 23 24 23 20 15 11 8 7 2 2 1 2 4 5 6 6 7 8
13 13 15 15 14 13 13 13 9 8 3 8 11 8 12 17 20 25 29 33 33 35 35 32 28 22 18 16 16 11 6 5 5 5 2 3 2 3 4 5 7 8 9
14 14 16 18 20 23 23 25 25 21 17 16 18 18 26 27 28 26 30 27 27 24 22 26 24 20 15 11 9 9 8 7 6 4 4 3 3 4 5 6 7 8 11
14 16 16 18 20 24 28 29 34 33 33 33 31 29 28 27 24 21 20 22 19 16 16 16 17 13 10 8 9 7 6 6 5 4 3 2 3 3 4 6 7 9 10
13 17 17 19 20 23 28 32 34 35 36 33 28 25 23 21 21 19 17 16 18 16 14 12 11 11 10 9 8 7 5 4 3 2 2 2 2 3 4 6 7 9 10
14 17 19 19 21 23 24 27 28 29 29 29 23 21 18 15 14 14 10 9 11 12 12 11 10 9 8 7 7 6 4 3 2 3 2 2 2 3 4 6 7 8 11
14 15 18 20 21 22 23 24 25 25 25 22 19 16 13 8 8 10 11 12 12 13 11 9 9 8 6 5 4 3 3 2 3 1 1 1 2 4 5 6 8 10 12
15 16 16 17 18 18 19 19 19 18 18 17 15 12 9 7 10 10 10 10 9 9 8 7 6 4 3 2 2 2 2 1 1 2 2 2 4 6 7 9 11 13 14
14 15 15 16 16 15 15 14 13 12 12 12 12 11 9 8 9 9 8 8 7 6 5 4 3 2 1 0 0 1 2 3 3 3 2 4 6 8 9 10 12 14 16
11 12 12 13 12 12 12 12 11 11 11 11 12 11 9 8 8 7 7 7 5 5 3 2 1 1 2 2 3 3 4 4 4 4 4 6 8 9 11 11 13 15 16
10 10 10 10 9 10 10 10 10 10 10 9 9 9 8 7 6 6 5 4 3 2 1 1 1 3 4 5 5 5 6 6 6 6 7 8 9 11 11 13 14 15 16
6 6 7 8 8 8 9 10 10 9 9 9 8 7 6 6 5 4 3 2 1 1 1 2 3 5 6 7 8 7 7 8 8 9 10 10 11 12 13 14 15 16 17
7 7 7 8 9 9 9 8 8 8 6 6 6 5 4 3 1 1 0 2 3 4 5 7 8 9 9 9 8 8 9 10 10 11 11 12 12 13 15 15 17 17 19

GFSGL_850_spd_102.txt.gz
Wind_Speed
29 25 24 23 22 22 20 19 16 12 8 9 14 20 30 37 42 50 50 47 47 44 40 40 36 29 31 27 28 30 28 26 27 31 27 30 34 32 31 31 31 32 33
28 24 25 24 23 24 23 21 19 15 15 15 18 23 28 31 44 50 44 45 44 46 39 39 39 31 31 31 31 31 32 31 29 30 33 35 35 34 33 33 33 36 38
26 24 26 25 25 24 24 24 21 20 19 21 21 25 31 36 39 43 50 48 46 48 44 39 39 35 31 28 31 34 34 32 32 36 37 37 37 37 36 36 38 40 40
24 23 24 26 23 23 23 24 25 23 20 20 21 25 30 35 41 42 46 41 46 48 47 45 47 41 37 30 30 34 39 35 36 36 38 40 39 37 39 40 42 40 40
25 23 20 22 21 22 22 23 24 26 24 21 20 20 24 30 32 35 41 44 44 45 48 50 49 46 46 41 35 33 33 35 35 38 41 42 42 42 43 44 42 39 37
22 20 17 16 22 22 22 22 23 25 26 25 25 24 24 28 31 32 35 37 41 42 46 45 47 46 43 39 36 37 39 40 42 44 46 43 45 45 47 48 46 38 31
17 20 19 18 17 21 23 23 24 26 27 29 29 29 30 30 29 32 34 35 35 39 41 44 43 42 41 40 42 43 44 46 45 44 46 44 45 44 46 44 38 33 29
6 12 13 17 19 19 20 24 26 27 29 29 30 30 32 34 34 35 36 40 41 42 44 45 46 45 45 46 47 47 45 46 48 49 48 45 42 39 35 31 22 19 18
14 14 15 19 20 21 24 24 24 26 28 28 29 30 32 33 34 35 37 42 44 46 45 46 48 50 49 48 47 46 47 47 47 47 45 41 33 24 17 13 11 11 6
11 14 17 19 20 22 24 24 27 29 27 25 24 26 28 31 33 34 35 37 42 44 46 48 50 50 50 50 49 49 46 37 27 18 13 14 12 11 9 6 4 4 1
2 3 8 13 17 21 22 24 25 24 27 30 32 32 31 34 35 35 34 35 41 45 48 50 50 49 47 43 40 36 30 24 17 17 17 14 11 7 4 3 3 8 8
8 5 3 4 7 11 15 19 26 28 29 34 34 34 33 34 36 39 41 40 38 32 33 34 30 32 28 22 21 18 21 20 18 15 11 11 7 4 5 9 8 5 6
12 11 8 6 3 3 3 6 13 22 27 29 26 24 20 19 19 21 21 17 14 18 23 15 17 16 19 21 20 22 21 19 14 11 10 4 6 7 7 6 7 8 8
13 14 13 11 10 8 6 4 4 4 5 8 8 3 2 6 5 5 3 4 8 18 25 25 25 27 26 27 24 20 17 13 11 7 7 6 7 7 6 7 8 8 9
17 18 17 17 17 17 15 14 11 11 8 10 12 12 13 17 15 12 13 20 24 27 30 31 30 25 22 19 17 16 10 8 9 9 8 8 7 7 7 8 7 8 9
17 19 18 18 20 22 22 22 22 19 18 18 18 17 23 21 20 20 22 26 28 27 27 26 25 22 20 15 13 11 9 9 11 10 9 8 7 6 7 8 8 8 10
17 18 16 16 17 21 24 25 29 29 29 29 26 25 24 24 21 21 23 23 21 17 21 21 18 14 12 11 11 11 10 10 10 8 8 7 8 7 7 7 7 8 9
14 15 16 17 17 20 23 26 28 29 32 32 28 26 24 23 23 20 17 16 19 17 16 14 11 11 12 11 11 10 9 9 8 8 7 8 7 5 6 7 8 7 7
14 13 15 18 20 22 24 25 26 28 30 30 26 24 22 18 17 17 14 11 13 14 14 14 13 11 10 9 8 8 7 6 6 5 5 5 5 5 6 6 6 8 10
14 14 15 18 20 21 21 22 23 23 23 23 21 20 16 11 11 13 12 13 14 15 15 13 12 10 8 7 6 5 5 4 4 4 4 4 3 4 5 6 7 8 10
13 14 15 17 18 18 18 18 17 16 15 15 16 15 12 9 14 14 14 14 14 14 13 10 10 8 6 5 4 4 3 3 3 3 2 1 3 5 6 6 7 9 12
12 13 14 15 15 15 14 13 12 12 13 13 15 15 12 11 13 13 13 12 12 10 9 8 7 6 5 4 3 2 3 3 2 2 2 3 4 6 7 8 9 11 13
10 11 12 13 12 11 11 11 11 11 12 13 14 13 12 11 11 11 10 10 9 7 6 6 5 4 2 2 2 3 3 3 4 5 4 5 5 7 8 9 10 10 12
10 10 10 10 9 9 9 10 11 11 12 12 11 11 10 9 9 8 8 7 6 5 4 3 3 2 2 3 4 5 5 5 5 6 6 6 8 8 10 10 11 12 13
7 7 8 8 8 8 9 10 10 11 11 10 10 9 8 7 6 6 5 4 4 3 2 2 3 4 5 6 6 7 7 7 7 7 8 9 9 10 11 11 12 12 13
8 8 8 9 9 9 9 9 9 9 9 8 8 7 6 5 4 3 2 2 1 2 3 4 5 6 7 7 8 8 8 9 9 10 10 10 10 11 12 12 12 13 14

GFSGL_850_spd_105.txt.gz
Wind_Speed
37 36 29 22 21 20 19 19 18 16 14 16 18 19 22 31 36 45 49 57 53 51 52 48 44 34 34 35 34 33 29 31 32 29 33 24 23 22 23 24 25 26 28
35 34 26 22 22 22 21 20 18 16 11 11 15 16 16 21 28 37 45 48 57 53 50 49 49 39 38 35 37 36 33 31 31 32 33 31 29 34 28 29 28 30 31
31 30 24 23 23 22 22 21 18 16 13 11 11 14 14 16 23 33 38 42 53 52 47 53 49 39 42 34 30 31 31 32 32 33 33 30 31 29 32 35 36 34 33
27 25 21 22 22 21 21 21 20 19 18 15 14 14 16 17 22 29 35 35 37 47 51 50 45 41 44 41 36 32 29 32 33 33 36 36 35 32 32 35 35 35 35
23 20 18 19 21 20 20 21 21 22 20 19 18 18 17 21 18 32 36 41 44 46 49 43 46 44 39 41 40 38 36 30 34 36 37 42 38 37 39 40 36 35 35
18 15 11 10 19 20 19 19 21 22 24 22 21 19 19 22 26 29 35 43 45 45 44 43 44 44 43 42 45 42 39 38 41 36 34 37 38 39 42 44 47 36 36
12 10 9 7 7 16 18 19 20 21 22 25 24 22 22 20 17 22 27 33 38 43 45 41 42 47 48 49 48 47 45 41 43 37 39 41 44 46 45 36 37 39 33
10 6 2 7 7 8 10 19 19 19 21 22 24 24 24 24 22 22 22 27 30 32 34 35 35 39 37 42 42 46 45 44 43 43 43 44 44 42 42 41 35 32 26
16 7 16 13 13 14 15 13 14 19 20 23 23 23 25 25 23 24 26 29 31 33 33 35 35 36 38 39 41 43 44 46 49 50 50 50 46 42 37 25 19 16 14
14 14 12 14 15 16 18 20 16 17 20 18 23 26 27 26 27 26 26 29 32 35 38 39 40 41 42 42 43 46 48 48 45 41 34 23 16 14 13 13 13 11 10
8 4 3 7 10 12 14 17 21 23 24 27 28 28 28 29 29 29 29 32 34 38 39 39 40 42 44 42 43 43 43 39 24 17 16 17 16 13 14 11 9 4 2
9 5 2 2 5 7 9 12 14 21 24 27 27 28 26 25 26 29 29 30 34 35 32 29 30 34 31 26 24 22 20 21 19 18 16 15 12 10 7 7 8 7 6
14 12 9 5 3 1 1 3 5 10 16 18 16 15 11 8 9 9 12 13 10 16 21 20 16 11 11 13 10 16 20 19 17 15 14 9 9 11 11 10 10 8 9
19 17 16 14 12 11 10 9 8 8 9 10 9 9 9 8 8 5 5 7 7 8 15 16 16 18 20 26 27 23 19 16 13 11 10 10 11 11 9 8 8 9 10
19 19 18 19 19 19 18 17 15 16 11 12 13 13 12 13 13 12 11 14 20 23 24 26 28 30 29 25 22 20 16 12 11 13 12 12 11 11 11 10 10 9 9
19 19 18 19 20 23 24 26 25 21 19 18 16 14 21 20 15 13 16 20 22 24 26 27 27 25 23 20 16 14 12 12 11 11 11 11 11 10 10 10 9 7 8
18 17 17 18 20 23 25 26 30 28 29 29 28 26 25 24 23 24 23 26 24 21 24 25 23 19 18 16 15 15 16 15 13 12 12 12 11 10 9 9 8 8 7
16 15 15 18 20 22 24 27 30 31 32 32 30 29 27 26 24 22 19 19 22 19 19 18 17 17 17 17 16 15 14 14 12 11 10 11 10 10 9 8 8 7 7
12 15 16 17 19 21 24 26 27 29 30 29 25 22 20 18 18 19 16 13 14 15 16 18 17 17 16 15 14 13 12 11 11 11 10 10 9 8 7 7 6 5 5
12 14 16 18 19 20 22 23 24 24 23 21 19 19 15 13 13 14 13 13 14 16 16 16 16 15 14 12 12 11 10 10 9 9 8 8 7 6 6 5 4 4 6
13 13 14 16 16 16 17 17 17 16 16 15 15 15 13 11 15 16 16 16 16 15 14 13 13 12 11 10 9 8 8 7 7 6 6 5 5 4 4 4 4 5 7
12 14 14 15 15 15 14 14 13 13 13 13 16 15 12 12 14 15 14 13 13 12 12 10 9 8 8 7 6 5 5 4 4 3 3 2 2 2 3 4 5 7 8
11 11 12 13 12 12 12 13 12 12 13 14 15 15 13 12 13 12 12 11 11 10 9 8 7 6 5 4 3 3 2 1 1 0 0 1 2 3 4 6 7 8 9
9 10 10 11 10 10 11 12 13 13 13 13 13 12 11 11 11 10 10 9 8 7 7 6 5 4 3 3 2 2 2 2 3 3 4 4 5 6 6 7 8 8 10
7 7 8 9 9 9 10 12 12 12 12 11 10 9 9 9 8 8 7 7 6 5 4 4 3 3 3 4 4 5 5 5 5 5 6 7 8 8 8 8 9 10 11
8 8 9 9 10 10 10 10 10 10 10 9 9 8 7 7 6 5 4 3 3 3 3 3 4 4 5 5 6 6 6 6 7 7 8 8 9 9 10 10 11 11 12

GFSGL_850_spd_108.txt.gz
Wind_Speed
26 31 29 29 22 20 17 17 17 15 15 17 22 25 28 30 30 34 41 52 48 46 50 50 45 43 40 43 38 34 34 23 23 23 20 22 24 21 18 17 17 21 24
25 27 30 29 23 22 21 18 19 18 15 15 17 20 27 28 29 33 37 46 48 49 51 45 45 44 40 37 32 30 24 33 34 35 34 29 34 29 26 24 23 27 29
24 28 32 31 26 24 22 21 20 19 17 15 14 18 18 21 24 28 34 38 46 50 52 46 52 46 43 37 32 30 29 31 29 32 34 34 26 28 29 33 34 39 37
22 28 30 29 27 25 22 21 21 19 19 16 14 13 14 13 15 16 24 35 40 44 47 50 50 48 47 49 37 34 28 32 33 30 32 33 31 29 31 30 33 34 39
24 28 24 25 25 20 20 20 20 19 18 17 17 15 12 13 13 14 18 24 29 36 44 47 45 47 50 50 45 36 40 37 32 32 33 33 32 33 35 35 36 35 31
22 20 20 22 26 23 19 18 19 19 19 17 17 15 14 13 15 12 10 18 24 27 36 42 41 47 48 45 41 39 40 40 38 38 37 35 36 39 33 32 32 35 37
15 14 15 13 20 21 18 18 18 18 19 21 19 18 17 15 13 14 17 21 27 29 30 34 40 46 44 40 39 39 40 45 44 44 42 41 41 42 36 36 38 40 39
19 17 15 14 12 13 17 16 16 16 18 18 19 20 19 19 17 15 17 21 31 32 36 36 37 39 41 40 39 42 43 45 47 49 49 47 45 44 39 40 39 37 34
18 16 17 16 14 11 10 10 13 15 15 16 17 18 19 19 20 20 20 23 27 28 27 28 31 37 40 35 35 42 49 49 46 43 43 46 46 45 44 41 34 31 25
17 14 14 14 15 15 14 12 13 11 12 17 20 21 21 23 22 22 23 26 29 31 31 32 31 32 31 32 34 35 38 40 40 39 39 39 34 28 25 23 22 19 15
12 9 10 7 5 7 11 14 16 16 19 19 21 22 23 25 25 23 25 26 28 32 36 39 39 38 38 40 42 41 39 37 32 27 21 14 9 9 10 10 10 9 9
8 11 11 8 5 4 5 8 13 18 21 22 21 22 21 21 23 25 26 28 30 32 32 32 33 35 35 27 26 26 24 22 20 15 12 13 13 12 12 11 10 7 6
15 15 14 10 8 6 4 6 9 12 15 17 16 15 12 10 10 11 12 12 17 23 25 24 23 19 14 13 12 13 14 16 17 18 16 15 13 12 10 9 9 8 6
18 19 17 14 13 12 11 11 12 13 13 13 11 10 10 9 7 6 6 9 8 13 15 12 8 8 11 16 20 20 19 17 15 14 13 12 11 10 9 9 10 12 10
16 19 22 22 22 21 21 20 19 18 13 13 14 12 11 14 14 12 12 13 14 15 18 19 22 25 27 25 24 22 20 17 14 13 13 13 13 13 13 12 11 10 9
15 19 21 23 25 26 27 29 27 24 21 21 20 19 23 21 19 17 18 21 21 24 25 28 27 24 24 22 19 16 14 13 13 12 13 13 12 12 11 10 9 9 8
17 17 19 21 23 24 28 29 32 31 31 30 28 27 25 23 22 22 23 26 26 22 24 23 23 21 17 16 15 13 12 12 12 11 12 11 11 10 9 8 7 7 6
17 18 19 20 21 23 26 28 27 27 30 30 29 28 26 25 25 24 22 20 20 19 19 17 17 16 14 14 15 13 14 12 11 10 10 10 10 8 7 7 6 5 4
15 17 19 19 21 22 22 22 23 24 26 25 23 21 21 18 19 18 16 14 14 14 14 15 15 15 14 13 13 13 12 11 11 9 9 8 8 7 6 5 5 4 3
14 16 17 18 18 19 19 19 20 21 20 19 19 19 17 15 14 13 13 14 15 16 15 14 15 14 13 12 12 11 10 9 8 8 8 7 6 5 5 4 3 2 0
13 14 14 15 15 15 16 17 16 16 16 15 15 15 13 11 13 14 14 15 15 14 13 12 12 12 11 10 9 9 9 9 8 8 7 6 5 4 3 2 1 1 2
11 11 12 12 13 13 13 12 12 12 12 13 15 13 11 12 13 14 13 13 13 12 12 11 10 9 9 8 8 7 6 6 6 6 5 4 3 2 2 2 2 3 3
10 10 10 10 10 10 10 10 10 11 12 12 13 12 11 11 11 11 11 11 10 9 9 8 8 7 6 5 5 5 4 4 4 4 4 4 3 3 3 4 4 4 5
8 8 8 9 9 8 8 8 9 10 11 11 11 11 10 10 10 10 10 10 9 8 7 6 5 4 4 3 3 3 3 4 4 4 5 5 6 6 6 6 6 7 7
7 6 6 7 7 7 7 8 9 9 9 9 9 9 9 9 8 8 7 7 6 5 4 3 3 2 1 1 1 2 3 4 5 5 7 7 8 8 9 9 9 9 10
6 6 7 7 8 8 8 8 8 8 8 8 8 8 8 7 7 6 5 4 3 3 2 1 1 1 2 3 4 5 5 6 6 7 8 9 10 10 11 11 11 11 11

GFSGL_850_spd_111.txt.gz
Wind_Speed
31 32 31 40 36 28 26 24 19 17 18 16 19 24 26 25 23 23 30 35 40 45 50 51 50 44 45 37 30 30 27 24 22 19 10 14 17 17 12 11 13 13 21
29 30 31 37 35 29 27 23 19 17 17 15 17 17 23 24 23 23 30 36 42 45 46 49 49 46 47 42 37 31 35 28 22 21 19 16 18 18 21 28 25 20 22
26 30 27 30 32 31 24 22 20 21 18 15 17 17 20 22 20 22 25 27 37 45 46 40 41 43 45 40 37 28 26 31 33 32 34 27 28 27 30 25 25 31 31
24 24 26 31 28 29 24 21 22 21 19 17 15 13 15 15 18 21 22 27 31 35 42 46 44 42 44 44 40 38 36 35 33 31 31 32 31 30 25 27 27 29 32
21 24 30 34 28 23 22 21 21 22 20 17 17 15 11 11 12 15 15 17 23 29 34 40 40 41 40 42 43 40 34 32 31 29 30 31 31 29 31 29 27 29 35
24 27 32 29 29 23 23 22 21 23 20 18 17 17 15 13 9 9 11 12 14 21 28 31 34 38 45 42 42 45 43 35 32 32 34 34 35 31 28 30 28 30 31
23 26 25 28 28 24 22 21 20 20 20 20 18 18 16 12 9 11 10 9 12 14 16 22 30 33 34 35 37 44 36 35 38 39 39 41 41 40 38 38 38 39 39
20 19 20 22 25 25 21 19 19 18 18 18 17 17 15 14 11 10 9 11 11 13 13 17 21 25 25 29 35 40 41 38 37 38 39 42 43 43 43 44 38 39 38
22 25 24 24 23 20 18 18 17 17 17 15 14 15 15 16 15 13 12 13 13 14 12 18 22 24 24 26 34 39 40 42 41 42 44 45 46 46 46 45 41 35 29
13 20 22 22 22 24 23 22 19 16 17 20 19 18 17 16 15 16 16 17 17 22 20 26 26 24 26 26 32 37 40 43 44 43 43 44 42 39 37 32 29 26 26
14 18 18 20 21 21 21 22 21 20 19 17 18 20 19 19 19 19 19 20 20 23 27 28 22 26 29 27 28 34 41 40 37 31 26 21 18 17 16 14 12 12 12
20 20 17 18 14 16 16 16 17 18 14 17 18 18 18 18 20 21 21 21 22 24 26 28 31 35 36 31 30 23 24 23 22 18 14 9 6 4 5 5 6 6 7
26 21 20 18 15 16 14 13 13 12 16 17 15 14 11 10 12 15 18 19 23 24 24 26 24 21 18 17 15 14 13 13 12 10 10 10 9 9 9 9 8 7 6
25 25 21 20 19 17 16 14 13 13 13 13 12 11 9 8 7 6 5 5 6 7 11 9 6 6 6 12 15 15 14 14 13 13 14 15 14 12 10 8 7 8 7
24 22 26 29 29 27 27 24 20 17 13 14 15 14 12 13 13 12 12 13 14 15 15 16 18 20 21 22 22 20 18 16 15 14 12 12 11 9 10 10 9 8 7
20 21 25 28 30 29 28 29 27 24 22 21 20 17 21 20 19 18 19 21 21 22 23 24 24 24 22 21 19 17 15 13 11 11 11 11 11 10 9 9 8 7 6
20 18 19 23 26 27 26 27 29 27 26 26 25 25 24 23 22 22 23 23 21 19 23 22 21 19 18 15 14 13 13 13 12 12 10 10 9 9 8 7 7 6 5
16 17 19 21 23 23 23 24 25 27 29 29 26 26 27 27 25 23 19 16 19 19 19 18 17 15 14 13 12 13 12 12 11 11 10 9 8 7 7 6 6 6 4
15 16 17 18 19 20 22 22 22 22 24 24 22 21 19 18 18 16 14 16 16 16 15 15 15 14 13 12 12 11 11 10 10 9 8 8 8 6 5 4 3 3 4
14 16 16 17 17 17 17 17 16 17 18 20 20 14 12 11 12 12 13 14 14 15 14 15 14 13 12 11 11 11 10 9 8 7 7 6 6 5 4 3 3 3 1
11 12 13 14 14 14 15 15 14 14 14 14 14 13 12 11 13 14 14 14 13 14 14 13 13 12 10 10 9 9 8 7 7 6 5 4 4 3 2 1 0 1 3
9 10 11 13 13 13 14 13 12 13 13 13 13 13 12 13 14 13 13 12 12 12 12 12 11 10 9 8 7 7 6 6 4 3 3 3 2 1 0 1 1 3 3
10 10 11 11 12 12 12 12 12 12 13 12 11 11 11 12 12 11 10 10 10 10 10 9 8 7 6 5 6 6 4 3 2 2 2 2 1 1 2 3 5 3 5
8 9 9 10 10 9 10 11 12 12 12 11 11 10 10 10 9 9 9 8 8 8 8 6 5 5 4 4 2 1 0 1 2 3 4 4 4 5 5 6 5 8 8
9 8 9 10 10 10 10 10 11 10 11 10 9 9 9 8 8 7 7 7 6 6 5 4 3 2 1 1 1 2 2 3 4 5 6 7 8 7 8 8 9 9 8
9 10 10 10 10 9 9 9 9 9 9 8 8 7 7 7 6 6 5 4 4 3 2 2 1 1 2 2 2 3 4 5 6 6 7 8 8 8 8 8 9 9 9

GFSGL_850_spd_114.txt.gz
Wind_Speed
25 28 33 36 31 32 37 28 30 28 25 27 22 23 28 26 25 23 23 22 24 27 31 40 40 37 37 33 37 26 24 22 20 19 20 18 18 21 21 17 19 18 17
22 14 31 31 27 31 36 30 33 30 26 24 20 22 25 23 23 22 22 19 25 27 29 40 43 43 45 38 34 36 33 22 19 17 24 19 21 21 18 17 19 23 25
20 19 26 28 27 35 35 29 33 25 24 23 20 19 20 23 23 23 22 20 23 26 30 34 41 46 49 49 47 40 39 34 27 24 17 16 15 17 18 19 23 23 24
19 22 26 25 25 34 31 30 33 24 25 23 23 21 16 15 18 21 22 24 21 23 30 35 40 42 45 42 42 40 37 34 26 35 31 27 24 21 23 25 26 26 26
18 20 24 23 23 30 32 31 28 26 27 24 23 19 15 13 16 19 19 18 19 21 28 36 33 36 37 38 40 38 40 33 25 24 29 31 33 36 32 30 27 25 25
18 20 22 23 24 30 32 29 25 27 26 22 20 18 15 13 11 13 16 17 16 15 17 21 25 29 33 33 30 36 41 39 34 34 36 37 35 31 28 28 25 23 25
16 18 21 22 27 30 28 28 28 28 25 23 22 18 15 11 10 8 10 10 12 12 12 14 17 26 25 26 26 28 34 35 34 37 31 30 29 30 30 32 33 31 32
8 15 22 24 30 26 29 27 27 30 24 20 17 17 15 13 10 9 9 9 8 9 9 9 11 13 16 21 23 27 28 29 31 27 29 30 33 33 34 34 35 34 34
3 11 21 24 29 27 28 27 26 25 25 23 20 18 16 16 13 11 10 10 9 8 8 9 10 10 9 13 17 22 29 30 33 34 36 36 35 34 38 38 35 31 28
16 7 8 25 27 30 29 28 28 26 26 25 23 21 20 17 14 13 11 10 10 11 12 10 11 12 13 13 16 19 24 29 32 34 35 35 35 35 38 36 31 26 23
17 13 5 16 27 32 32 31 30 25 25 24 23 22 21 17 16 15 15 16 15 14 14 15 14 16 20 22 22 22 25 31 34 33 28 23 19 16 14 13 11 12 14
20 19 17 12 9 25 32 30 27 25 25 26 25 24 21 18 17 15 16 17 17 18 19 20 22 23 21 18 22 24 27 27 24 20 15 12 9 5 4 3 3 4 5
22 23 22 21 17 15 22 30 32 31 30 25 21 18 15 12 10 13 14 14 17 19 19 18 17 15 13 12 11 14 17 15 15 14 10 8 6 6 6 6 7 7 7
24 22 24 25 24 22 21 22 18 21 24 21 20 17 15 14 12 6 8 7 9 9 12 12 8 7 7 11 14 14 13 12 11 10 11 11 11 10 10 10 9 9 8
24 26 26 26 31 31 30 28 23 22 20 22 21 20 17 18 18 16 15 15 15 16 17 17 20 20 21 20 19 18 16 15 14 13 12 12 11 11 11 10 10 10 9
23 25 26 26 28 29 31 34 32 29 27 26 24 23 27 26 23 22 22 23 22 21 22 24 24 23 23 22 21 21 17 15 14 12 12 12 13 12 12 11 10 9 9
21 22 23 25 27 28 30 33 36 35 35 33 32 30 28 28 25 24 23 23 21 18 22 24 23 22 21 19 18 17 16 15 14 13 12 11 11 12 11 11 10 9 8
18 20 22 23 23 24 28 32 34 35 35 34 31 31 29 28 26 22 18 17 23 24 24 23 21 19 17 17 17 17 16 15 13 12 12 12 10 10 10 10 11 9 8
18 19 18 20 21 23 25 29 31 32 31 28 24 23 21 19 17 16 15 19 21 21 19 19 17 15 14 13 12 12 12 12 11 10 10 10 10 9 9 8 8 7 6
15 16 16 17 17 18 19 20 22 24 25 24 21 17 15 12 15 17 17 17 17 18 16 15 14 14 16 15 14 12 12 10 10 10 9 9 8 7 7 6 6 5 4
12 12 13 14 15 15 16 16 16 16 17 17 18 14 11 9 13 14 15 16 16 15 14 14 14 13 12 11 10 9 9 9 9 8 7 7 7 6 4 4 4 3 1
9 10 11 13 13 14 14 14 15 15 16 15 14 11 9 10 11 12 12 12 13 12 11 11 11 11 11 9 8 8 8 9 7 6 5 6 3 3 2 1 2 2 2
10 10 12 12 12 13 13 13 12 12 11 10 9 8 8 9 9 10 10 10 9 9 10 9 10 9 7 5 5 6 5 5 3 3 5 6 3 2 4 4 3 4 6
10 9 10 9 9 9 9 10 10 10 10 10 9 9 9 9 9 9 9 9 9 9 9 8 7 5 4 4 3 2 2 1 1 3 4 4 4 3 5 5 4 6 5
10 11 11 10 10 10 10 10 10 10 10 10 10 9 8 7 8 8 8 8 7 7 6 6 5 4 2 2 2 1 0 2 2 3 3 5 5 5 6 6 7 8 8
9 9 9 9 10 9 8 9 9 8 8 8 8 7 6 5 7 7 7 6 5 5 4 3 3 2 2 1 0 1 2 4 4 4 5 6 7 7 7 8 9 9 9

GFSGL_850_spd_117.txt.gz
Wind_Speed
30 30 28 29 30 33 35 35 31 33 31 34 32 28 32 32 31 31 28 28 29 26 25 25 27 28 34 37 32 33 38 35 26 26 28 27 24 27 27 28 26 24 26
31 30 25 22 21 29 32 29 33 33 35 32 27 25 27 32 32 33 29 30 27 26 26 25 27 26 36 39 35 35 34 31 26 23 29 25 25 25 25 25 23 23 19
32 27 23 20 22 28 24 25 34 33 37 31 27 26 26 27 31 31 27 27 26 24 25 24 26 29 33 32 38 34 35 29 22 20 24 29 27 27 24 23 23 23 20
34 25 22 22 23 22 24 28 34 35 35 28 26 24 25 26 28 28 29 25 23 20 23 25 27 33 33 35 37 39 40 34 32 29 18 24 28 26 24 26 23 18 21
34 26 21 20 23 23 24 29 31 38 32 29 25 25 24 21 25 28 27 24 22 21 20 23 23 28 30 38 40 42 40 37 40 36 29 25 24 23 22 19 20 24 27
34 29 22 19 22 23 24 30 35 36 30 26 26 25 23 21 22 23 23 23 20 18 20 23 25 30 28 28 34 39 43 40 46 40 37 33 38 32 29 30 27 26 26
31 27 22 19 23 24 24 30 36 34 27 29 27 24 21 18 18 21 22 21 20 19 17 17 18 20 21 28 32 34 27 29 33 40 33 28 28 31 33 33 31 29 30
27 24 21 15 21 21 24 28 37 28 32 27 26 23 20 18 17 18 18 17 16 14 15 14 15 15 17 18 23 30 29 27 29 25 27 27 27 28 26 25 30 31 34
25 21 19 11 20 21 31 36 34 34 30 30 26 26 24 21 18 18 17 17 15 15 15 14 12 14 14 15 16 20 20 21 23 25 27 28 26 25 27 26 30 31 30
23 21 19 15 13 22 30 31 34 34 33 31 31 28 26 24 20 20 18 18 17 16 16 14 14 14 14 15 16 18 19 20 21 22 23 25 26 29 33 33 31 30 26
20 19 17 12 5 18 31 33 33 35 34 34 35 33 30 24 21 21 20 19 17 17 17 16 15 13 14 14 13 14 17 19 23 24 25 25 24 23 23 20 17 15 16
20 19 20 17 7 4 27 33 34 34 36 35 32 29 27 25 24 23 21 19 18 17 18 18 18 16 16 17 18 22 23 25 26 23 20 16 15 13 10 8 8 9 10
21 22 22 22 19 12 10 29 34 37 38 34 30 27 24 23 24 25 25 24 23 23 21 20 18 17 18 18 18 20 22 22 22 19 16 12 10 8 7 7 6 7 8
26 23 23 26 27 26 21 18 18 25 31 29 25 23 22 19 18 20 22 22 21 17 17 16 12 12 12 12 15 15 14 15 15 14 14 13 12 11 11 10 10 11 10
24 25 25 27 31 33 34 31 26 24 21 20 21 23 24 25 21 19 18 19 19 19 17 17 17 20 20 19 19 18 17 16 14 14 15 16 16 15 14 13 11 11 11
22 23 25 26 29 33 34 36 36 33 31 30 28 25 29 31 26 26 24 23 22 20 22 23 24 23 24 23 22 22 20 18 18 17 17 16 16 15 14 13 11 10 10
20 21 23 23 26 30 34 37 38 35 37 36 33 30 30 30 26 23 23 23 22 23 26 27 26 24 24 23 22 21 21 18 16 15 15 15 15 14 12 12 11 9 10
17 19 22 24 26 28 29 33 34 34 36 33 28 26 25 25 24 20 18 20 24 24 27 28 27 25 23 21 19 18 17 16 15 15 15 14 13 12 12 11 11 10 9
15 15 15 16 19 20 23 27 30 30 29 27 24 22 21 21 22 22 20 22 25 25 23 23 22 20 19 17 15 15 15 15 14 12 12 11 11 10 12 12 11 10 9
13 12 12 12 13 15 17 19 20 20 21 20 20 20 17 17 21 21 20 20 21 20 18 19 19 18 17 16 14 13 13 12 12 11 11 10 10 9 9 9 8 8 9
10 11 11 12 14 15 15 15 15 14 16 17 18 15 11 12 17 17 17 17 18 17 17 17 19 17 15 14 12 11 11 11 10 9 8 7 6 6 6 6 7 7 7
10 10 10 12 13 15 16 16 15 13 13 14 14 13 10 12 14 14 14 14 15 15 14 12 13 13 11 11 9 8 7 8 8 8 7 6 5 4 5 5 6 5 4
9 10 10 11 11 11 11 11 11 10 10 10 11 11 11 12 13 13 13 12 11 10 10 8 8 9 9 8 7 6 4 4 5 4 2 3 3 3 4 4 4 5 7
10 10 10 10 9 9 9 9 9 8 8 8 8 9 9 10 11 11 10 10 9 9 10 9 8 8 7 6 6 5 4 4 3 3 2 3 3 3 4 5 5 6 7
9 10 10 10 9 8 8 8 8 8 8 7 7 7 8 7 7 8 9 9 9 8 8 7 7 6 5 4 4 4 4 3 3 4 4 4 5 6 6 7 8 8 9
5 5 7 7 8 8 7 7 7 6 6 5 4 5 6 7 7 7 7 7 6 6 5 5 5 3 3 3 3 2 1 2 3 5 5 5 5 5 6 7 7 7 8

GFSGL_850_spd_120.txt.gz
Wind_Speed
22 28 29 28 29 30 31 32 38 33 35 33 31 34 35 28 31 37 37 33 28 31 30 28 30 29 31 31 38 39 40 38 28 33 25 28 20 30 24 27 31 29 25
23 26 28 28 29 29 25 30 34 34 34 36 34 36 33 33 29 35 36 34 28 32 31 30 31 27 29 32 32 39 42 45 36 30 29 25 21 26 31 29 24 27 28
25 27 27 27 26 25 22 19 25 30 34 36 33 34 36 33 29 32 31 31 32 28 31 30 28 29 27 29 29 39 36 36 37 33 28 28 29 26 25 25 24 25 23
29 29 28 25 23 22 22 17 24 26 30 33 36 33 34 28 28 28 30 31 31 31 29 28 27 26 29 28 31 36 33 37 33 33 33 30 32 32 31 29 29 31 29
32 33 32 26 22 21 24 21 22 25 28 33 37 36 35 28 27 27 28 29 28 28 26 25 27 25 23 28 31 34 33 37 35 29 29 35 37 35 35 33 30 28 26
32 33 33 26 21 18 21 22 23 26 28 34 38 34 30 26 25 25 26 28 27 27 28 25 22 21 21 26 25 28 30 37 37 39 33 34 33 34 36 32 29 22 20
31 31 32 28 23 19 20 21 26 28 29 36 40 36 29 25 22 21 25 27 27 26 28 25 22 21 19 26 33 30 35 36 42 43 42 40 36 30 28 26 24 27 25
31 32 32 30 25 22 20 24 28 28 31 42 38 37 26 26 22 22 24 25 24 21 22 21 21 20 22 23 29 32 33 34 40 41 37 40 40 37 37 33 31 29 29
34 34 35 32 26 21 20 24 27 28 33 37 38 33 28 24 23 23 25 24 23 21 19 19 18 18 20 19 21 28 33 24 25 29 30 31 30 28 29 29 28 29 31
34 31 30 28 24 19 19 21 29 35 40 39 32 27 28 25 24 24 24 24 23 22 21 20 19 19 19 20 20 20 21 24 26 25 22 23 23 24 24 23 26 29 30
28 26 25 23 20 16 16 14 26 39 40 40 35 32 30 27 26 26 24 23 23 23 23 22 20 19 19 18 18 19 20 22 22 21 21 22 22 23 25 25 26 24 25
25 24 24 23 19 15 14 12 23 37 40 35 36 35 35 32 30 29 26 24 23 23 24 23 23 23 21 20 19 20 20 20 23 22 21 20 20 20 19 17 16 16 16
24 24 23 21 19 16 11 6 14 27 35 37 36 37 36 34 34 32 30 29 26 25 24 23 21 22 23 23 24 24 25 24 24 22 20 18 15 12 11 10 9 9 10
23 23 22 24 25 25 25 16 4 17 26 29 32 30 28 29 32 34 36 33 32 29 26 24 23 22 23 24 25 23 21 21 21 19 17 15 14 12 11 9 9 10 10
22 22 22 24 26 32 34 35 29 24 19 22 22 22 22 22 19 21 25 29 30 27 24 20 19 18 17 17 17 17 17 18 17 16 16 16 15 14 13 13 12 12 12
20 22 22 22 24 29 34 35 36 34 31 28 27 24 25 24 21 18 18 19 21 21 20 21 24 24 23 22 19 20 19 18 17 16 16 16 16 15 15 15 13 12 12
18 18 19 20 22 25 28 31 33 33 34 34 31 29 27 23 19 17 18 18 18 17 22 24 22 21 23 21 20 19 20 19 18 18 18 18 16 15 14 15 14 12 13
14 16 18 18 18 21 24 26 26 28 30 29 27 26 23 22 19 17 14 12 19 23 24 23 23 22 22 22 21 21 21 20 18 17 16 16 15 14 14 14 13 11 11
12 12 13 14 15 17 18 20 23 24 26 24 22 22 20 20 18 16 17 19 22 26 24 24 23 21 21 20 19 18 17 17 16 16 15 15 13 11 12 11 10 9 7
9 9 8 9 10 12 14 15 17 18 19 20 21 21 18 17 18 18 19 20 21 22 21 20 19 18 18 17 17 16 16 15 15 14 13 12 12 10 9 9 9 8 6
7 7 8 7 7 8 9 10 11 12 14 15 16 15 11 10 13 14 14 15 15 15 16 16 16 16 15 14 14 14 14 14 12 11 10 10 10 10 9 8 7 6 6
7 7 7 9 9 9 9 9 10 10 11 11 12 12 9 11 14 15 15 15 15 15 14 14 15 14 14 12 11 10 10 10 10 9 8 8 7 7 6 6 5 4 4
7 6 6 7 8 7 7 8 7 8 10 11 11 11 11 11 12 14 14 14 13 13 12 10 10 10 11 10 10 9 8 8 7 8 6 5 4 3 3 2 1 3 4
7 6 5 6 5 6 6 6 6 6 8 9 9 10 10 10 10 11 11 11 10 10 10 10 9 9 9 8 8 6 6 6 6 5 5 3 1 1 1 2 3 5 5
6 5 5 5 5 5 5 6 6 7 8 8 8 8 9 8 9 10 10 10 9 9 9 9 8 7 7 6 5 5 4 4 3 3 2 2 2 1 2 3 5 6 6
4 4 4 4 4 4 5 4 5 6 6 7 7 7 7 8 7 8 8 8 8 7 7 6 5 5 5 5 4 4 3 2 1 1 2 2 3 4 4 6 6 7 8

GFSGL_850_spd_123.txt.gz
Wind_Speed
14 16 18 20 21 21 22 26 29 31 33 38 38 35 34 31 32 34 33 40 38 36 34 32 27 30 29 29 27 30 32 36 34 34 32 36 28 30 29 29 29 30 27
17 19 22 24 25 26 27 27 28 31 33 37 38 37 34 32 32 33 34 34 37 38 33 29 28 28 29 30 28 30 29 36 41 31 34 35 27 30 28 32 33 33 31
18 19 21 22 25 25 27 27 26 24 25 31 37 37 35 35 34 33 34 33 33 39 33 28 30 29 28 29 30 27 27 28 36 32 31 33 28 31 25 30 28 24 27
21 22 22 23 26 26 27 25 23 22 19 26 34 35 35 35 35 34 35 33 33 34 30 26 28 30 29 27 29 28 30 27 35 39 31 30 33 34 25 32 33 33 30
25 25 26 26 26 25 26 23 22 24 22 26 29 33 34 35 36 37 34 33 33 30 30 29 28 27 24 26 28 29 29 31 38 38 35 32 32 33 33 29 26 25 24
28 27 27 28 27 24 23 22 23 27 25 25 29 31 34 36 35 34 35 32 30 31 31 30 29 25 25 26 25 28 29 34 36 36 37 36 38 39 36 34 36 34 30
29 29 29 29 29 25 22 21 20 23 25 26 29 31 32 39 34 36 30 28 30 30 28 28 26 24 21 22 25 22 25 28 29 27 35 36 38 41 38 37 33 36 36
30 32 33 33 32 28 23 21 20 23 25 26 29 30 37 35 35 30 28 29 29 27 26 26 25 22 23 24 21 26 33 33 30 32 35 36 35 34 37 38 34 41 35
33 34 35 35 35 32 28 22 20 23 26 28 28 31 35 33 31 30 28 28 28 27 25 24 25 23 22 22 23 26 32 30 24 35 35 38 42 37 37 37 34 28 25
35 34 34 34 33 32 29 25 19 20 23 30 26 35 36 37 34 31 30 30 28 26 24 23 22 21 20 21 22 23 23 27 26 32 31 28 31 36 37 38 36 34 32
32 31 31 32 31 30 27 24 18 15 19 28 28 31 41 33 32 30 31 32 30 27 25 24 22 20 20 19 18 19 19 20 23 20 23 26 25 27 27 27 27 27 28
28 29 30 31 31 27 22 18 16 14 15 22 36 38 31 33 29 30 30 26 25 24 25 23 22 21 20 20 18 18 18 18 20 21 22 22 22 22 24 25 25 25 25
27 28 28 30 31 29 24 18 15 6 10 16 22 32 32 33 35 32 29 26 25 24 25 24 23 23 22 23 22 21 21 22 22 22 22 21 20 19 19 18 18 17 16
26 26 26 28 31 33 30 29 25 17 7 3 9 18 25 29 34 36 33 30 28 26 23 23 24 25 26 25 24 24 24 24 24 23 23 22 20 18 15 13 12 13 12
24 23 23 24 26 30 34 34 33 31 20 19 18 15 14 15 18 22 31 31 31 30 27 25 24 23 24 22 22 23 22 22 21 20 19 18 17 16 15 14 12 11 10
23 23 22 21 23 25 26 29 30 30 30 26 23 23 24 20 16 10 15 22 26 25 24 23 22 22 21 20 18 18 18 19 18 17 16 16 16 16 16 16 14 14 15
21 21 20 20 22 22 22 24 26 27 27 29 27 25 23 21 20 17 14 15 15 14 17 19 19 18 17 17 17 18 19 18 18 17 17 17 17 17 17 18 16 14 15
17 17 17 18 19 19 21 23 23 25 27 27 25 25 23 22 21 19 18 15 19 18 20 21 22 21 20 20 20 19 20 20 19 19 19 18 17 16 17 16 14 13 13
16 15 15 15 15 16 17 18 20 22 23 23 23 25 24 22 21 21 19 22 26 27 27 26 25 23 22 21 20 19 20 21 19 19 18 16 14 13 14 14 13 12 10
15 14 11 11 12 13 14 15 17 18 19 20 23 24 20 17 21 23 23 24 25 25 24 24 23 21 20 18 17 17 17 17 17 16 15 13 12 10 10 10 9 8 8
15 14 13 11 11 12 14 16 16 16 18 19 21 19 16 17 20 20 20 20 20 20 19 19 19 18 17 16 15 14 14 14 13 12 11 10 9 8 8 7 6 5 3
14 13 13 13 12 11 12 13 14 15 15 16 17 17 15 18 19 20 20 21 20 19 18 16 16 16 15 13 13 11 10 10 10 9 9 8 8 7 6 5 4 3 3
13 12 11 12 12 12 12 12 12 12 12 12 12 12 13 14 15 16 16 16 15 14 14 12 11 11 12 11 10 9 8 8 8 8 6 6 6 6 5 4 3 3 3
14 13 13 13 13 12 12 13 12 12 11 11 10 10 10 10 10 11 11 11 10 10 10 9 9 9 9 8 8 7 6 6 6 5 5 4 3 2 2 2 1 2 2
11 12 12 12 13 13 13 13 12 12 12 11 10 9 9 9 8 9 9 9 8 8 7 7 6 6 6 5 5 5 5 4 4 3 2 2 1 2 2 2 2 3 3
9 9 10 10 11 11 12 12 11 11 11 11 10 9 9 8 8 9 8 8 7 6 6 6 5 5 4 4 4 4 3 3 2 1 1 1 2 3 3 4 4 5 5

GFSGL_850_spd_126.txt.gz
Wind_Speed
10 9 10 11 11 13 16 20 24 29 33 35 36 40 42 43 41 39 37 37 34 33 35 37 34 33 32 33 28 27 27 28 29 29 25 31 32 40 41 35 34 33 28
12 12 14 16 17 18 19 20 24 28 31 33 34 37 42 44 42 40 37 34 36 34 35 37 34 32 32 29 26 29 28 26 24 30 29 32 35 37 44 33 33 33 29
14 13 13 14 16 19 21 23 25 27 30 31 32 34 40 42 43 41 37 32 34 38 35 36 36 36 31 28 27 29 29 24 22 25 30 32 32 31 33 33 32 31 32
18 17 17 18 19 21 23 24 26 25 27 29 28 28 31 36 40 40 38 36 35 36 35 31 36 37 30 28 29 28 27 24 21 20 29 35 34 35 33 34 35 34 36
25 25 24 22 21 22 24 25 26 26 26 27 29 27 27 33 37 36 36 35 36 36 33 32 34 31 27 28 30 28 27 25 22 26 26 32 37 39 31 33 32 33 33
25 25 27 27 25 25 25 25 24 25 25 26 28 27 27 27 32 33 34 35 37 34 34 32 31 26 27 27 27 26 25 25 26 27 28 33 39 38 33 36 33 32 34
28 29 30 30 31 30 28 25 22 21 24 24 29 27 27 32 32 32 35 31 33 34 32 35 29 28 29 27 25 24 22 22 24 26 27 34 38 35 33 36 34 34 32
29 31 33 34 35 33 31 28 23 21 22 24 26 27 28 29 29 30 27 30 32 35 31 28 29 30 31 26 23 24 24 21 22 23 23 28 27 34 30 32 36 36 31
32 33 35 37 36 35 33 30 25 22 19 19 24 27 27 27 27 30 27 38 35 29 26 29 30 29 30 28 25 23 23 25 23 28 27 27 25 31 32 32 37 36 36
32 33 33 35 35 35 33 31 28 24 18 16 19 24 28 27 30 28 32 39 36 29 28 29 28 26 26 27 26 27 27 25 25 27 30 29 31 33 34 34 35 36 39
28 28 30 33 34 33 31 28 27 23 17 15 16 22 30 24 30 27 36 38 31 29 30 29 26 25 25 24 23 24 24 25 26 27 29 26 29 30 33 35 35 37 38
26 27 29 31 32 32 31 28 26 23 19 16 11 13 19 20 27 28 40 33 28 30 30 29 27 26 24 22 22 21 21 21 22 23 21 22 23 24 25 29 30 32 35
25 26 28 29 31 33 34 34 31 26 23 18 11 5 6 13 22 29 30 29 26 29 30 28 28 25 23 24 22 21 20 20 21 22 22 23 23 22 22 22 23 23 22
24 26 27 28 29 32 34 34 35 36 31 26 20 12 8 3 8 25 30 28 26 28 29 27 24 25 25 24 23 22 20 20 21 22 24 23 21 19 18 17 18 17 16
24 26 28 28 28 30 31 32 32 32 31 30 27 22 15 13 13 1 17 25 28 30 29 28 28 27 27 24 23 23 23 23 23 23 23 22 21 19 18 16 14 14 14
23 24 25 26 26 28 29 27 28 28 27 27 25 25 22 18 11 9 4 13 21 30 28 29 26 24 24 23 21 20 20 20 20 19 19 19 19 18 18 17 14 14 16
20 21 22 24 27 28 28 29 30 28 27 27 26 25 23 21 19 16 13 13 13 12 14 20 23 20 19 18 17 16 18 18 18 18 18 19 18 18 17 19 19 17 18
19 19 20 21 22 24 25 26 27 29 30 31 30 27 24 21 18 17 16 16 22 23 25 25 25 24 22 23 23 22 22 22 20 20 20 19 19 20 20 19 19 19 20
20 20 19 18 19 19 20 21 23 23 25 27 27 28 26 24 22 24 25 30 32 32 30 30 28 28 27 26 25 25 25 24 24 23 23 22 20 19 21 19 17 16 15
19 19 18 17 17 18 18 19 20 21 22 24 27 26 22 21 26 30 32 32 32 31 30 29 29 28 28 26 24 23 24 24 23 23 22 20 19 16 17 17 15 15 14
18 18 18 17 18 18 18 19 19 19 20 22 25 24 22 22 25 26 27 27 27 26 25 25 24 24 24 22 21 19 20 21 19 18 17 16 15 15 15 14 13 12 11
18 18 17 18 18 18 18 17 17 17 17 18 19 18 18 21 23 24 25 25 25 24 22 21 21 22 21 19 19 17 18 19 18 16 15 14 13 12 12 10 9 8 7
18 17 17 17 18 17 16 16 16 16 16 15 15 15 16 18 19 19 20 20 19 19 18 17 17 17 17 16 16 15 15 16 16 15 12 11 10 10 9 8 7 6 5
16 17 17 17 17 17 17 16 16 15 14 14 14 14 14 15 15 15 15 16 15 15 15 15 15 15 15 14 13 13 13 13 13 11 11 9 8 8 7 6 5 4 3
14 15 15 16 16 17 16 15 15 14 13 13 13 13 13 13 13 13 14 13 13 13 13 12 12 12 11 11 10 10 10 9 8 8 7 7 6 5 4 4 3 2 1
12 12 13 13 13 14 14 14 14 13 13 13 12 12 12 11 11 11 11 10 10 10 10 10 10 9 9 8 8 8 7 7 6 6 5 4 4 3 2 2 1 0 1